GEFSNE_prec_meanprecacc_024.txt.gz
Total_Precipitation_Accumulation
0.07 0.07 0.07 0.07 0.07 0.08 0.10 0.15 0.21 0.17 0.10 0.06 0.05 0.08 0.16 0.21 0.24 0.27 0.24 0.11 0.06 0.04 0.04 0.07 0.09 0.13 0.16 0.18 0.18 0.18 0.16 0.14 0.14 0.16 0.19 0.20 0.20 0.20
0.08 0.07 0.07 0.07 0.09 0.10 0.12 0.14 0.20 0.25 0.21 0.10 0.07 0.10 0.17 0.21 0.28 0.28 0.24 0.21 0.14 0.09 0.09 0.20 0.29 0.29 0.29 0.26 0.23 0.24 0.25 0.24 0.23 0.23 0.25 0.26 0.25 0.26
0.05 0.06 0.06 0.07 0.09 0.10 0.13 0.18 0.22 0.27 0.28 0.13 0.09 0.14 0.21 0.25 0.29 0.28 0.26 0.23 0.20 0.19 0.14 0.23 0.49 0.68 0.59 0.47 0.38 0.33 0.33 0.34 0.33 0.33 0.35 0.37 0.34 0.31
0.06 0.06 0.06 0.07 0.08 0.10 0.13 0.16 0.18 0.22 0.27 0.21 0.13 0.17 0.22 0.30 0.37 0.37 0.35 0.31 0.26 0.31 0.27 0.27 0.43 0.83 0.92 0.70 0.60 0.50 0.43 0.42 0.42 0.43 0.44 0.43 0.39 0.36
0.06 0.08 0.08 0.09 0.10 0.12 0.15 0.17 0.19 0.21 0.27 0.31 0.24 0.22 0.27 0.37 0.48 0.47 0.37 0.32 0.26 0.28 0.31 0.33 0.46 0.98 1.34 1.13 0.87 0.77 0.63 0.54 0.49 0.49 0.52 0.51 0.44 0.36
0.06 0.08 0.10 0.12 0.15 0.16 0.16 0.18 0.22 0.23 0.23 0.25 0.26 0.28 0.33 0.41 0.47 0.50 0.40 0.31 0.25 0.20 0.25 0.33 0.47 0.96 1.53 1.73 1.39 1.11 0.90 0.73 0.61 0.53 0.51 0.48 0.41 0.34
0.06 0.09 0.09 0.11 0.15 0.16 0.17 0.20 0.25 0.28 0.25 0.24 0.25 0.29 0.35 0.40 0.39 0.37 0.33 0.27 0.19 0.17 0.19 0.26 0.50 1.12 1.67 2.01 1.93 1.42 1.05 0.85 0.70 0.59 0.53 0.47 0.41 0.34
0.09 0.08 0.05 0.05 0.07 0.11 0.16 0.20 0.24 0.27 0.29 0.30 0.29 0.24 0.25 0.29 0.27 0.28 0.25 0.24 0.19 0.13 0.12 0.26 0.62 1.35 1.92 2.20 2.19 1.61 1.09 0.89 0.79 0.71 0.65 0.58 0.50 0.41
0.09 0.06 0.03 0.03 0.04 0.06 0.10 0.14 0.19 0.27 0.34 0.35 0.31 0.20 0.22 0.26 0.26 0.28 0.21 0.20 0.22 0.13 0.11 0.30 0.73 1.31 1.88 2.37 2.32 1.71 1.24 1.00 0.91 0.84 0.77 0.68 0.57 0.46
0.05 0.04 0.03 0.04 0.05 0.08 0.10 0.16 0.26 0.31 0.31 0.29 0.29 0.27 0.31 0.29 0.20 0.19 0.17 0.22 0.23 0.11 0.09 0.33 0.76 1.25 1.73 2.09 2.14 1.66 1.26 1.06 0.96 0.87 0.76 0.66 0.57 0.49
0.03 0.04 0.05 0.07 0.08 0.15 0.20 0.29 0.45 0.56 0.49 0.42 0.42 0.49 0.52 0.39 0.23 0.18 0.21 0.22 0.18 0.09 0.10 0.30 0.65 1.00 1.37 1.60 1.63 1.45 1.18 1.04 0.92 0.81 0.69 0.59 0.52 0.47
0.02 0.04 0.08 0.13 0.13 0.23 0.29 0.40 0.58 0.71 0.56 0.44 0.45 0.55 0.52 0.45 0.42 0.35 0.27 0.19 0.11 0.09 0.13 0.27 0.47 0.63 0.98 1.23 1.12 0.95 0.91 0.95 0.91 0.83 0.70 0.56 0.41 0.31
0.04 0.08 0.12 0.18 0.18 0.27 0.42 0.52 0.73 0.80 0.61 0.42 0.37 0.39 0.42 0.42 0.40 0.40 0.29 0.16 0.08 0.07 0.11 0.20 0.34 0.43 0.56 0.83 0.93 0.83 0.69 0.67 0.70 0.78 0.78 0.63 0.43 0.29
0.09 0.16 0.18 0.19 0.21 0.36 0.50 0.68 0.90 0.93 0.64 0.38 0.25 0.23 0.25 0.29 0.31 0.26 0.17 0.10 0.07 0.07 0.10 0.15 0.25 0.37 0.36 0.40 0.63 0.71 0.65 0.61 0.58 0.59 0.64 0.61 0.51 0.45
0.11 0.23 0.22 0.19 0.32 0.52 0.73 0.88 0.99 0.91 0.62 0.37 0.24 0.19 0.16 0.16 0.18 0.18 0.14 0.09 0.07 0.09 0.10 0.12 0.19 0.31 0.29 0.25 0.36 0.44 0.52 0.61 0.57 0.55 0.53 0.47 0.44 0.42
0.08 0.16 0.22 0.26 0.43 0.67 0.86 0.95 0.96 0.87 0.66 0.41 0.28 0.22 0.17 0.16 0.16 0.13 0.11 0.09 0.10 0.13 0.13 0.12 0.16 0.22 0.26 0.23 0.25 0.29 0.32 0.49 0.55 0.50 0.46 0.45 0.43 0.40
0.08 0.10 0.16 0.26 0.44 0.63 0.76 0.79 0.76 0.72 0.63 0.45 0.32 0.26 0.23 0.20 0.19 0.16 0.13 0.11 0.11 0.12 0.13 0.13 0.16 0.20 0.23 0.23 0.23 0.26 0.27 0.35 0.41 0.38 0.32 0.31 0.30 0.27
0.09 0.15 0.24 0.36 0.50 0.62 0.68 0.68 0.62 0.57 0.49 0.40 0.32 0.27 0.24 0.21 0.20 0.16 0.12 0.09 0.10 0.09 0.09 0.08 0.09 0.12 0.17 0.21 0.18 0.17 0.17 0.21 0.24 0.23 0.18 0.15 0.14 0.12
0.11 0.19 0.29 0.42 0.54 0.59 0.60 0.57 0.52 0.47 0.38 0.32 0.28 0.25 0.21 0.18 0.15 0.12 0.08 0.07 0.07 0.07 0.06 0.06 0.04 0.03 0.04 0.10 0.12 0.09 0.09 0.10 0.11 0.12 0.10 0.07 0.05 0.04
0.15 0.23 0.31 0.38 0.47 0.52 0.50 0.49 0.47 0.41 0.32 0.26 0.24 0.22 0.18 0.14 0.11 0.08 0.05 0.04 0.04 0.04 0.04 0.03 0.02 0.01 0.00 0.02 0.03 0.04 0.03 0.04 0.03 0.03 0.03 0.03 0.02 0.01
0.18 0.24 0.29 0.32 0.35 0.38 0.38 0.38 0.36 0.32 0.27 0.22 0.20 0.19 0.18 0.14 0.09 0.05 0.04 0.03 0.03 0.02 0.03 0.02 0.01 0.00 0.00 0.00 0.01 0.01 0.00 0.00 0.01 0.01 0.01 0.01 0.01 0.01
0.18 0.24 0.26 0.26 0.25 0.25 0.24 0.22 0.22 0.21 0.19 0.18 0.17 0.16 0.15 0.12 0.07 0.04 0.03 0.03 0.02 0.01 0.01 0.01 0.01 0.00 0.00 0.00 0.01 0.01 0.01 0.00 0.00 0.00 0.00 0.00 0.00 0.00
0.15 0.19 0.21 0.22 0.21 0.18 0.17 0.16 0.16 0.17 0.15 0.15 0.15 0.14 0.12 0.10 0.07 0.04 0.03 0.01 0.01 0.01 0.01 0.01 0.01 0.00 0.00 0.00 0.00 0.01 0.01 0.01 0.00 0.00 0.00 0.00 0.00 0.00

GEFSNE_prec_meanprecacc_030.txt.gz
Total_Precipitation_Accumulation
0.07 0.07 0.07 0.07 0.07 0.08 0.10 0.15 0.21 0.18 0.11 0.06 0.05 0.08 0.16 0.22 0.25 0.28 0.26 0.12 0.07 0.05 0.04 0.07 0.10 0.13 0.17 0.19 0.20 0.20 0.19 0.18 0.21 0.28 0.36 0.42 0.44 0.42
0.08 0.07 0.07 0.07 0.09 0.10 0.12 0.14 0.21 0.26 0.22 0.11 0.07 0.10 0.18 0.22 0.28 0.30 0.26 0.22 0.15 0.10 0.09 0.20 0.30 0.30 0.30 0.28 0.24 0.26 0.27 0.26 0.25 0.27 0.33 0.38 0.42 0.45
0.06 0.07 0.07 0.07 0.09 0.10 0.13 0.18 0.22 0.29 0.30 0.14 0.10 0.15 0.23 0.27 0.31 0.31 0.27 0.25 0.21 0.20 0.15 0.24 0.49 0.69 0.61 0.48 0.39 0.34 0.34 0.35 0.34 0.34 0.38 0.42 0.43 0.42
0.06 0.07 0.06 0.07 0.08 0.10 0.14 0.16 0.19 0.24 0.30 0.24 0.16 0.19 0.24 0.32 0.39 0.39 0.37 0.32 0.28 0.32 0.29 0.28 0.45 0.85 0.94 0.71 0.61 0.51 0.44 0.43 0.42 0.44 0.45 0.45 0.42 0.42
0.07 0.08 0.08 0.10 0.11 0.12 0.16 0.18 0.20 0.22 0.31 0.36 0.28 0.24 0.28 0.39 0.49 0.48 0.39 0.35 0.29 0.30 0.32 0.35 0.48 1.00 1.36 1.14 0.87 0.77 0.63 0.55 0.49 0.49 0.53 0.52 0.45 0.38
0.06 0.09 0.10 0.13 0.15 0.16 0.17 0.19 0.24 0.27 0.28 0.31 0.30 0.30 0.34 0.42 0.49 0.54 0.43 0.36 0.29 0.22 0.28 0.36 0.50 0.98 1.54 1.74 1.39 1.11 0.90 0.73 0.61 0.53 0.51 0.48 0.42 0.34
0.06 0.09 0.09 0.12 0.16 0.17 0.18 0.23 0.30 0.33 0.31 0.29 0.29 0.31 0.37 0.43 0.43 0.42 0.39 0.33 0.23 0.20 0.21 0.29 0.51 1.14 1.68 2.02 1.93 1.43 1.05 0.85 0.70 0.59 0.53 0.47 0.41 0.34
0.10 0.08 0.05 0.06 0.07 0.12 0.18 0.22 0.28 0.32 0.35 0.36 0.34 0.28 0.28 0.32 0.33 0.36 0.33 0.30 0.24 0.16 0.14 0.28 0.63 1.36 1.93 2.21 2.20 1.62 1.10 0.90 0.80 0.71 0.65 0.58 0.50 0.41
0.10 0.07 0.04 0.03 0.05 0.08 0.11 0.16 0.21 0.30 0.40 0.44 0.40 0.28 0.28 0.33 0.35 0.37 0.27 0.26 0.27 0.16 0.13 0.32 0.74 1.32 1.89 2.40 2.36 1.75 1.26 1.01 0.92 0.84 0.77 0.68 0.57 0.46
0.06 0.05 0.04 0.05 0.07 0.09 0.11 0.17 0.27 0.34 0.38 0.38 0.41 0.40 0.43 0.38 0.29 0.26 0.23 0.28 0.27 0.14 0.11 0.34 0.77 1.27 1.76 2.15 2.22 1.73 1.31 1.09 0.98 0.88 0.77 0.66 0.57 0.49
0.03 0.04 0.06 0.09 0.09 0.16 0.22 0.32 0.48 0.62 0.60 0.57 0.57 0.64 0.64 0.47 0.28 0.22 0.25 0.27 0.22 0.12 0.12 0.32 0.67 1.04 1.43 1.71 1.77 1.59 1.30 1.12 0.97 0.84 0.71 0.60 0.52 0.47
0.02 0.05 0.09 0.14 0.15 0.26 0.33 0.45 0.64 0.78 0.67 0.58 0.59 0.67 0.59 0.49 0.46 0.40 0.32 0.23 0.15 0.11 0.14 0.29 0.50 0.69 1.10 1.40 1.28 1.11 1.04 1.06 1.00 0.89 0.74 0.58 0.42 0.33
0.05 0.09 0.14 0.21 0.21 0.32 0.48 0.59 0.80 0.89 0.72 0.54 0.46 0.45 0.45 0.44 0.42 0.42 0.31 0.18 0.11 0.09 0.14 0.24 0.40 0.52 0.71 1.02 1.15 1.03 0.84 0.80 0.82 0.88 0.87 0.69 0.46 0.32
0.11 0.19 0.23 0.25 0.28 0.45 0.58 0.76 1.00 1.04 0.73 0.47 0.30 0.26 0.27 0.32 0.33 0.28 0.19 0.11 0.09 0.10 0.15 0.20 0.33 0.48 0.49 0.56 0.84 0.92 0.84 0.79 0.73 0.73 0.75 0.70 0.56 0.49
0.14 0.29 0.32 0.29 0.44 0.64 0.85 1.00 1.10 1.00 0.69 0.41 0.26 0.21 0.19 0.19 0.21 0.21 0.17 0.11 0.10 0.12 0.15 0.18 0.26 0.39 0.38 0.36 0.51 0.59 0.72 0.86 0.77 0.71 0.65 0.56 0.50 0.46
0.11 0.24 0.35 0.41 0.57 0.80 0.97 1.04 1.03 0.94 0.70 0.44 0.31 0.25 0.20 0.19 0.20 0.18 0.16 0.13 0.13 0.18 0.19 0.18 0.23 0.29 0.33 0.32 0.35 0.41 0.47 0.73 0.78 0.65 0.58 0.55 0.52 0.48
0.13 0.18 0.26 0.38 0.55 0.72 0.83 0.85 0.81 0.76 0.66 0.47 0.35 0.29 0.26 0.23 0.23 0.20 0.17 0.14 0.15 0.17 0.20 0.21 0.24 0.26 0.29 0.29 0.31 0.35 0.40 0.53 0.60 0.51 0.42 0.45 0.50 0.48
0.15 0.23 0.35 0.47 0.61 0.70 0.74 0.73 0.66 0.60 0.52 0.42 0.35 0.31 0.27 0.24 0.24 0.20 0.15 0.13 0.13 0.14 0.15 0.16 0.16 0.16 0.21 0.28 0.29 0.27 0.30 0.36 0.41 0.36 0.27 0.28 0.37 0.40
0.16 0.27 0.39 0.52 0.63 0.66 0.65 0.61 0.56 0.50 0.42 0.34 0.31 0.28 0.25 0.22 0.19 0.16 0.13 0.11 0.11 0.10 0.10 0.11 0.09 0.05 0.06 0.18 0.29 0.23 0.20 0.22 0.24 0.26 0.22 0.19 0.24 0.29
0.20 0.31 0.39 0.46 0.54 0.58 0.56 0.54 0.50 0.44 0.35 0.29 0.28 0.26 0.22 0.18 0.15 0.12 0.10 0.08 0.07 0.06 0.05 0.05 0.04 0.03 0.01 0.05 0.15 0.19 0.15 0.14 0.14 0.16 0.17 0.16 0.16 0.16
0.24 0.30 0.35 0.38 0.41 0.44 0.44 0.42 0.39 0.36 0.30 0.26 0.24 0.24 0.23 0.18 0.13 0.09 0.07 0.05 0.04 0.03 0.03 0.04 0.03 0.02 0.01 0.01 0.04 0.08 0.10 0.10 0.10 0.10 0.09 0.10 0.09 0.09
0.23 0.29 0.31 0.31 0.30 0.30 0.29 0.27 0.26 0.25 0.23 0.22 0.22 0.21 0.20 0.16 0.11 0.07 0.05 0.04 0.03 0.02 0.01 0.02 0.01 0.01 0.01 0.01 0.02 0.03 0.04 0.04 0.04 0.04 0.04 0.04 0.04 0.06
0.20 0.23 0.25 0.26 0.25 0.22 0.21 0.20 0.20 0.21 0.19 0.19 0.19 0.18 0.16 0.14 0.10 0.07 0.04 0.02 0.01 0.01 0.01 0.01 0.01 0.00 0.00 0.00 0.00 0.01 0.01 0.01 0.01 0.01 0.01 0.01 0.01 0.01

GEFSNE_prec_meanprecacc_036.txt.gz
Total_Precipitation_Accumulation
0.08 0.08 0.09 0.07 0.08 0.09 0.11 0.16 0.22 0.19 0.11 0.06 0.05 0.08 0.16 0.22 0.25 0.28 0.26 0.13 0.08 0.06 0.06 0.08 0.10 0.14 0.17 0.19 0.20 0.21 0.19 0.18 0.21 0.29 0.39 0.49 0.54 0.57
0.10 0.10 0.10 0.09 0.11 0.12 0.13 0.15 0.22 0.27 0.23 0.11 0.07 0.10 0.18 0.22 0.29 0.30 0.27 0.23 0.16 0.11 0.10 0.21 0.30 0.30 0.30 0.28 0.25 0.26 0.27 0.26 0.25 0.28 0.34 0.42 0.52 0.61
0.08 0.09 0.10 0.10 0.12 0.12 0.15 0.19 0.23 0.30 0.31 0.15 0.10 0.15 0.23 0.28 0.32 0.33 0.30 0.27 0.23 0.22 0.17 0.25 0.50 0.69 0.61 0.49 0.40 0.35 0.34 0.35 0.34 0.35 0.40 0.45 0.48 0.54
0.09 0.10 0.09 0.09 0.11 0.12 0.15 0.17 0.20 0.25 0.32 0.25 0.17 0.20 0.26 0.34 0.41 0.42 0.38 0.33 0.30 0.34 0.30 0.29 0.46 0.86 0.95 0.72 0.61 0.52 0.44 0.43 0.43 0.44 0.47 0.47 0.46 0.49
0.09 0.10 0.10 0.11 0.12 0.14 0.17 0.19 0.21 0.24 0.33 0.39 0.31 0.27 0.31 0.40 0.51 0.50 0.41 0.39 0.32 0.32 0.34 0.37 0.49 1.02 1.37 1.15 0.88 0.78 0.63 0.55 0.49 0.50 0.54 0.54 0.48 0.43
0.07 0.10 0.11 0.14 0.17 0.18 0.19 0.20 0.26 0.30 0.31 0.35 0.33 0.32 0.36 0.43 0.52 0.58 0.47 0.40 0.33 0.25 0.31 0.39 0.53 0.99 1.55 1.75 1.40 1.12 0.91 0.74 0.61 0.53 0.51 0.49 0.44 0.37
0.07 0.09 0.10 0.13 0.17 0.19 0.20 0.25 0.33 0.38 0.35 0.34 0.33 0.34 0.39 0.46 0.48 0.48 0.44 0.37 0.26 0.23 0.25 0.32 0.55 1.17 1.72 2.05 1.95 1.44 1.06 0.86 0.70 0.59 0.53 0.47 0.42 0.36
0.10 0.09 0.06 0.07 0.09 0.13 0.20 0.26 0.32 0.38 0.40 0.41 0.39 0.32 0.32 0.37 0.39 0.43 0.40 0.37 0.28 0.20 0.19 0.32 0.67 1.40 1.97 2.26 2.24 1.64 1.11 0.90 0.80 0.71 0.65 0.58 0.50 0.42
0.12 0.09 0.06 0.04 0.07 0.11 0.15 0.19 0.24 0.34 0.45 0.50 0.47 0.33 0.34 0.40 0.45 0.47 0.36 0.35 0.35 0.23 0.20 0.37 0.78 1.36 1.93 2.43 2.39 1.76 1.27 1.02 0.92 0.84 0.77 0.68 0.57 0.46
0.08 0.07 0.08 0.08 0.10 0.13 0.14 0.19 0.29 0.36 0.41 0.43 0.46 0.46 0.50 0.47 0.40 0.37 0.33 0.37 0.34 0.19 0.16 0.39 0.80 1.30 1.78 2.17 2.24 1.74 1.32 1.10 0.98 0.88 0.77 0.67 0.58 0.49
0.04 0.06 0.08 0.11 0.12 0.18 0.25 0.34 0.50 0.64 0.64 0.62 0.64 0.72 0.74 0.58 0.38 0.32 0.35 0.36 0.29 0.18 0.17 0.36 0.70 1.06 1.44 1.73 1.78 1.60 1.31 1.13 0.98 0.84 0.72 0.60 0.52 0.47
0.03 0.05 0.10 0.16 0.17 0.28 0.36 0.49 0.67 0.81 0.71 0.64 0.67 0.77 0.69 0.59 0.55 0.48 0.41 0.32 0.23 0.19 0.20 0.34 0.54 0.72 1.13 1.42 1.30 1.12 1.06 1.09 1.02 0.90 0.75 0.59 0.43 0.33
0.07 0.11 0.16 0.24 0.24 0.36 0.52 0.62 0.84 0.93 0.77 0.59 0.52 0.52 0.52 0.50 0.48 0.48 0.38 0.26 0.19 0.17 0.21 0.30 0.46 0.58 0.76 1.06 1.18 1.08 0.89 0.85 0.85 0.91 0.90 0.73 0.49 0.34
0.13 0.22 0.26 0.29 0.32 0.49 0.62 0.80 1.04 1.10 0.78 0.52 0.36 0.31 0.33 0.37 0.38 0.33 0.25 0.18 0.15 0.17 0.21 0.27 0.40 0.55 0.56 0.62 0.91 1.02 0.95 0.92 0.83 0.80 0.83 0.79 0.64 0.54
0.17 0.33 0.36 0.34 0.49 0.70 0.89 1.03 1.14 1.04 0.74 0.46 0.32 0.26 0.23 0.24 0.27 0.27 0.23 0.17 0.15 0.17 0.20 0.24 0.32 0.45 0.44 0.44 0.62 0.72 0.88 1.07 0.95 0.85 0.77 0.67 0.59 0.52
0.15 0.30 0.42 0.47 0.63 0.85 1.02 1.08 1.07 0.97 0.74 0.48 0.35 0.30 0.26 0.25 0.26 0.24 0.21 0.18 0.18 0.24 0.25 0.25 0.30 0.36 0.42 0.43 0.47 0.55 0.65 0.98 1.03 0.83 0.72 0.68 0.62 0.54
0.16 0.21 0.29 0.42 0.60 0.77 0.87 0.90 0.86 0.80 0.70 0.51 0.39 0.34 0.32 0.29 0.29 0.25 0.21 0.18 0.19 0.23 0.26 0.29 0.32 0.34 0.37 0.39 0.44 0.52 0.61 0.76 0.82 0.66 0.53 0.57 0.61 0.56
0.18 0.26 0.38 0.50 0.65 0.75 0.79 0.78 0.71 0.65 0.56 0.46 0.40 0.36 0.33 0.30 0.30 0.25 0.19 0.17 0.18 0.19 0.21 0.23 0.23 0.22 0.25 0.36 0.43 0.43 0.46 0.53 0.56 0.47 0.34 0.35 0.48 0.50
0.18 0.30 0.43 0.55 0.66 0.70 0.70 0.66 0.61 0.56 0.47 0.39 0.35 0.33 0.30 0.27 0.24 0.21 0.17 0.15 0.15 0.14 0.14 0.15 0.13 0.09 0.09 0.26 0.46 0.40 0.32 0.33 0.33 0.31 0.26 0.23 0.32 0.40
0.22 0.34 0.44 0.50 0.58 0.63 0.61 0.59 0.56 0.49 0.40 0.35 0.34 0.32 0.27 0.23 0.20 0.17 0.14 0.12 0.10 0.08 0.08 0.08 0.09 0.07 0.05 0.11 0.28 0.38 0.31 0.24 0.19 0.19 0.19 0.19 0.23 0.26
0.26 0.34 0.39 0.42 0.46 0.49 0.49 0.47 0.44 0.41 0.36 0.32 0.31 0.31 0.29 0.23 0.17 0.12 0.09 0.07 0.06 0.05 0.05 0.07 0.08 0.06 0.04 0.04 0.11 0.21 0.24 0.21 0.15 0.12 0.11 0.11 0.12 0.13
0.25 0.32 0.35 0.35 0.34 0.35 0.34 0.32 0.31 0.30 0.28 0.28 0.28 0.27 0.26 0.21 0.14 0.10 0.07 0.06 0.04 0.03 0.03 0.04 0.05 0.05 0.04 0.04 0.06 0.10 0.13 0.13 0.10 0.08 0.07 0.06 0.06 0.08
0.23 0.26 0.29 0.30 0.28 0.25 0.25 0.25 0.26 0.27 0.26 0.26 0.25 0.24 0.21 0.17 0.12 0.08 0.05 0.03 0.02 0.02 0.01 0.02 0.03 0.03 0.03 0.02 0.03 0.05 0.06 0.05 0.04 0.04 0.06 0.06 0.04 0.04

GEFSNE_prec_meanprecacc_042.txt.gz
Total_Precipitation_Accumulation
0.08 0.08 0.09 0.08 0.08 0.09 0.11 0.16 0.23 0.19 0.11 0.06 0.05 0.08 0.16 0.22 0.25 0.28 0.26 0.13 0.09 0.07 0.07 0.09 0.11 0.15 0.18 0.21 0.21 0.22 0.20 0.19 0.22 0.29 0.40 0.49 0.55 0.57
0.10 0.10 0.10 0.10 0.11 0.12 0.14 0.16 0.22 0.28 0.24 0.11 0.07 0.10 0.18 0.22 0.29 0.30 0.27 0.23 0.16 0.11 0.11 0.22 0.31 0.32 0.32 0.29 0.26 0.27 0.28 0.27 0.26 0.29 0.35 0.43 0.53 0.61
0.08 0.09 0.10 0.11 0.12 0.12 0.15 0.20 0.24 0.30 0.32 0.15 0.10 0.15 0.23 0.28 0.32 0.33 0.30 0.27 0.23 0.22 0.18 0.27 0.52 0.71 0.63 0.51 0.42 0.37 0.36 0.37 0.36 0.36 0.41 0.46 0.49 0.55
0.09 0.10 0.09 0.09 0.11 0.12 0.15 0.18 0.20 0.25 0.33 0.25 0.17 0.20 0.26 0.34 0.41 0.42 0.38 0.33 0.30 0.34 0.31 0.31 0.48 0.88 0.97 0.74 0.63 0.53 0.45 0.44 0.43 0.45 0.47 0.48 0.47 0.50
0.09 0.11 0.10 0.11 0.12 0.14 0.18 0.19 0.21 0.24 0.33 0.40 0.31 0.27 0.31 0.40 0.51 0.50 0.41 0.39 0.32 0.33 0.35 0.39 0.52 1.04 1.39 1.17 0.90 0.79 0.64 0.55 0.49 0.50 0.54 0.54 0.49 0.44
0.07 0.10 0.11 0.14 0.17 0.19 0.19 0.21 0.26 0.30 0.32 0.36 0.34 0.33 0.37 0.43 0.53 0.58 0.48 0.41 0.34 0.26 0.32 0.40 0.55 1.01 1.57 1.77 1.41 1.13 0.91 0.74 0.62 0.54 0.51 0.50 0.44 0.37
0.07 0.09 0.10 0.13 0.18 0.20 0.22 0.26 0.35 0.40 0.37 0.36 0.36 0.37 0.40 0.47 0.49 0.50 0.47 0.38 0.27 0.23 0.25 0.33 0.56 1.18 1.73 2.06 1.97 1.46 1.08 0.86 0.70 0.59 0.54 0.48 0.42 0.36
0.10 0.09 0.06 0.07 0.10 0.14 0.21 0.28 0.35 0.41 0.44 0.46 0.43 0.36 0.34 0.38 0.42 0.46 0.44 0.40 0.31 0.21 0.21 0.34 0.68 1.42 1.98 2.27 2.26 1.66 1.13 0.92 0.81 0.72 0.66 0.59 0.50 0.42
0.12 0.09 0.06 0.04 0.08 0.12 0.16 0.20 0.26 0.36 0.48 0.54 0.51 0.37 0.37 0.43 0.50 0.53 0.41 0.40 0.39 0.25 0.24 0.41 0.80 1.38 1.96 2.47 2.43 1.80 1.31 1.05 0.95 0.86 0.78 0.69 0.58 0.47
0.08 0.08 0.08 0.09 0.10 0.13 0.15 0.20 0.30 0.37 0.43 0.45 0.49 0.49 0.53 0.51 0.45 0.43 0.39 0.42 0.38 0.22 0.21 0.45 0.82 1.32 1.81 2.20 2.29 1.79 1.37 1.14 1.02 0.91 0.79 0.68 0.58 0.50
0.04 0.06 0.08 0.11 0.12 0.19 0.26 0.35 0.51 0.65 0.65 0.64 0.67 0.76 0.79 0.63 0.44 0.37 0.41 0.42 0.34 0.22 0.22 0.42 0.74 1.08 1.47 1.75 1.82 1.65 1.35 1.17 1.02 0.88 0.74 0.62 0.54 0.50
0.03 0.06 0.11 0.17 0.18 0.29 0.37 0.50 0.69 0.82 0.72 0.65 0.69 0.80 0.72 0.64 0.61 0.53 0.47 0.39 0.30 0.26 0.26 0.40 0.59 0.76 1.17 1.44 1.33 1.16 1.10 1.13 1.06 0.94 0.79 0.61 0.45 0.36
0.07 0.12 0.17 0.25 0.25 0.37 0.53 0.64 0.86 0.94 0.78 0.61 0.55 0.54 0.54 0.53 0.51 0.52 0.43 0.32 0.26 0.25 0.28 0.37 0.51 0.63 0.81 1.10 1.20 1.11 0.92 0.89 0.89 0.95 0.94 0.75 0.51 0.35
0.14 0.23 0.27 0.30 0.33 0.50 0.63 0.81 1.06 1.11 0.80 0.54 0.39 0.34 0.36 0.40 0.42 0.37 0.29 0.23 0.21 0.23 0.27 0.32 0.46 0.61 0.60 0.66 0.95 1.05 0.99 0.95 0.87 0.84 0.85 0.81 0.66 0.56
0.18 0.35 0.37 0.35 0.50 0.71 0.90 1.04 1.15 1.05 0.75 0.49 0.35 0.30 0.27 0.28 0.30 0.31 0.27 0.22 0.19 0.21 0.24 0.28 0.38 0.50 0.49 0.48 0.66 0.77 0.94 1.14 1.03 0.92 0.82 0.71 0.62 0.55
0.16 0.31 0.43 0.48 0.64 0.87 1.03 1.09 1.08 0.99 0.76 0.51 0.38 0.33 0.29 0.28 0.29 0.27 0.25 0.22 0.22 0.28 0.29 0.30 0.35 0.40 0.47 0.48 0.53 0.63 0.74 1.11 1.17 0.94 0.80 0.75 0.68 0.58
0.17 0.22 0.30 0.42 0.60 0.78 0.89 0.92 0.87 0.82 0.72 0.54 0.42 0.38 0.35 0.33 0.32 0.28 0.24 0.21 0.22 0.27 0.31 0.34 0.36 0.37 0.41 0.44 0.52 0.62 0.72 0.92 0.99 0.81 0.64 0.69 0.73 0.64
0.19 0.27 0.39 0.52 0.66 0.76 0.82 0.80 0.74 0.68 0.60 0.50 0.43 0.39 0.36 0.33 0.32 0.27 0.21 0.19 0.21 0.23 0.25 0.28 0.27 0.24 0.27 0.41 0.54 0.55 0.60 0.71 0.73 0.59 0.43 0.46 0.62 0.63
0.19 0.31 0.45 0.58 0.69 0.73 0.73 0.70 0.66 0.60 0.52 0.44 0.39 0.36 0.32 0.29 0.26 0.22 0.19 0.18 0.17 0.17 0.17 0.17 0.15 0.10 0.11 0.34 0.58 0.55 0.48 0.49 0.46 0.42 0.34 0.31 0.44 0.52
0.23 0.36 0.46 0.53 0.61 0.66 0.64 0.63 0.60 0.53 0.45 0.40 0.38 0.35 0.29 0.25 0.21 0.18 0.16 0.14 0.12 0.10 0.10 0.10 0.10 0.08 0.06 0.16 0.40 0.56 0.48 0.36 0.28 0.27 0.26 0.26 0.33 0.37
0.28 0.36 0.42 0.45 0.49 0.53 0.53 0.52 0.49 0.46 0.40 0.36 0.34 0.34 0.32 0.25 0.19 0.14 0.11 0.10 0.08 0.07 0.07 0.09 0.10 0.07 0.05 0.05 0.17 0.32 0.37 0.32 0.22 0.16 0.15 0.16 0.18 0.17
0.28 0.35 0.38 0.37 0.36 0.38 0.38 0.36 0.35 0.35 0.33 0.32 0.31 0.30 0.28 0.22 0.16 0.11 0.09 0.07 0.06 0.05 0.04 0.06 0.07 0.06 0.05 0.05 0.09 0.17 0.21 0.21 0.17 0.14 0.12 0.09 0.08 0.10
0.26 0.29 0.31 0.32 0.30 0.28 0.28 0.28 0.29 0.29 0.28 0.28 0.27 0.26 0.22 0.18 0.13 0.09 0.06 0.04 0.03 0.03 0.03 0.04 0.04 0.04 0.04 0.03 0.05 0.08 0.10 0.10 0.08 0.09 0.13 0.12 0.07 0.07

GEFSNE_prec_meanprecacc_048.txt.gz
Total_Precipitation_Accumulation
0.08 0.09 0.09 0.08 0.08 0.09 0.11 0.16 0.23 0.19 0.11 0.06 0.05 0.08 0.16 0.22 0.25 0.28 0.26 0.13 0.09 0.07 0.07 0.09 0.12 0.15 0.19 0.21 0.22 0.23 0.21 0.20 0.23 0.31 0.42 0.52 0.57 0.59
0.10 0.10 0.10 0.10 0.11 0.12 0.14 0.16 0.22 0.28 0.24 0.11 0.07 0.10 0.18 0.22 0.29 0.30 0.27 0.23 0.16 0.11 0.11 0.22 0.31 0.32 0.33 0.30 0.27 0.28 0.29 0.29 0.27 0.30 0.37 0.45 0.55 0.63
0.08 0.09 0.10 0.11 0.12 0.12 0.15 0.20 0.24 0.31 0.32 0.15 0.10 0.15 0.23 0.28 0.32 0.33 0.30 0.27 0.23 0.22 0.18 0.27 0.53 0.72 0.64 0.52 0.44 0.39 0.38 0.39 0.38 0.39 0.43 0.49 0.52 0.57
0.09 0.10 0.09 0.09 0.11 0.12 0.15 0.18 0.20 0.25 0.33 0.26 0.17 0.20 0.26 0.34 0.41 0.42 0.38 0.33 0.30 0.34 0.32 0.31 0.48 0.89 0.98 0.76 0.66 0.55 0.47 0.46 0.46 0.48 0.50 0.51 0.50 0.53
0.09 0.11 0.10 0.11 0.12 0.14 0.18 0.19 0.21 0.24 0.34 0.40 0.31 0.27 0.31 0.40 0.52 0.50 0.41 0.39 0.32 0.33 0.36 0.39 0.52 1.05 1.40 1.19 0.91 0.81 0.65 0.56 0.50 0.51 0.56 0.57 0.52 0.47
0.07 0.10 0.11 0.14 0.17 0.19 0.19 0.21 0.26 0.31 0.33 0.37 0.35 0.34 0.37 0.44 0.53 0.59 0.49 0.41 0.34 0.26 0.32 0.40 0.55 1.02 1.58 1.78 1.42 1.15 0.93 0.74 0.62 0.54 0.52 0.50 0.45 0.39
0.07 0.09 0.10 0.13 0.18 0.21 0.23 0.28 0.36 0.41 0.39 0.38 0.37 0.38 0.42 0.48 0.50 0.51 0.48 0.39 0.27 0.23 0.26 0.33 0.56 1.19 1.73 2.07 1.97 1.47 1.09 0.87 0.71 0.60 0.54 0.48 0.43 0.36
0.10 0.09 0.06 0.07 0.10 0.15 0.22 0.29 0.37 0.43 0.46 0.48 0.47 0.39 0.36 0.40 0.43 0.49 0.46 0.43 0.33 0.22 0.22 0.34 0.69 1.42 1.99 2.28 2.27 1.67 1.14 0.93 0.82 0.73 0.67 0.59 0.51 0.43
0.12 0.09 0.06 0.05 0.08 0.12 0.16 0.21 0.26 0.36 0.49 0.57 0.54 0.40 0.40 0.46 0.54 0.58 0.46 0.44 0.42 0.27 0.26 0.44 0.81 1.39 1.97 2.48 2.45 1.82 1.33 1.07 0.96 0.87 0.79 0.70 0.58 0.47
0.08 0.08 0.08 0.09 0.11 0.14 0.15 0.20 0.30 0.37 0.43 0.46 0.50 0.51 0.56 0.54 0.49 0.49 0.43 0.46 0.40 0.24 0.24 0.50 0.85 1.33 1.82 2.21 2.31 1.81 1.39 1.16 1.04 0.93 0.81 0.70 0.60 0.51
0.04 0.06 0.09 0.12 0.13 0.20 0.26 0.36 0.51 0.65 0.66 0.65 0.69 0.78 0.82 0.68 0.48 0.41 0.46 0.47 0.38 0.23 0.25 0.47 0.78 1.10 1.48 1.77 1.84 1.68 1.38 1.20 1.05 0.91 0.77 0.64 0.56 0.52
0.03 0.06 0.11 0.17 0.18 0.30 0.38 0.51 0.70 0.83 0.73 0.66 0.71 0.82 0.75 0.67 0.64 0.57 0.51 0.44 0.35 0.31 0.30 0.44 0.62 0.79 1.19 1.46 1.34 1.18 1.12 1.16 1.09 0.98 0.82 0.64 0.48 0.38
0.07 0.12 0.17 0.25 0.25 0.37 0.54 0.65 0.88 0.96 0.80 0.63 0.57 0.57 0.56 0.54 0.53 0.55 0.46 0.38 0.32 0.31 0.33 0.42 0.56 0.67 0.85 1.12 1.22 1.12 0.95 0.92 0.92 0.98 0.97 0.79 0.54 0.38
0.15 0.23 0.27 0.30 0.33 0.51 0.64 0.82 1.07 1.13 0.81 0.56 0.41 0.37 0.39 0.43 0.45 0.39 0.32 0.27 0.26 0.30 0.33 0.38 0.52 0.67 0.66 0.70 0.97 1.07 1.01 0.99 0.91 0.88 0.89 0.86 0.71 0.61
0.19 0.36 0.38 0.35 0.51 0.72 0.91 1.05 1.17 1.07 0.78 0.52 0.38 0.33 0.31 0.31 0.33 0.33 0.30 0.24 0.23 0.26 0.29 0.34 0.44 0.58 0.55 0.54 0.70 0.80 0.97 1.18 1.08 0.98 0.87 0.75 0.66 0.59
0.16 0.31 0.44 0.48 0.64 0.88 1.04 1.11 1.11 1.01 0.80 0.54 0.41 0.35 0.31 0.30 0.31 0.29 0.27 0.24 0.24 0.32 0.33 0.35 0.40 0.47 0.55 0.55 0.59 0.68 0.80 1.18 1.25 1.03 0.87 0.82 0.75 0.65
0.18 0.23 0.31 0.43 0.62 0.80 0.91 0.94 0.90 0.85 0.76 0.56 0.44 0.39 0.37 0.34 0.34 0.30 0.26 0.23 0.25 0.31 0.36 0.39 0.42 0.42 0.47 0.51 0.60 0.70 0.82 1.03 1.10 0.90 0.72 0.78 0.84 0.73
0.20 0.28 0.41 0.53 0.68 0.79 0.85 0.83 0.77 0.71 0.63 0.52 0.45 0.41 0.37 0.35 0.34 0.29 0.23 0.21 0.24 0.26 0.30 0.32 0.30 0.26 0.30 0.47 0.64 0.67 0.72 0.84 0.87 0.71 0.52 0.56 0.75 0.75
0.20 0.33 0.47 0.60 0.72 0.76 0.77 0.73 0.69 0.63 0.54 0.45 0.41 0.37 0.33 0.30 0.27 0.24 0.21 0.20 0.20 0.19 0.20 0.19 0.16 0.11 0.14 0.41 0.68 0.71 0.63 0.63 0.60 0.55 0.45 0.41 0.56 0.68
0.25 0.38 0.49 0.56 0.65 0.69 0.68 0.67 0.62 0.55 0.47 0.41 0.39 0.36 0.31 0.26 0.23 0.20 0.18 0.16 0.14 0.12 0.11 0.12 0.12 0.09 0.08 0.22 0.53 0.72 0.65 0.48 0.38 0.37 0.36 0.35 0.45 0.51
0.30 0.38 0.44 0.49 0.53 0.56 0.55 0.53 0.50 0.46 0.41 0.36 0.35 0.34 0.32 0.26 0.20 0.15 0.12 0.11 0.09 0.08 0.09 0.11 0.13 0.10 0.06 0.07 0.24 0.45 0.52 0.46 0.32 0.24 0.23 0.25 0.28 0.25
0.30 0.38 0.41 0.40 0.39 0.41 0.40 0.37 0.35 0.35 0.33 0.32 0.32 0.30 0.28 0.22 0.16 0.12 0.09 0.08 0.07 0.06 0.06 0.08 0.08 0.07 0.05 0.06 0.14 0.25 0.31 0.30 0.26 0.23 0.21 0.15 0.12 0.14
0.29 0.32 0.34 0.35 0.31 0.29 0.29 0.29 0.29 0.30 0.28 0.28 0.28 0.26 0.23 0.18 0.13 0.09 0.06 0.04 0.04 0.04 0.04 0.05 0.05 0.04 0.04 0.04 0.07 0.12 0.14 0.13 0.11 0.14 0.21 0.18 0.10 0.10

GEFSNE_prec_meanprecacc_054.txt.gz
Total_Precipitation_Accumulation
0.09 0.09 0.10 0.08 0.09 0.09 0.11 0.17 0.23 0.20 0.11 0.06 0.05 0.08 0.16 0.22 0.25 0.28 0.26 0.14 0.09 0.07 0.07 0.09 0.12 0.16 0.20 0.22 0.23 0.24 0.22 0.21 0.24 0.32 0.44 0.54 0.61 0.65
0.11 0.10 0.11 0.10 0.11 0.12 0.14 0.16 0.22 0.29 0.24 0.11 0.07 0.10 0.18 0.22 0.29 0.31 0.27 0.23 0.16 0.11 0.11 0.22 0.32 0.32 0.33 0.31 0.28 0.29 0.31 0.30 0.29 0.32 0.39 0.47 0.58 0.67
0.09 0.10 0.10 0.11 0.12 0.12 0.15 0.20 0.24 0.31 0.33 0.15 0.10 0.15 0.24 0.29 0.33 0.34 0.30 0.28 0.24 0.22 0.18 0.27 0.53 0.72 0.65 0.53 0.45 0.40 0.39 0.41 0.40 0.41 0.46 0.52 0.55 0.61
0.09 0.10 0.09 0.09 0.11 0.12 0.15 0.18 0.21 0.26 0.34 0.27 0.17 0.20 0.27 0.35 0.43 0.44 0.39 0.34 0.31 0.35 0.32 0.32 0.49 0.89 0.99 0.77 0.67 0.56 0.48 0.47 0.47 0.49 0.52 0.54 0.54 0.57
0.09 0.11 0.10 0.11 0.13 0.14 0.18 0.20 0.22 0.25 0.35 0.42 0.33 0.28 0.32 0.42 0.54 0.52 0.43 0.42 0.34 0.34 0.36 0.39 0.53 1.05 1.41 1.19 0.92 0.81 0.65 0.56 0.51 0.52 0.56 0.58 0.54 0.50
0.07 0.10 0.12 0.14 0.18 0.20 0.21 0.24 0.29 0.34 0.36 0.40 0.38 0.36 0.39 0.45 0.56 0.62 0.51 0.44 0.36 0.27 0.33 0.42 0.57 1.03 1.58 1.78 1.43 1.15 0.93 0.75 0.62 0.54 0.52 0.51 0.46 0.40
0.07 0.10 0.10 0.14 0.19 0.23 0.25 0.31 0.40 0.46 0.44 0.43 0.41 0.41 0.44 0.51 0.54 0.55 0.52 0.42 0.30 0.26 0.29 0.36 0.60 1.22 1.76 2.09 1.99 1.48 1.09 0.88 0.71 0.60 0.54 0.48 0.43 0.37
0.11 0.10 0.07 0.07 0.10 0.15 0.23 0.30 0.40 0.47 0.51 0.53 0.51 0.44 0.40 0.44 0.48 0.53 0.51 0.47 0.36 0.25 0.27 0.38 0.72 1.46 2.02 2.31 2.30 1.68 1.15 0.94 0.83 0.73 0.67 0.60 0.51 0.43
0.13 0.10 0.07 0.05 0.09 0.14 0.18 0.22 0.27 0.38 0.52 0.62 0.60 0.46 0.45 0.52 0.60 0.63 0.51 0.49 0.46 0.31 0.32 0.48 0.85 1.43 2.00 2.51 2.47 1.83 1.34 1.08 0.97 0.88 0.80 0.70 0.59 0.48
0.09 0.09 0.10 0.11 0.13 0.15 0.16 0.22 0.32 0.40 0.46 0.49 0.56 0.56 0.61 0.58 0.55 0.54 0.49 0.50 0.43 0.27 0.31 0.56 0.89 1.37 1.85 2.26 2.34 1.82 1.40 1.17 1.06 0.94 0.82 0.71 0.60 0.51
0.05 0.07 0.10 0.14 0.14 0.20 0.27 0.38 0.54 0.68 0.67 0.66 0.70 0.80 0.84 0.70 0.51 0.46 0.51 0.52 0.41 0.26 0.30 0.52 0.81 1.13 1.50 1.81 1.89 1.70 1.39 1.21 1.06 0.92 0.78 0.66 0.58 0.53
0.04 0.07 0.12 0.18 0.19 0.30 0.39 0.54 0.74 0.86 0.76 0.69 0.74 0.85 0.78 0.70 0.68 0.62 0.58 0.50 0.40 0.34 0.33 0.47 0.64 0.81 1.22 1.49 1.39 1.23 1.16 1.18 1.11 0.99 0.84 0.66 0.50 0.42
0.08 0.13 0.18 0.25 0.25 0.37 0.54 0.68 0.90 0.98 0.83 0.68 0.61 0.60 0.59 0.58 0.57 0.59 0.51 0.43 0.38 0.37 0.36 0.46 0.60 0.71 0.89 1.15 1.24 1.16 1.00 0.97 0.96 1.01 1.00 0.82 0.57 0.43
0.16 0.24 0.28 0.31 0.34 0.51 0.65 0.83 1.08 1.15 0.86 0.61 0.45 0.41 0.42 0.47 0.48 0.43 0.36 0.31 0.31 0.34 0.37 0.43 0.58 0.72 0.71 0.74 1.00 1.09 1.05 1.03 0.95 0.93 0.94 0.91 0.75 0.66
0.20 0.36 0.39 0.36 0.51 0.73 0.92 1.07 1.20 1.12 0.83 0.57 0.42 0.37 0.34 0.35 0.36 0.36 0.33 0.28 0.26 0.29 0.32 0.37 0.49 0.62 0.61 0.60 0.75 0.84 1.01 1.23 1.13 1.04 0.94 0.82 0.73 0.65
0.17 0.32 0.45 0.49 0.66 0.90 1.07 1.14 1.15 1.06 0.84 0.60 0.45 0.39 0.34 0.33 0.33 0.31 0.30 0.26 0.27 0.34 0.35 0.37 0.44 0.51 0.60 0.60 0.65 0.75 0.86 1.26 1.33 1.11 0.96 0.90 0.83 0.73
0.18 0.24 0.32 0.45 0.64 0.83 0.94 0.98 0.95 0.90 0.80 0.61 0.48 0.43 0.39 0.37 0.36 0.32 0.29 0.25 0.27 0.33 0.38 0.42 0.46 0.46 0.51 0.57 0.67 0.77 0.90 1.11 1.18 0.98 0.80 0.86 0.92 0.81
0.21 0.29 0.42 0.55 0.70 0.82 0.88 0.86 0.81 0.75 0.67 0.56 0.49 0.44 0.40 0.37 0.36 0.31 0.25 0.23 0.26 0.28 0.32 0.34 0.32 0.29 0.34 0.51 0.73 0.77 0.80 0.94 0.96 0.79 0.59 0.64 0.85 0.87
0.22 0.35 0.49 0.62 0.74 0.78 0.79 0.76 0.72 0.66 0.56 0.49 0.44 0.40 0.36 0.33 0.30 0.26 0.23 0.22 0.22 0.21 0.22 0.21 0.17 0.12 0.16 0.46 0.77 0.84 0.73 0.72 0.69 0.64 0.54 0.50 0.68 0.83
0.27 0.41 0.52 0.59 0.67 0.71 0.69 0.68 0.64 0.57 0.49 0.43 0.42 0.39 0.33 0.28 0.25 0.22 0.20 0.17 0.15 0.13 0.13 0.13 0.14 0.12 0.12 0.28 0.64 0.88 0.78 0.56 0.45 0.45 0.45 0.45 0.57 0.66
0.32 0.41 0.47 0.51 0.55 0.58 0.57 0.54 0.52 0.48 0.43 0.39 0.37 0.37 0.35 0.28 0.22 0.17 0.14 0.12 0.10 0.09 0.11 0.15 0.17 0.13 0.08 0.09 0.30 0.56 0.64 0.59 0.41 0.33 0.32 0.34 0.37 0.33
0.33 0.40 0.43 0.42 0.41 0.43 0.41 0.38 0.37 0.36 0.34 0.34 0.34 0.32 0.30 0.24 0.18 0.13 0.10 0.09 0.08 0.08 0.08 0.10 0.10 0.08 0.06 0.08 0.19 0.34 0.41 0.38 0.34 0.32 0.29 0.22 0.17 0.19
0.31 0.33 0.35 0.36 0.32 0.30 0.30 0.30 0.30 0.30 0.29 0.30 0.29 0.27 0.24 0.19 0.14 0.10 0.07 0.05 0.04 0.04 0.05 0.06 0.06 0.05 0.05 0.06 0.10 0.16 0.18 0.17 0.14 0.17 0.27 0.27 0.17 0.17

GEFSNE_prec_meanprecacc_060.txt.gz
Total_Precipitation_Accumulation
0.10 0.10 0.10 0.09 0.09 0.10 0.12 0.17 0.24 0.20 0.12 0.06 0.05 0.08 0.16 0.22 0.25 0.28 0.26 0.14 0.09 0.07 0.07 0.10 0.12 0.16 0.20 0.23 0.24 0.25 0.23 0.22 0.26 0.34 0.45 0.55 0.62 0.67
0.11 0.11 0.11 0.10 0.12 0.13 0.14 0.16 0.23 0.29 0.24 0.11 0.07 0.10 0.18 0.22 0.29 0.31 0.28 0.24 0.17 0.12 0.12 0.23 0.32 0.33 0.34 0.32 0.29 0.30 0.32 0.31 0.30 0.34 0.41 0.50 0.60 0.69
0.09 0.10 0.10 0.11 0.12 0.12 0.15 0.20 0.24 0.31 0.33 0.16 0.10 0.16 0.24 0.29 0.34 0.34 0.31 0.29 0.25 0.23 0.19 0.28 0.54 0.73 0.65 0.54 0.45 0.41 0.40 0.42 0.41 0.43 0.48 0.54 0.57 0.63
0.09 0.10 0.09 0.10 0.11 0.12 0.16 0.18 0.21 0.27 0.35 0.28 0.18 0.21 0.27 0.36 0.44 0.45 0.40 0.35 0.32 0.35 0.32 0.32 0.49 0.90 1.00 0.77 0.67 0.57 0.48 0.47 0.47 0.50 0.54 0.56 0.57 0.60
0.09 0.11 0.11 0.12 0.13 0.16 0.20 0.22 0.24 0.27 0.37 0.45 0.35 0.30 0.33 0.43 0.55 0.54 0.45 0.44 0.35 0.34 0.36 0.40 0.54 1.06 1.42 1.20 0.93 0.82 0.65 0.56 0.51 0.52 0.57 0.58 0.55 0.52
0.08 0.10 0.12 0.16 0.19 0.22 0.23 0.25 0.31 0.37 0.38 0.43 0.40 0.38 0.41 0.47 0.60 0.66 0.54 0.46 0.38 0.28 0.34 0.43 0.58 1.04 1.59 1.79 1.43 1.16 0.93 0.75 0.62 0.54 0.52 0.51 0.46 0.40
0.08 0.11 0.12 0.15 0.19 0.23 0.26 0.32 0.42 0.49 0.46 0.46 0.44 0.44 0.46 0.54 0.58 0.60 0.56 0.45 0.32 0.27 0.31 0.38 0.62 1.25 1.79 2.12 2.02 1.51 1.11 0.88 0.72 0.60 0.55 0.48 0.43 0.37
0.12 0.12 0.08 0.09 0.11 0.16 0.24 0.31 0.41 0.49 0.54 0.58 0.56 0.49 0.45 0.49 0.54 0.58 0.56 0.51 0.39 0.27 0.31 0.40 0.74 1.49 2.06 2.36 2.33 1.70 1.16 0.94 0.83 0.74 0.67 0.60 0.51 0.43
0.15 0.13 0.08 0.07 0.12 0.17 0.20 0.22 0.29 0.41 0.57 0.68 0.67 0.53 0.52 0.58 0.66 0.68 0.56 0.54 0.50 0.34 0.37 0.52 0.89 1.48 2.04 2.54 2.48 1.84 1.34 1.08 0.97 0.88 0.80 0.70 0.59 0.48
0.11 0.11 0.12 0.14 0.16 0.15 0.16 0.22 0.35 0.45 0.52 0.55 0.62 0.62 0.65 0.63 0.59 0.58 0.53 0.54 0.46 0.31 0.37 0.61 0.93 1.41 1.87 2.30 2.37 1.83 1.40 1.17 1.06 0.94 0.82 0.71 0.60 0.51
0.06 0.09 0.12 0.17 0.15 0.20 0.28 0.40 0.57 0.72 0.70 0.68 0.72 0.82 0.86 0.72 0.53 0.49 0.56 0.57 0.45 0.28 0.35 0.57 0.84 1.15 1.51 1.84 1.93 1.71 1.40 1.21 1.06 0.92 0.78 0.66 0.58 0.53
0.05 0.08 0.14 0.19 0.19 0.30 0.39 0.56 0.77 0.90 0.78 0.71 0.77 0.90 0.84 0.75 0.71 0.66 0.64 0.57 0.46 0.39 0.37 0.50 0.67 0.84 1.24 1.50 1.41 1.26 1.21 1.22 1.12 1.00 0.84 0.66 0.50 0.43
0.09 0.15 0.22 0.26 0.25 0.37 0.55 0.69 0.93 0.99 0.85 0.72 0.66 0.66 0.64 0.62 0.61 0.64 0.58 0.50 0.44 0.42 0.41 0.51 0.64 0.74 0.92 1.17 1.25 1.18 1.04 1.01 1.01 1.05 1.02 0.83 0.57 0.44
0.18 0.28 0.31 0.31 0.34 0.51 0.65 0.84 1.09 1.17 0.91 0.68 0.51 0.46 0.46 0.50 0.51 0.47 0.41 0.37 0.37 0.39 0.41 0.48 0.64 0.77 0.77 0.79 1.02 1.11 1.07 1.05 0.99 0.98 1.00 0.94 0.76 0.66
0.22 0.38 0.39 0.36 0.52 0.76 0.95 1.07 1.22 1.18 0.91 0.63 0.48 0.42 0.38 0.38 0.39 0.39 0.36 0.32 0.30 0.32 0.34 0.40 0.54 0.67 0.67 0.66 0.81 0.89 1.05 1.26 1.17 1.10 1.00 0.88 0.78 0.69
0.18 0.33 0.46 0.51 0.68 0.94 1.12 1.20 1.23 1.14 0.90 0.65 0.51 0.43 0.38 0.35 0.36 0.34 0.33 0.28 0.29 0.36 0.38 0.40 0.47 0.55 0.65 0.65 0.71 0.81 0.92 1.31 1.38 1.17 1.02 0.96 0.90 0.80
0.18 0.25 0.36 0.49 0.69 0.89 1.01 1.05 1.02 0.97 0.85 0.66 0.53 0.46 0.43 0.39 0.39 0.35 0.32 0.27 0.29 0.35 0.40 0.44 0.48 0.50 0.55 0.61 0.72 0.83 0.96 1.17 1.24 1.03 0.86 0.93 0.99 0.88
0.22 0.32 0.45 0.58 0.74 0.86 0.93 0.92 0.86 0.81 0.72 0.61 0.53 0.47 0.43 0.40 0.39 0.34 0.28 0.25 0.28 0.30 0.34 0.36 0.34 0.31 0.36 0.54 0.78 0.84 0.86 1.00 1.01 0.83 0.64 0.70 0.92 0.93
0.25 0.38 0.53 0.66 0.78 0.83 0.85 0.82 0.77 0.72 0.62 0.53 0.48 0.43 0.38 0.35 0.32 0.28 0.24 0.23 0.23 0.23 0.23 0.22 0.18 0.13 0.18 0.49 0.81 0.91 0.80 0.78 0.75 0.69 0.59 0.56 0.75 0.90
0.31 0.45 0.56 0.63 0.72 0.76 0.74 0.73 0.69 0.62 0.53 0.47 0.45 0.42 0.36 0.30 0.26 0.23 0.21 0.19 0.17 0.14 0.14 0.14 0.15 0.13 0.14 0.31 0.69 0.93 0.84 0.62 0.50 0.51 0.52 0.52 0.65 0.74
0.36 0.45 0.51 0.56 0.60 0.63 0.62 0.59 0.57 0.53 0.47 0.42 0.40 0.40 0.37 0.30 0.23 0.18 0.15 0.13 0.12 0.11 0.13 0.17 0.19 0.15 0.09 0.10 0.33 0.60 0.69 0.65 0.48 0.39 0.38 0.41 0.43 0.39
0.35 0.43 0.46 0.45 0.45 0.47 0.45 0.42 0.41 0.40 0.38 0.37 0.36 0.34 0.32 0.25 0.19 0.14 0.11 0.10 0.09 0.09 0.10 0.12 0.12 0.09 0.07 0.09 0.22 0.38 0.45 0.43 0.39 0.37 0.36 0.29 0.22 0.25
0.33 0.35 0.38 0.38 0.35 0.33 0.33 0.33 0.33 0.33 0.33 0.34 0.32 0.29 0.26 0.21 0.15 0.10 0.08 0.06 0.05 0.05 0.06 0.07 0.07 0.06 0.06 0.07 0.12 0.18 0.21 0.20 0.17 0.20 0.32 0.34 0.25 0.26

GEFSNE_prec_meanprecacc_066.txt.gz
Total_Precipitation_Accumulation
0.10 0.10 0.10 0.09 0.09 0.10 0.12 0.17 0.24 0.20 0.12 0.06 0.05 0.08 0.16 0.22 0.25 0.28 0.26 0.14 0.10 0.08 0.07 0.10 0.13 0.17 0.21 0.24 0.25 0.26 0.24 0.24 0.27 0.36 0.47 0.58 0.65 0.69
0.11 0.11 0.11 0.10 0.12 0.13 0.14 0.16 0.23 0.29 0.24 0.11 0.07 0.10 0.18 0.22 0.29 0.31 0.28 0.24 0.17 0.12 0.12 0.24 0.33 0.34 0.35 0.33 0.30 0.32 0.34 0.33 0.33 0.36 0.44 0.53 0.63 0.72
0.09 0.10 0.10 0.11 0.12 0.12 0.15 0.20 0.24 0.31 0.33 0.16 0.10 0.16 0.24 0.29 0.34 0.34 0.31 0.29 0.25 0.23 0.20 0.29 0.54 0.74 0.66 0.55 0.47 0.42 0.42 0.43 0.43 0.45 0.51 0.58 0.61 0.67
0.09 0.10 0.09 0.10 0.11 0.12 0.16 0.18 0.21 0.27 0.36 0.28 0.18 0.21 0.27 0.36 0.44 0.45 0.40 0.35 0.32 0.35 0.33 0.32 0.50 0.91 1.01 0.79 0.68 0.58 0.49 0.48 0.48 0.51 0.55 0.58 0.59 0.63
0.09 0.11 0.11 0.12 0.14 0.16 0.20 0.22 0.24 0.27 0.38 0.45 0.35 0.30 0.33 0.43 0.56 0.54 0.45 0.44 0.35 0.34 0.36 0.40 0.54 1.07 1.43 1.21 0.93 0.82 0.66 0.57 0.51 0.52 0.57 0.59 0.56 0.53
0.08 0.11 0.12 0.16 0.19 0.22 0.23 0.25 0.32 0.37 0.38 0.43 0.40 0.38 0.41 0.47 0.60 0.66 0.54 0.46 0.38 0.28 0.34 0.43 0.58 1.05 1.60 1.80 1.45 1.17 0.94 0.75 0.63 0.55 0.53 0.51 0.46 0.41
0.08 0.11 0.12 0.15 0.21 0.24 0.26 0.32 0.42 0.49 0.46 0.46 0.45 0.44 0.46 0.54 0.58 0.60 0.56 0.45 0.32 0.27 0.32 0.38 0.63 1.25 1.79 2.12 2.02 1.52 1.12 0.89 0.72 0.61 0.55 0.49 0.43 0.37
0.12 0.12 0.09 0.09 0.12 0.17 0.24 0.32 0.41 0.49 0.55 0.58 0.56 0.50 0.45 0.50 0.55 0.59 0.57 0.52 0.39 0.27 0.31 0.40 0.75 1.49 2.06 2.36 2.34 1.71 1.17 0.95 0.84 0.74 0.68 0.60 0.51 0.43
0.15 0.13 0.08 0.07 0.12 0.17 0.20 0.22 0.29 0.41 0.58 0.70 0.69 0.54 0.53 0.59 0.68 0.70 0.57 0.55 0.51 0.35 0.38 0.52 0.89 1.48 2.04 2.54 2.49 1.84 1.35 1.08 0.98 0.88 0.80 0.71 0.59 0.48
0.11 0.11 0.12 0.15 0.16 0.15 0.16 0.22 0.35 0.45 0.53 0.56 0.63 0.63 0.66 0.64 0.61 0.60 0.54 0.55 0.46 0.31 0.38 0.62 0.93 1.41 1.87 2.30 2.37 1.83 1.41 1.18 1.06 0.94 0.82 0.71 0.60 0.51
0.06 0.09 0.12 0.17 0.15 0.20 0.28 0.40 0.57 0.72 0.70 0.68 0.72 0.82 0.86 0.73 0.55 0.51 0.58 0.60 0.47 0.29 0.36 0.58 0.85 1.15 1.51 1.84 1.93 1.72 1.40 1.21 1.06 0.92 0.78 0.66 0.58 0.54
0.05 0.08 0.15 0.19 0.19 0.30 0.39 0.56 0.77 0.90 0.78 0.71 0.78 0.90 0.85 0.76 0.73 0.68 0.66 0.60 0.50 0.42 0.39 0.52 0.68 0.85 1.25 1.50 1.42 1.27 1.21 1.22 1.13 1.00 0.84 0.66 0.51 0.43
0.09 0.15 0.22 0.26 0.25 0.37 0.55 0.70 0.94 0.99 0.85 0.72 0.67 0.67 0.65 0.63 0.62 0.65 0.59 0.52 0.48 0.46 0.44 0.55 0.68 0.77 0.95 1.19 1.25 1.19 1.04 1.03 1.02 1.06 1.04 0.84 0.59 0.45
0.19 0.28 0.31 0.31 0.34 0.51 0.66 0.85 1.09 1.17 0.92 0.69 0.53 0.47 0.47 0.50 0.52 0.47 0.41 0.38 0.38 0.42 0.43 0.50 0.68 0.81 0.81 0.82 1.05 1.12 1.08 1.08 1.02 1.02 1.03 0.97 0.78 0.68
0.22 0.38 0.39 0.36 0.52 0.77 0.96 1.09 1.23 1.19 0.92 0.65 0.50 0.43 0.39 0.39 0.40 0.40 0.36 0.32 0.31 0.33 0.35 0.41 0.56 0.70 0.70 0.70 0.85 0.92 1.08 1.29 1.21 1.14 1.04 0.91 0.82 0.72
0.18 0.34 0.47 0.52 0.69 0.96 1.14 1.23 1.25 1.15 0.91 0.67 0.53 0.45 0.39 0.36 0.37 0.35 0.33 0.29 0.29 0.36 0.38 0.41 0.48 0.57 0.66 0.67 0.74 0.84 0.96 1.36 1.42 1.21 1.06 1.00 0.94 0.85
0.19 0.26 0.37 0.50 0.70 0.91 1.03 1.07 1.04 0.98 0.86 0.67 0.54 0.47 0.43 0.39 0.39 0.35 0.32 0.27 0.29 0.36 0.41 0.45 0.49 0.51 0.56 0.62 0.74 0.86 0.99 1.21 1.28 1.07 0.90 0.97 1.04 0.94
0.24 0.33 0.47 0.60 0.76 0.89 0.96 0.94 0.87 0.81 0.73 0.62 0.53 0.47 0.44 0.40 0.39 0.34 0.28 0.25 0.28 0.31 0.34 0.36 0.34 0.31 0.36 0.55 0.81 0.87 0.89 1.03 1.05 0.87 0.67 0.74 0.96 0.98
0.26 0.40 0.55 0.69 0.81 0.86 0.87 0.83 0.78 0.73 0.62 0.53 0.48 0.44 0.39 0.35 0.32 0.28 0.25 0.24 0.24 0.23 0.23 0.22 0.19 0.13 0.19 0.51 0.84 0.94 0.84 0.81 0.78 0.72 0.62 0.59 0.79 0.95
0.33 0.47 0.59 0.66 0.75 0.79 0.77 0.75 0.70 0.63 0.53 0.48 0.46 0.42 0.36 0.30 0.26 0.23 0.21 0.19 0.17 0.15 0.14 0.14 0.15 0.14 0.16 0.34 0.73 0.96 0.86 0.65 0.53 0.54 0.55 0.56 0.70 0.79
0.37 0.46 0.53 0.58 0.63 0.66 0.64 0.60 0.58 0.54 0.47 0.43 0.41 0.40 0.37 0.30 0.23 0.18 0.15 0.13 0.12 0.11 0.13 0.17 0.19 0.16 0.10 0.11 0.35 0.63 0.72 0.68 0.51 0.42 0.41 0.43 0.46 0.42
0.36 0.44 0.47 0.46 0.46 0.48 0.46 0.43 0.41 0.41 0.39 0.38 0.37 0.35 0.32 0.25 0.19 0.14 0.12 0.10 0.09 0.09 0.10 0.12 0.12 0.09 0.07 0.10 0.24 0.41 0.48 0.45 0.41 0.39 0.38 0.31 0.24 0.28
0.34 0.36 0.39 0.39 0.36 0.33 0.33 0.33 0.33 0.34 0.33 0.34 0.33 0.30 0.26 0.21 0.15 0.11 0.08 0.06 0.05 0.06 0.06 0.07 0.07 0.06 0.06 0.08 0.13 0.20 0.23 0.22 0.19 0.22 0.35 0.39 0.31 0.34

GEFSNE_prec_meanprecacc_072.txt.gz
Total_Precipitation_Accumulation
0.10 0.10 0.11 0.09 0.09 0.10 0.12 0.17 0.24 0.20 0.12 0.06 0.05 0.08 0.16 0.22 0.25 0.28 0.26 0.14 0.10 0.08 0.07 0.10 0.13 0.17 0.21 0.24 0.25 0.26 0.25 0.25 0.29 0.37 0.49 0.60 0.68 0.72
0.11 0.11 0.11 0.10 0.12 0.13 0.14 0.16 0.23 0.29 0.24 0.11 0.07 0.10 0.18 0.22 0.29 0.31 0.28 0.24 0.17 0.12 0.12 0.24 0.33 0.34 0.35 0.34 0.31 0.33 0.35 0.35 0.35 0.39 0.47 0.56 0.67 0.77
0.09 0.10 0.10 0.11 0.13 0.12 0.15 0.20 0.24 0.31 0.33 0.16 0.10 0.16 0.24 0.29 0.34 0.34 0.31 0.29 0.25 0.23 0.20 0.29 0.55 0.74 0.66 0.55 0.47 0.43 0.43 0.44 0.44 0.46 0.53 0.60 0.64 0.71
0.10 0.10 0.09 0.10 0.11 0.12 0.16 0.18 0.21 0.27 0.36 0.28 0.18 0.21 0.27 0.36 0.44 0.45 0.40 0.35 0.32 0.35 0.33 0.32 0.50 0.91 1.01 0.79 0.69 0.58 0.50 0.48 0.48 0.52 0.56 0.60 0.61 0.66
0.09 0.11 0.11 0.12 0.14 0.16 0.20 0.22 0.24 0.27 0.38 0.45 0.35 0.30 0.33 0.43 0.56 0.54 0.45 0.44 0.35 0.34 0.36 0.40 0.54 1.07 1.43 1.21 0.94 0.83 0.66 0.57 0.51 0.53 0.58 0.60 0.57 0.55
0.08 0.11 0.12 0.16 0.19 0.22 0.23 0.25 0.32 0.37 0.38 0.43 0.40 0.38 0.41 0.47 0.60 0.66 0.54 0.46 0.38 0.28 0.34 0.43 0.58 1.05 1.60 1.80 1.45 1.18 0.95 0.76 0.63 0.55 0.53 0.51 0.47 0.41
0.08 0.11 0.12 0.15 0.21 0.24 0.26 0.32 0.42 0.49 0.46 0.46 0.45 0.44 0.47 0.54 0.59 0.61 0.57 0.45 0.32 0.27 0.32 0.38 0.63 1.25 1.79 2.13 2.02 1.53 1.13 0.90 0.73 0.61 0.55 0.49 0.43 0.37
0.12 0.12 0.09 0.09 0.12 0.17 0.24 0.32 0.41 0.50 0.55 0.58 0.56 0.50 0.46 0.51 0.55 0.60 0.57 0.53 0.40 0.27 0.31 0.40 0.75 1.49 2.06 2.36 2.34 1.71 1.17 0.95 0.84 0.74 0.68 0.60 0.52 0.44
0.15 0.13 0.09 0.07 0.12 0.17 0.20 0.22 0.29 0.41 0.58 0.70 0.69 0.54 0.53 0.59 0.69 0.71 0.58 0.56 0.52 0.35 0.39 0.53 0.89 1.48 2.04 2.54 2.49 1.84 1.35 1.09 0.98 0.88 0.80 0.71 0.59 0.48
0.11 0.11 0.13 0.15 0.16 0.16 0.16 0.22 0.35 0.45 0.53 0.56 0.64 0.63 0.66 0.64 0.62 0.61 0.55 0.57 0.47 0.32 0.39 0.63 0.93 1.41 1.87 2.30 2.37 1.84 1.41 1.18 1.06 0.95 0.82 0.71 0.61 0.52
0.06 0.09 0.12 0.17 0.15 0.20 0.28 0.40 0.57 0.73 0.70 0.68 0.72 0.83 0.87 0.73 0.56 0.52 0.59 0.62 0.48 0.30 0.36 0.59 0.85 1.15 1.51 1.84 1.93 1.72 1.41 1.22 1.07 0.93 0.79 0.67 0.59 0.54
0.05 0.08 0.15 0.19 0.19 0.30 0.40 0.57 0.78 0.90 0.78 0.71 0.78 0.90 0.85 0.77 0.73 0.69 0.67 0.61 0.51 0.44 0.40 0.54 0.70 0.87 1.26 1.51 1.42 1.27 1.22 1.24 1.15 1.02 0.86 0.68 0.52 0.45
0.09 0.15 0.23 0.26 0.26 0.38 0.55 0.70 0.94 1.00 0.85 0.73 0.68 0.67 0.66 0.63 0.62 0.65 0.59 0.53 0.49 0.48 0.46 0.57 0.71 0.80 0.98 1.20 1.26 1.19 1.05 1.05 1.04 1.09 1.06 0.87 0.61 0.47
0.19 0.28 0.32 0.32 0.35 0.52 0.66 0.85 1.10 1.18 0.92 0.69 0.54 0.48 0.48 0.51 0.52 0.47 0.41 0.38 0.38 0.42 0.44 0.52 0.71 0.84 0.84 0.84 1.06 1.13 1.08 1.09 1.05 1.05 1.05 0.99 0.81 0.71
0.23 0.39 0.40 0.37 0.53 0.78 0.97 1.10 1.24 1.19 0.93 0.66 0.51 0.44 0.40 0.39 0.40 0.40 0.36 0.32 0.31 0.33 0.35 0.42 0.57 0.71 0.72 0.72 0.87 0.94 1.10 1.31 1.23 1.17 1.07 0.94 0.85 0.75
0.19 0.35 0.48 0.53 0.71 0.96 1.15 1.24 1.25 1.16 0.92 0.68 0.54 0.45 0.39 0.36 0.37 0.35 0.33 0.29 0.29 0.37 0.38 0.41 0.49 0.57 0.67 0.69 0.76 0.87 0.99 1.40 1.45 1.24 1.09 1.03 0.97 0.88
0.21 0.28 0.39 0.51 0.71 0.91 1.04 1.08 1.04 0.98 0.87 0.68 0.54 0.47 0.43 0.39 0.39 0.35 0.32 0.27 0.29 0.36 0.41 0.45 0.49 0.51 0.57 0.63 0.76 0.89 1.02 1.24 1.31 1.10 0.92 0.99 1.07 0.97
0.25 0.35 0.49 0.61 0.77 0.89 0.96 0.94 0.88 0.82 0.73 0.62 0.53 0.47 0.44 0.40 0.39 0.34 0.28 0.25 0.28 0.31 0.35 0.36 0.34 0.31 0.37 0.56 0.83 0.90 0.91 1.05 1.07 0.89 0.69 0.76 1.00 1.02
0.28 0.43 0.58 0.70 0.82 0.87 0.88 0.83 0.78 0.73 0.62 0.54 0.48 0.44 0.39 0.35 0.32 0.28 0.25 0.24 0.24 0.24 0.24 0.23 0.19 0.14 0.20 0.54 0.86 0.97 0.86 0.83 0.80 0.74 0.64 0.62 0.83 0.99
0.34 0.49 0.60 0.67 0.75 0.79 0.77 0.75 0.71 0.63 0.54 0.48 0.46 0.42 0.36 0.30 0.26 0.24 0.21 0.19 0.17 0.15 0.15 0.15 0.16 0.16 0.18 0.36 0.76 0.99 0.89 0.67 0.55 0.56 0.58 0.59 0.73 0.83
0.38 0.47 0.53 0.58 0.63 0.66 0.64 0.60 0.58 0.54 0.47 0.43 0.41 0.40 0.37 0.30 0.24 0.18 0.15 0.13 0.12 0.12 0.14 0.18 0.20 0.17 0.11 0.12 0.38 0.67 0.75 0.71 0.54 0.44 0.43 0.45 0.48 0.44
0.37 0.44 0.47 0.46 0.47 0.48 0.46 0.43 0.41 0.41 0.39 0.38 0.37 0.35 0.32 0.26 0.19 0.14 0.12 0.10 0.09 0.09 0.10 0.13 0.12 0.09 0.08 0.11 0.26 0.44 0.51 0.47 0.43 0.41 0.39 0.33 0.27 0.32
0.34 0.36 0.39 0.39 0.36 0.33 0.33 0.33 0.33 0.34 0.34 0.34 0.33 0.30 0.26 0.21 0.16 0.11 0.08 0.06 0.06 0.06 0.06 0.07 0.07 0.06 0.07 0.08 0.14 0.22 0.25 0.23 0.20 0.23 0.37 0.42 0.36 0.40

GEFSNE_prec_meanprecacc_078.txt.gz
Total_Precipitation_Accumulation
0.12 0.12 0.12 0.10 0.10 0.11 0.13 0.18 0.26 0.22 0.13 0.07 0.06 0.09 0.17 0.22 0.26 0.28 0.26 0.14 0.10 0.08 0.07 0.10 0.13 0.17 0.21 0.24 0.25 0.27 0.25 0.25 0.30 0.39 0.51 0.62 0.70 0.75
0.12 0.12 0.12 0.11 0.13 0.14 0.16 0.18 0.24 0.31 0.26 0.12 0.08 0.11 0.19 0.22 0.29 0.31 0.28 0.24 0.17 0.12 0.12 0.24 0.33 0.34 0.35 0.34 0.32 0.34 0.36 0.36 0.36 0.40 0.49 0.59 0.70 0.80
0.10 0.10 0.11 0.11 0.13 0.13 0.16 0.20 0.25 0.32 0.34 0.16 0.11 0.16 0.25 0.29 0.34 0.34 0.31 0.29 0.25 0.23 0.20 0.29 0.55 0.74 0.67 0.55 0.48 0.43 0.43 0.45 0.45 0.47 0.54 0.62 0.66 0.73
0.10 0.10 0.10 0.10 0.12 0.13 0.16 0.19 0.22 0.28 0.36 0.29 0.19 0.21 0.28 0.37 0.45 0.46 0.40 0.35 0.32 0.36 0.33 0.32 0.50 0.91 1.01 0.79 0.69 0.58 0.50 0.48 0.48 0.52 0.57 0.60 0.62 0.67
0.10 0.11 0.11 0.12 0.14 0.17 0.21 0.23 0.25 0.28 0.39 0.46 0.36 0.30 0.34 0.43 0.56 0.55 0.46 0.46 0.36 0.34 0.36 0.40 0.54 1.07 1.43 1.21 0.94 0.83 0.66 0.57 0.51 0.53 0.58 0.60 0.58 0.56
0.08 0.11 0.13 0.16 0.20 0.24 0.24 0.27 0.34 0.39 0.41 0.45 0.42 0.39 0.42 0.48 0.62 0.68 0.56 0.47 0.38 0.28 0.35 0.43 0.58 1.05 1.60 1.80 1.45 1.18 0.95 0.76 0.63 0.55 0.53 0.52 0.47 0.42
0.08 0.11 0.12 0.16 0.21 0.25 0.27 0.34 0.45 0.52 0.49 0.48 0.46 0.45 0.48 0.57 0.62 0.63 0.58 0.46 0.33 0.29 0.33 0.39 0.64 1.27 1.82 2.14 2.03 1.53 1.13 0.90 0.73 0.61 0.55 0.49 0.44 0.37
0.13 0.12 0.09 0.09 0.12 0.17 0.25 0.33 0.42 0.51 0.57 0.61 0.59 0.52 0.48 0.54 0.59 0.63 0.61 0.56 0.42 0.29 0.34 0.42 0.77 1.52 2.09 2.38 2.35 1.71 1.17 0.95 0.84 0.74 0.68 0.60 0.52 0.44
0.15 0.13 0.09 0.08 0.13 0.19 0.21 0.24 0.30 0.42 0.59 0.72 0.71 0.57 0.57 0.64 0.73 0.75 0.62 0.60 0.56 0.38 0.42 0.55 0.91 1.51 2.06 2.55 2.49 1.84 1.35 1.09 0.98 0.89 0.80 0.71 0.59 0.48
0.12 0.12 0.14 0.16 0.17 0.16 0.18 0.25 0.37 0.48 0.55 0.58 0.67 0.66 0.69 0.68 0.65 0.64 0.58 0.59 0.50 0.35 0.43 0.67 0.96 1.44 1.89 2.33 2.39 1.84 1.41 1.18 1.06 0.95 0.82 0.71 0.61 0.52
0.07 0.10 0.13 0.18 0.16 0.21 0.29 0.42 0.60 0.77 0.73 0.69 0.73 0.84 0.87 0.74 0.56 0.53 0.63 0.67 0.52 0.33 0.40 0.63 0.89 1.18 1.53 1.87 1.96 1.72 1.41 1.22 1.07 0.93 0.79 0.67 0.60 0.55
0.06 0.11 0.16 0.20 0.20 0.32 0.41 0.58 0.80 0.94 0.82 0.74 0.81 0.93 0.88 0.79 0.74 0.71 0.72 0.67 0.56 0.48 0.44 0.59 0.75 0.91 1.29 1.52 1.44 1.31 1.26 1.26 1.15 1.03 0.87 0.69 0.53 0.47
0.11 0.18 0.25 0.28 0.27 0.39 0.56 0.72 0.96 1.00 0.87 0.76 0.71 0.71 0.70 0.67 0.65 0.69 0.63 0.57 0.53 0.53 0.50 0.62 0.76 0.85 1.03 1.23 1.27 1.21 1.09 1.09 1.09 1.13 1.09 0.88 0.62 0.49
0.21 0.31 0.33 0.32 0.35 0.52 0.67 0.86 1.11 1.19 0.96 0.74 0.58 0.52 0.51 0.55 0.56 0.50 0.45 0.42 0.42 0.46 0.48 0.56 0.75 0.89 0.89 0.88 1.09 1.15 1.11 1.13 1.09 1.09 1.10 1.02 0.83 0.73
0.25 0.40 0.41 0.37 0.54 0.80 0.98 1.10 1.26 1.24 0.97 0.70 0.56 0.48 0.43 0.42 0.43 0.43 0.40 0.36 0.35 0.37 0.38 0.45 0.62 0.77 0.78 0.78 0.92 0.98 1.13 1.34 1.27 1.22 1.11 0.99 0.90 0.80
0.21 0.37 0.49 0.55 0.72 0.99 1.18 1.28 1.30 1.19 0.95 0.72 0.58 0.50 0.43 0.39 0.40 0.37 0.35 0.31 0.32 0.40 0.42 0.44 0.54 0.62 0.73 0.74 0.81 0.91 1.04 1.45 1.50 1.29 1.13 1.07 1.01 0.92
0.21 0.31 0.43 0.54 0.75 0.96 1.09 1.13 1.09 1.02 0.91 0.72 0.58 0.52 0.48 0.44 0.43 0.39 0.35 0.30 0.33 0.40 0.44 0.48 0.53 0.55 0.61 0.66 0.79 0.92 1.05 1.28 1.35 1.13 0.96 1.04 1.11 1.01
0.28 0.39 0.52 0.63 0.79 0.92 0.99 0.99 0.92 0.85 0.76 0.65 0.57 0.52 0.49 0.45 0.44 0.38 0.31 0.30 0.33 0.35 0.38 0.39 0.36 0.33 0.39 0.58 0.84 0.92 0.93 1.08 1.10 0.92 0.72 0.79 1.04 1.06
0.31 0.46 0.60 0.73 0.84 0.89 0.90 0.87 0.82 0.77 0.66 0.58 0.53 0.48 0.44 0.40 0.37 0.33 0.28 0.28 0.28 0.27 0.27 0.25 0.21 0.16 0.23 0.57 0.89 0.99 0.88 0.86 0.82 0.77 0.68 0.65 0.87 1.03
0.35 0.51 0.62 0.69 0.77 0.81 0.79 0.77 0.73 0.66 0.57 0.51 0.50 0.47 0.41 0.35 0.31 0.28 0.26 0.23 0.22 0.19 0.18 0.18 0.18 0.18 0.21 0.40 0.80 1.03 0.91 0.69 0.57 0.59 0.61 0.63 0.77 0.87
0.39 0.48 0.55 0.59 0.64 0.68 0.66 0.62 0.60 0.56 0.49 0.45 0.44 0.44 0.41 0.35 0.29 0.23 0.19 0.15 0.15 0.15 0.17 0.21 0.22 0.18 0.14 0.16 0.42 0.71 0.78 0.73 0.55 0.46 0.45 0.47 0.50 0.47
0.38 0.45 0.48 0.48 0.48 0.50 0.48 0.44 0.43 0.43 0.41 0.40 0.38 0.37 0.35 0.29 0.23 0.18 0.15 0.14 0.13 0.12 0.13 0.15 0.14 0.11 0.10 0.14 0.30 0.48 0.55 0.50 0.45 0.42 0.41 0.35 0.29 0.36
0.34 0.37 0.40 0.40 0.36 0.34 0.34 0.33 0.34 0.35 0.35 0.35 0.34 0.32 0.29 0.24 0.18 0.14 0.11 0.09 0.08 0.07 0.08 0.10 0.10 0.08 0.08 0.11 0.17 0.25 0.28 0.26 0.23 0.26 0.39 0.45 0.40 0.45

GEFSNE_prec_meanprecacc_084.txt.gz
Total_Precipitation_Accumulation
0.15 0.15 0.15 0.13 0.13 0.13 0.15 0.20 0.27 0.23 0.14 0.08 0.07 0.10 0.18 0.23 0.26 0.29 0.27 0.15 0.10 0.08 0.08 0.10 0.13 0.17 0.21 0.24 0.26 0.27 0.26 0.26 0.30 0.39 0.52 0.63 0.71 0.76
0.15 0.14 0.14 0.13 0.14 0.15 0.16 0.18 0.25 0.32 0.27 0.13 0.09 0.12 0.19 0.23 0.29 0.31 0.28 0.24 0.17 0.12 0.13 0.24 0.33 0.34 0.35 0.34 0.32 0.34 0.36 0.37 0.36 0.41 0.49 0.60 0.71 0.81
0.11 0.11 0.12 0.12 0.14 0.14 0.17 0.21 0.26 0.33 0.35 0.17 0.11 0.16 0.25 0.30 0.34 0.35 0.31 0.30 0.25 0.23 0.20 0.29 0.55 0.74 0.67 0.56 0.48 0.43 0.43 0.45 0.45 0.48 0.55 0.62 0.67 0.75
0.10 0.11 0.10 0.11 0.13 0.14 0.17 0.20 0.23 0.30 0.38 0.30 0.19 0.22 0.29 0.38 0.46 0.47 0.41 0.36 0.33 0.36 0.33 0.33 0.50 0.91 1.02 0.79 0.69 0.59 0.50 0.48 0.48 0.52 0.57 0.61 0.63 0.68
0.10 0.11 0.11 0.13 0.15 0.18 0.22 0.24 0.27 0.29 0.41 0.48 0.37 0.32 0.35 0.45 0.58 0.57 0.47 0.48 0.37 0.35 0.37 0.40 0.54 1.08 1.43 1.22 0.94 0.83 0.66 0.57 0.51 0.53 0.58 0.60 0.58 0.56
0.08 0.11 0.13 0.17 0.21 0.24 0.25 0.28 0.35 0.40 0.42 0.47 0.44 0.41 0.44 0.50 0.64 0.71 0.58 0.50 0.40 0.29 0.35 0.43 0.59 1.06 1.61 1.81 1.45 1.18 0.95 0.76 0.63 0.55 0.53 0.52 0.47 0.42
0.09 0.11 0.12 0.16 0.21 0.25 0.27 0.34 0.46 0.53 0.50 0.50 0.49 0.48 0.51 0.61 0.66 0.67 0.61 0.49 0.35 0.31 0.35 0.41 0.66 1.29 1.85 2.17 2.05 1.54 1.13 0.90 0.73 0.61 0.55 0.49 0.44 0.37
0.14 0.13 0.09 0.10 0.12 0.17 0.25 0.33 0.42 0.52 0.58 0.62 0.61 0.56 0.53 0.60 0.65 0.67 0.65 0.60 0.45 0.32 0.37 0.43 0.79 1.55 2.13 2.42 2.37 1.72 1.17 0.96 0.84 0.74 0.68 0.60 0.52 0.44
0.17 0.15 0.10 0.08 0.14 0.19 0.22 0.24 0.32 0.44 0.60 0.73 0.74 0.61 0.62 0.70 0.78 0.78 0.66 0.64 0.59 0.41 0.46 0.57 0.95 1.54 2.09 2.56 2.49 1.85 1.35 1.09 0.98 0.89 0.80 0.71 0.59 0.48
0.13 0.13 0.15 0.18 0.18 0.16 0.18 0.26 0.41 0.54 0.59 0.60 0.70 0.70 0.73 0.70 0.67 0.65 0.60 0.62 0.52 0.39 0.49 0.70 0.99 1.47 1.90 2.36 2.40 1.84 1.41 1.18 1.06 0.95 0.83 0.71 0.61 0.52
0.09 0.11 0.14 0.19 0.17 0.21 0.29 0.44 0.63 0.82 0.76 0.71 0.74 0.84 0.88 0.74 0.57 0.53 0.65 0.71 0.56 0.36 0.45 0.67 0.91 1.20 1.54 1.90 1.98 1.73 1.41 1.22 1.07 0.93 0.80 0.67 0.60 0.55
0.09 0.13 0.17 0.20 0.20 0.32 0.41 0.60 0.83 0.96 0.84 0.77 0.86 0.99 0.93 0.84 0.76 0.73 0.76 0.72 0.61 0.52 0.48 0.62 0.78 0.94 1.31 1.53 1.47 1.35 1.30 1.29 1.16 1.03 0.87 0.69 0.53 0.48
0.15 0.22 0.28 0.28 0.27 0.39 0.56 0.72 0.97 1.01 0.88 0.80 0.78 0.80 0.78 0.75 0.71 0.73 0.69 0.63 0.58 0.58 0.54 0.65 0.79 0.90 1.08 1.27 1.31 1.26 1.14 1.14 1.14 1.18 1.13 0.89 0.63 0.50
0.25 0.33 0.34 0.32 0.35 0.52 0.67 0.87 1.11 1.20 1.00 0.81 0.66 0.60 0.58 0.60 0.61 0.55 0.50 0.48 0.49 0.52 0.53 0.62 0.81 0.96 0.96 0.94 1.14 1.18 1.15 1.17 1.14 1.14 1.17 1.07 0.86 0.75
0.27 0.40 0.41 0.37 0.54 0.81 0.99 1.10 1.27 1.28 1.05 0.77 0.63 0.56 0.50 0.48 0.48 0.48 0.45 0.41 0.41 0.42 0.41 0.50 0.69 0.83 0.85 0.85 0.98 1.02 1.16 1.37 1.31 1.26 1.17 1.05 0.95 0.84
0.22 0.38 0.51 0.57 0.74 1.01 1.21 1.31 1.35 1.25 0.99 0.78 0.65 0.57 0.49 0.45 0.46 0.42 0.41 0.38 0.39 0.47 0.47 0.49 0.59 0.68 0.78 0.79 0.85 0.95 1.07 1.48 1.54 1.32 1.18 1.13 1.06 0.95
0.22 0.34 0.50 0.61 0.82 1.03 1.16 1.19 1.15 1.07 0.96 0.79 0.66 0.59 0.54 0.51 0.49 0.45 0.42 0.37 0.40 0.46 0.49 0.51 0.57 0.60 0.64 0.68 0.81 0.94 1.08 1.31 1.38 1.17 1.00 1.09 1.16 1.05
0.29 0.44 0.58 0.69 0.84 0.97 1.04 1.03 0.97 0.89 0.80 0.71 0.65 0.59 0.56 0.52 0.50 0.43 0.37 0.36 0.41 0.42 0.42 0.42 0.39 0.37 0.43 0.61 0.85 0.93 0.96 1.10 1.13 0.96 0.76 0.83 1.09 1.10
0.33 0.50 0.65 0.77 0.88 0.94 0.95 0.91 0.86 0.81 0.70 0.63 0.59 0.54 0.49 0.46 0.43 0.38 0.33 0.34 0.35 0.33 0.32 0.29 0.24 0.19 0.27 0.61 0.92 1.00 0.90 0.88 0.85 0.80 0.72 0.70 0.91 1.06
0.38 0.53 0.65 0.72 0.80 0.85 0.82 0.81 0.76 0.69 0.61 0.56 0.55 0.52 0.44 0.39 0.36 0.33 0.30 0.27 0.26 0.24 0.22 0.21 0.19 0.20 0.25 0.46 0.85 1.07 0.93 0.70 0.58 0.60 0.64 0.67 0.81 0.89
0.40 0.50 0.57 0.62 0.67 0.70 0.68 0.65 0.63 0.59 0.51 0.47 0.47 0.47 0.45 0.38 0.32 0.26 0.22 0.17 0.18 0.19 0.21 0.24 0.24 0.19 0.17 0.21 0.47 0.75 0.80 0.74 0.56 0.46 0.45 0.48 0.52 0.48
0.39 0.47 0.50 0.49 0.49 0.51 0.49 0.45 0.45 0.45 0.42 0.41 0.41 0.39 0.38 0.32 0.26 0.21 0.18 0.15 0.15 0.14 0.15 0.18 0.16 0.12 0.12 0.17 0.33 0.52 0.57 0.52 0.46 0.42 0.41 0.36 0.30 0.38
0.35 0.38 0.40 0.40 0.37 0.34 0.34 0.33 0.34 0.35 0.35 0.36 0.35 0.34 0.31 0.26 0.20 0.15 0.12 0.10 0.09 0.08 0.09 0.11 0.11 0.09 0.10 0.13 0.19 0.27 0.30 0.28 0.25 0.27 0.40 0.46 0.41 0.48

GEFSNE_prec_meanprecacc_090.txt.gz
Total_Precipitation_Accumulation
0.16 0.16 0.17 0.15 0.14 0.15 0.16 0.22 0.29 0.25 0.17 0.10 0.09 0.11 0.19 0.24 0.27 0.29 0.28 0.15 0.11 0.09 0.08 0.11 0.14 0.18 0.22 0.25 0.26 0.28 0.27 0.27 0.32 0.42 0.55 0.67 0.75 0.80
0.16 0.15 0.15 0.14 0.15 0.16 0.17 0.19 0.26 0.33 0.29 0.15 0.11 0.13 0.20 0.23 0.30 0.32 0.29 0.25 0.17 0.13 0.13 0.25 0.34 0.34 0.36 0.34 0.32 0.35 0.37 0.38 0.38 0.42 0.51 0.62 0.74 0.84
0.12 0.12 0.12 0.13 0.14 0.14 0.17 0.22 0.26 0.34 0.36 0.18 0.12 0.17 0.25 0.30 0.35 0.35 0.32 0.30 0.25 0.24 0.20 0.30 0.55 0.74 0.67 0.56 0.49 0.44 0.44 0.46 0.46 0.48 0.55 0.63 0.68 0.76
0.11 0.11 0.10 0.11 0.13 0.14 0.17 0.20 0.24 0.30 0.38 0.30 0.19 0.22 0.29 0.38 0.46 0.47 0.41 0.36 0.33 0.36 0.33 0.33 0.50 0.92 1.02 0.80 0.70 0.59 0.50 0.48 0.49 0.52 0.57 0.61 0.63 0.69
0.10 0.12 0.12 0.13 0.15 0.18 0.23 0.24 0.27 0.29 0.41 0.48 0.37 0.32 0.35 0.45 0.58 0.57 0.47 0.48 0.37 0.35 0.37 0.41 0.55 1.08 1.44 1.22 0.94 0.83 0.66 0.57 0.51 0.53 0.58 0.61 0.58 0.56
0.09 0.11 0.13 0.17 0.21 0.24 0.25 0.28 0.35 0.40 0.42 0.47 0.44 0.41 0.44 0.51 0.65 0.71 0.58 0.50 0.41 0.29 0.36 0.44 0.59 1.06 1.62 1.81 1.46 1.19 0.96 0.76 0.63 0.55 0.53 0.52 0.47 0.42
0.09 0.12 0.13 0.16 0.21 0.25 0.27 0.34 0.46 0.53 0.50 0.50 0.49 0.48 0.51 0.61 0.67 0.68 0.62 0.49 0.35 0.31 0.36 0.41 0.66 1.30 1.85 2.17 2.05 1.54 1.14 0.90 0.73 0.62 0.56 0.49 0.44 0.38
0.14 0.13 0.10 0.10 0.12 0.17 0.25 0.33 0.43 0.52 0.58 0.62 0.61 0.56 0.53 0.61 0.65 0.67 0.65 0.60 0.45 0.32 0.37 0.43 0.79 1.56 2.13 2.42 2.37 1.72 1.18 0.96 0.84 0.74 0.68 0.60 0.52 0.44
0.17 0.15 0.10 0.08 0.14 0.19 0.22 0.24 0.32 0.44 0.61 0.74 0.74 0.61 0.62 0.70 0.78 0.78 0.66 0.64 0.59 0.42 0.46 0.58 0.95 1.54 2.09 2.57 2.50 1.85 1.35 1.09 0.98 0.89 0.80 0.71 0.59 0.48
0.13 0.13 0.15 0.18 0.18 0.16 0.18 0.26 0.41 0.54 0.59 0.61 0.70 0.70 0.73 0.70 0.67 0.66 0.60 0.62 0.52 0.39 0.49 0.71 0.99 1.47 1.90 2.36 2.40 1.84 1.41 1.18 1.07 0.95 0.83 0.71 0.61 0.52
0.09 0.11 0.14 0.19 0.17 0.21 0.29 0.44 0.63 0.82 0.76 0.71 0.74 0.85 0.88 0.74 0.57 0.54 0.65 0.71 0.56 0.37 0.45 0.67 0.92 1.20 1.54 1.90 1.99 1.73 1.41 1.23 1.07 0.94 0.80 0.68 0.60 0.55
0.10 0.14 0.17 0.20 0.20 0.32 0.41 0.60 0.83 0.96 0.84 0.77 0.86 0.99 0.93 0.84 0.76 0.73 0.76 0.72 0.61 0.53 0.48 0.62 0.78 0.95 1.31 1.54 1.47 1.36 1.31 1.29 1.17 1.04 0.88 0.70 0.54 0.49
0.15 0.23 0.28 0.28 0.27 0.39 0.56 0.72 0.97 1.01 0.88 0.80 0.79 0.80 0.78 0.75 0.71 0.74 0.70 0.64 0.59 0.59 0.55 0.66 0.80 0.91 1.09 1.28 1.31 1.27 1.15 1.15 1.14 1.19 1.14 0.90 0.64 0.51
0.25 0.33 0.34 0.32 0.35 0.52 0.67 0.87 1.11 1.20 1.00 0.81 0.67 0.60 0.58 0.61 0.61 0.55 0.51 0.49 0.50 0.53 0.54 0.62 0.82 0.97 0.97 0.95 1.15 1.18 1.15 1.17 1.14 1.15 1.18 1.08 0.88 0.76
0.27 0.40 0.41 0.38 0.54 0.81 0.99 1.10 1.27 1.29 1.05 0.77 0.64 0.56 0.50 0.48 0.49 0.48 0.45 0.41 0.41 0.42 0.42 0.50 0.69 0.84 0.86 0.86 0.99 1.02 1.16 1.37 1.31 1.27 1.18 1.07 0.97 0.85
0.22 0.38 0.51 0.57 0.74 1.02 1.22 1.32 1.36 1.26 1.00 0.79 0.65 0.57 0.50 0.46 0.46 0.42 0.41 0.38 0.39 0.48 0.47 0.49 0.59 0.69 0.79 0.79 0.85 0.95 1.07 1.49 1.54 1.33 1.19 1.15 1.07 0.96
0.22 0.35 0.52 0.63 0.83 1.04 1.17 1.20 1.16 1.08 0.97 0.79 0.66 0.59 0.55 0.51 0.49 0.45 0.42 0.37 0.40 0.47 0.50 0.52 0.57 0.60 0.64 0.68 0.81 0.94 1.08 1.31 1.39 1.18 1.01 1.10 1.18 1.06
0.29 0.44 0.59 0.70 0.85 0.98 1.05 1.04 0.97 0.89 0.80 0.72 0.65 0.60 0.56 0.52 0.50 0.43 0.37 0.36 0.41 0.42 0.43 0.42 0.39 0.37 0.43 0.61 0.85 0.93 0.96 1.11 1.13 0.96 0.77 0.84 1.10 1.11
0.34 0.51 0.66 0.78 0.89 0.94 0.95 0.91 0.86 0.81 0.70 0.63 0.59 0.55 0.49 0.46 0.43 0.38 0.33 0.34 0.35 0.34 0.32 0.29 0.24 0.19 0.27 0.61 0.92 1.01 0.90 0.88 0.85 0.80 0.73 0.71 0.93 1.07
0.38 0.54 0.65 0.72 0.80 0.85 0.82 0.81 0.76 0.69 0.61 0.56 0.55 0.52 0.45 0.39 0.36 0.33 0.31 0.27 0.26 0.24 0.22 0.21 0.19 0.20 0.25 0.46 0.85 1.07 0.93 0.70 0.58 0.60 0.64 0.67 0.81 0.90
0.40 0.50 0.57 0.62 0.67 0.70 0.68 0.65 0.63 0.59 0.52 0.47 0.47 0.47 0.45 0.39 0.32 0.26 0.22 0.17 0.18 0.19 0.21 0.25 0.25 0.19 0.17 0.21 0.47 0.75 0.80 0.74 0.56 0.46 0.45 0.49 0.52 0.48
0.39 0.47 0.50 0.49 0.49 0.51 0.49 0.45 0.45 0.45 0.42 0.41 0.41 0.39 0.38 0.32 0.26 0.21 0.18 0.15 0.15 0.14 0.15 0.18 0.16 0.13 0.12 0.17 0.33 0.52 0.58 0.52 0.46 0.42 0.41 0.36 0.30 0.39
0.35 0.38 0.40 0.41 0.37 0.34 0.34 0.33 0.34 0.35 0.35 0.36 0.35 0.34 0.31 0.26 0.20 0.15 0.12 0.10 0.09 0.08 0.09 0.11 0.11 0.09 0.10 0.13 0.19 0.27 0.30 0.28 0.25 0.27 0.40 0.46 0.42 0.49

GEFSNE_prec_meanprecacc_096.txt.gz
Total_Precipitation_Accumulation
0.17 0.17 0.17 0.15 0.15 0.15 0.17 0.22 0.30 0.26 0.17 0.11 0.10 0.13 0.21 0.26 0.30 0.31 0.29 0.17 0.13 0.10 0.10 0.12 0.15 0.19 0.23 0.26 0.27 0.29 0.28 0.29 0.34 0.44 0.57 0.70 0.80 0.86
0.16 0.15 0.15 0.14 0.15 0.16 0.17 0.20 0.27 0.34 0.29 0.16 0.12 0.14 0.22 0.25 0.32 0.32 0.29 0.26 0.19 0.14 0.14 0.25 0.34 0.35 0.36 0.35 0.33 0.35 0.38 0.38 0.39 0.44 0.53 0.64 0.77 0.89
0.12 0.12 0.13 0.13 0.15 0.14 0.17 0.22 0.26 0.34 0.37 0.19 0.13 0.18 0.26 0.31 0.36 0.36 0.32 0.30 0.26 0.24 0.21 0.30 0.55 0.75 0.67 0.57 0.49 0.45 0.44 0.46 0.47 0.50 0.57 0.65 0.71 0.79
0.11 0.12 0.11 0.11 0.13 0.14 0.18 0.21 0.24 0.30 0.39 0.31 0.20 0.23 0.29 0.38 0.47 0.48 0.41 0.36 0.33 0.36 0.33 0.33 0.50 0.92 1.03 0.80 0.70 0.59 0.50 0.49 0.49 0.53 0.58 0.63 0.65 0.71
0.11 0.12 0.12 0.13 0.15 0.18 0.23 0.25 0.27 0.30 0.41 0.49 0.38 0.33 0.36 0.45 0.58 0.57 0.47 0.48 0.37 0.35 0.37 0.41 0.55 1.08 1.44 1.22 0.94 0.83 0.67 0.57 0.52 0.53 0.59 0.61 0.59 0.57
0.09 0.12 0.14 0.17 0.21 0.24 0.25 0.29 0.35 0.41 0.43 0.47 0.44 0.41 0.44 0.51 0.65 0.71 0.58 0.50 0.41 0.29 0.36 0.44 0.59 1.06 1.62 1.81 1.46 1.19 0.96 0.76 0.64 0.55 0.53 0.52 0.47 0.42
0.09 0.12 0.13 0.16 0.22 0.25 0.28 0.35 0.46 0.53 0.50 0.50 0.49 0.49 0.52 0.61 0.67 0.68 0.62 0.49 0.35 0.31 0.36 0.41 0.66 1.30 1.85 2.17 2.05 1.54 1.14 0.91 0.74 0.62 0.56 0.49 0.44 0.38
0.15 0.14 0.10 0.10 0.13 0.18 0.25 0.33 0.43 0.52 0.58 0.63 0.62 0.56 0.53 0.61 0.66 0.67 0.65 0.60 0.45 0.32 0.37 0.43 0.79 1.56 2.13 2.42 2.37 1.72 1.18 0.96 0.84 0.74 0.68 0.60 0.52 0.44
0.17 0.15 0.10 0.09 0.14 0.19 0.22 0.24 0.32 0.44 0.61 0.74 0.74 0.61 0.62 0.70 0.78 0.78 0.66 0.65 0.59 0.42 0.46 0.58 0.95 1.54 2.09 2.57 2.50 1.85 1.35 1.09 0.98 0.89 0.80 0.71 0.59 0.48
0.13 0.13 0.15 0.18 0.18 0.16 0.18 0.26 0.41 0.54 0.59 0.61 0.70 0.70 0.73 0.70 0.67 0.66 0.60 0.62 0.52 0.39 0.49 0.71 0.99 1.47 1.90 2.36 2.40 1.84 1.41 1.18 1.07 0.95 0.83 0.71 0.61 0.52
0.09 0.11 0.14 0.19 0.17 0.21 0.29 0.44 0.63 0.82 0.76 0.71 0.74 0.85 0.88 0.75 0.57 0.54 0.65 0.71 0.56 0.37 0.45 0.67 0.92 1.20 1.54 1.90 1.99 1.73 1.42 1.23 1.08 0.94 0.80 0.68 0.60 0.56
0.10 0.14 0.17 0.20 0.20 0.32 0.41 0.60 0.83 0.96 0.84 0.77 0.87 0.99 0.94 0.84 0.76 0.73 0.76 0.72 0.62 0.53 0.48 0.62 0.78 0.95 1.31 1.54 1.47 1.36 1.31 1.30 1.17 1.04 0.88 0.70 0.54 0.49
0.15 0.23 0.28 0.28 0.27 0.39 0.56 0.72 0.97 1.01 0.88 0.80 0.79 0.80 0.78 0.75 0.71 0.74 0.70 0.64 0.59 0.59 0.55 0.66 0.80 0.91 1.10 1.28 1.32 1.27 1.15 1.15 1.15 1.19 1.14 0.91 0.64 0.51
0.25 0.33 0.34 0.33 0.35 0.53 0.67 0.87 1.11 1.20 1.00 0.81 0.67 0.60 0.58 0.61 0.61 0.55 0.51 0.49 0.50 0.53 0.54 0.62 0.82 0.97 0.97 0.95 1.15 1.18 1.15 1.17 1.14 1.15 1.18 1.09 0.89 0.77
0.27 0.40 0.41 0.38 0.55 0.83 0.99 1.11 1.27 1.29 1.05 0.77 0.64 0.56 0.50 0.48 0.49 0.48 0.45 0.42 0.41 0.42 0.42 0.51 0.69 0.84 0.86 0.86 0.99 1.02 1.16 1.37 1.32 1.27 1.19 1.07 0.97 0.85
0.23 0.39 0.52 0.58 0.75 1.02 1.22 1.32 1.36 1.26 1.00 0.79 0.65 0.57 0.50 0.46 0.46 0.42 0.41 0.38 0.39 0.48 0.47 0.49 0.59 0.69 0.79 0.79 0.85 0.95 1.08 1.49 1.55 1.34 1.20 1.16 1.08 0.97
0.22 0.36 0.53 0.64 0.83 1.04 1.17 1.20 1.16 1.08 0.97 0.79 0.66 0.59 0.55 0.51 0.49 0.45 0.42 0.37 0.40 0.47 0.50 0.52 0.57 0.60 0.64 0.68 0.81 0.94 1.08 1.31 1.39 1.18 1.01 1.11 1.18 1.07
0.29 0.44 0.59 0.70 0.85 0.98 1.05 1.04 0.97 0.89 0.80 0.72 0.65 0.60 0.56 0.52 0.50 0.43 0.37 0.36 0.41 0.42 0.43 0.42 0.39 0.37 0.43 0.61 0.85 0.93 0.96 1.11 1.13 0.96 0.77 0.85 1.10 1.12
0.34 0.51 0.66 0.78 0.89 0.94 0.95 0.91 0.86 0.81 0.70 0.63 0.59 0.55 0.49 0.46 0.43 0.38 0.33 0.34 0.35 0.34 0.32 0.29 0.24 0.19 0.27 0.61 0.93 1.01 0.90 0.88 0.85 0.80 0.73 0.71 0.93 1.08
0.38 0.54 0.65 0.72 0.80 0.85 0.82 0.81 0.76 0.69 0.61 0.56 0.55 0.52 0.45 0.39 0.36 0.33 0.31 0.27 0.26 0.24 0.22 0.21 0.19 0.20 0.25 0.46 0.85 1.07 0.93 0.70 0.58 0.60 0.64 0.68 0.81 0.90
0.40 0.50 0.57 0.62 0.67 0.70 0.68 0.65 0.63 0.59 0.52 0.47 0.47 0.47 0.45 0.39 0.32 0.26 0.22 0.17 0.18 0.19 0.21 0.25 0.25 0.19 0.17 0.21 0.47 0.75 0.80 0.74 0.56 0.47 0.45 0.49 0.52 0.48
0.39 0.47 0.50 0.49 0.49 0.51 0.49 0.45 0.45 0.45 0.42 0.41 0.41 0.39 0.38 0.32 0.26 0.21 0.18 0.15 0.15 0.14 0.15 0.18 0.16 0.13 0.12 0.17 0.33 0.52 0.58 0.52 0.46 0.42 0.41 0.36 0.31 0.39
0.35 0.38 0.40 0.41 0.37 0.34 0.34 0.33 0.34 0.35 0.35 0.36 0.35 0.34 0.31 0.26 0.20 0.15 0.12 0.10 0.09 0.08 0.09 0.11 0.11 0.09 0.10 0.13 0.19 0.27 0.30 0.28 0.25 0.27 0.40 0.46 0.42 0.49

GEFSNE_prec_meanprecacc_102.txt.gz
Total_Precipitation_Accumulation
0.19 0.18 0.18 0.16 0.16 0.16 0.18 0.24 0.32 0.28 0.19 0.13 0.12 0.16 0.24 0.29 0.33 0.33 0.30 0.19 0.14 0.12 0.11 0.14 0.16 0.20 0.24 0.27 0.29 0.30 0.29 0.29 0.34 0.44 0.58 0.71 0.81 0.89
0.18 0.17 0.16 0.14 0.15 0.16 0.18 0.21 0.27 0.35 0.30 0.17 0.13 0.16 0.25 0.29 0.36 0.35 0.31 0.28 0.21 0.16 0.16 0.27 0.36 0.37 0.38 0.37 0.34 0.37 0.38 0.39 0.39 0.44 0.53 0.65 0.78 0.91
0.13 0.13 0.13 0.13 0.15 0.15 0.17 0.22 0.26 0.34 0.37 0.20 0.14 0.19 0.29 0.34 0.39 0.38 0.34 0.32 0.27 0.25 0.22 0.31 0.57 0.76 0.69 0.58 0.50 0.45 0.45 0.46 0.47 0.50 0.57 0.66 0.72 0.80
0.12 0.12 0.11 0.11 0.13 0.14 0.18 0.21 0.24 0.30 0.39 0.31 0.21 0.24 0.31 0.40 0.49 0.50 0.43 0.38 0.35 0.37 0.34 0.33 0.51 0.92 1.03 0.80 0.70 0.59 0.50 0.49 0.49 0.53 0.59 0.63 0.66 0.72
0.11 0.13 0.12 0.13 0.16 0.18 0.23 0.25 0.27 0.30 0.42 0.49 0.38 0.33 0.36 0.46 0.59 0.58 0.48 0.49 0.38 0.35 0.37 0.41 0.55 1.08 1.44 1.22 0.94 0.83 0.67 0.57 0.52 0.53 0.59 0.62 0.59 0.58
0.10 0.12 0.14 0.18 0.22 0.25 0.26 0.29 0.35 0.41 0.43 0.48 0.45 0.42 0.45 0.52 0.65 0.72 0.59 0.51 0.41 0.29 0.36 0.44 0.59 1.06 1.62 1.81 1.46 1.19 0.96 0.76 0.64 0.56 0.54 0.53 0.48 0.43
0.10 0.12 0.13 0.17 0.22 0.25 0.28 0.35 0.46 0.53 0.51 0.51 0.49 0.49 0.53 0.63 0.68 0.69 0.63 0.51 0.37 0.32 0.36 0.42 0.67 1.32 1.87 2.18 2.06 1.54 1.14 0.91 0.74 0.62 0.56 0.50 0.44 0.38
0.15 0.14 0.10 0.10 0.13 0.18 0.25 0.33 0.43 0.52 0.58 0.63 0.62 0.57 0.55 0.63 0.68 0.69 0.67 0.62 0.47 0.33 0.38 0.45 0.80 1.58 2.16 2.44 2.37 1.72 1.18 0.96 0.84 0.75 0.68 0.60 0.52 0.44
0.18 0.16 0.11 0.09 0.14 0.20 0.22 0.25 0.32 0.44 0.61 0.74 0.75 0.63 0.64 0.72 0.80 0.79 0.68 0.66 0.60 0.43 0.47 0.59 0.97 1.58 2.11 2.57 2.50 1.85 1.35 1.09 0.98 0.89 0.81 0.71 0.59 0.48
0.14 0.14 0.16 0.19 0.18 0.17 0.18 0.27 0.42 0.54 0.60 0.61 0.71 0.71 0.74 0.71 0.68 0.67 0.61 0.64 0.56 0.42 0.51 0.73 1.02 1.50 1.93 2.39 2.41 1.84 1.41 1.18 1.07 0.95 0.83 0.72 0.61 0.52
0.10 0.12 0.14 0.20 0.17 0.21 0.30 0.45 0.65 0.84 0.76 0.71 0.74 0.85 0.88 0.75 0.58 0.55 0.67 0.74 0.60 0.41 0.48 0.69 0.94 1.22 1.57 1.93 2.00 1.74 1.42 1.23 1.08 0.94 0.80 0.68 0.60 0.56
0.11 0.15 0.18 0.20 0.20 0.32 0.42 0.62 0.85 0.98 0.84 0.78 0.87 1.00 0.95 0.86 0.76 0.74 0.79 0.76 0.66 0.57 0.52 0.65 0.80 0.96 1.33 1.56 1.49 1.37 1.32 1.30 1.17 1.04 0.88 0.70 0.54 0.51
0.16 0.24 0.29 0.28 0.27 0.39 0.56 0.74 0.98 1.01 0.89 0.82 0.81 0.82 0.80 0.79 0.74 0.75 0.72 0.68 0.64 0.64 0.58 0.68 0.82 0.93 1.12 1.31 1.33 1.28 1.16 1.16 1.16 1.21 1.16 0.91 0.64 0.52
0.26 0.34 0.35 0.33 0.35 0.53 0.68 0.87 1.11 1.20 1.01 0.83 0.69 0.63 0.61 0.64 0.64 0.57 0.52 0.51 0.53 0.56 0.56 0.64 0.85 1.00 0.99 0.98 1.17 1.20 1.16 1.19 1.16 1.17 1.21 1.10 0.89 0.77
0.28 0.41 0.41 0.38 0.55 0.84 1.00 1.11 1.28 1.30 1.07 0.79 0.65 0.58 0.52 0.50 0.50 0.49 0.46 0.43 0.43 0.43 0.42 0.51 0.71 0.86 0.88 0.89 1.01 1.04 1.17 1.38 1.33 1.29 1.21 1.10 0.99 0.87
0.24 0.40 0.53 0.58 0.76 1.04 1.23 1.33 1.37 1.27 1.01 0.80 0.66 0.58 0.51 0.47 0.47 0.44 0.43 0.39 0.41 0.49 0.47 0.49 0.60 0.70 0.81 0.81 0.87 0.97 1.09 1.50 1.56 1.35 1.22 1.19 1.10 0.98
0.22 0.36 0.54 0.65 0.85 1.06 1.18 1.20 1.16 1.08 0.97 0.80 0.67 0.60 0.55 0.52 0.50 0.45 0.43 0.38 0.41 0.47 0.50 0.52 0.57 0.60 0.65 0.69 0.82 0.95 1.09 1.32 1.40 1.19 1.03 1.13 1.21 1.08
0.29 0.45 0.61 0.71 0.87 0.99 1.05 1.04 0.97 0.90 0.80 0.72 0.65 0.60 0.56 0.53 0.51 0.44 0.38 0.37 0.42 0.43 0.43 0.42 0.40 0.39 0.45 0.63 0.86 0.93 0.97 1.12 1.15 0.98 0.78 0.86 1.12 1.13
0.34 0.52 0.67 0.79 0.90 0.94 0.95 0.91 0.86 0.81 0.71 0.63 0.59 0.55 0.49 0.46 0.44 0.39 0.34 0.35 0.36 0.34 0.32 0.29 0.25 0.20 0.28 0.63 0.94 1.01 0.91 0.89 0.87 0.82 0.74 0.72 0.95 1.09
0.39 0.54 0.66 0.73 0.80 0.85 0.82 0.81 0.76 0.69 0.61 0.56 0.56 0.52 0.45 0.40 0.36 0.33 0.31 0.27 0.26 0.24 0.22 0.21 0.19 0.20 0.26 0.48 0.86 1.08 0.93 0.70 0.59 0.62 0.66 0.69 0.83 0.91
0.41 0.50 0.58 0.62 0.67 0.70 0.68 0.65 0.63 0.59 0.52 0.47 0.47 0.48 0.45 0.39 0.33 0.26 0.22 0.17 0.18 0.19 0.21 0.25 0.25 0.19 0.17 0.22 0.49 0.76 0.81 0.74 0.56 0.47 0.46 0.49 0.53 0.49
0.39 0.47 0.50 0.49 0.49 0.51 0.49 0.45 0.45 0.45 0.42 0.41 0.41 0.39 0.38 0.32 0.26 0.21 0.18 0.15 0.15 0.14 0.15 0.18 0.16 0.13 0.13 0.18 0.34 0.52 0.58 0.52 0.46 0.42 0.41 0.36 0.31 0.39
0.35 0.38 0.40 0.41 0.37 0.34 0.34 0.33 0.34 0.35 0.35 0.36 0.35 0.34 0.31 0.26 0.20 0.15 0.12 0.10 0.09 0.08 0.09 0.11 0.11 0.09 0.10 0.13 0.19 0.27 0.30 0.28 0.25 0.27 0.40 0.46 0.42 0.49

GEFSNE_prec_meanprecacc_108.txt.gz
Total_Precipitation_Accumulation
0.24 0.22 0.22 0.19 0.18 0.18 0.21 0.26 0.34 0.30 0.22 0.16 0.15 0.18 0.27 0.32 0.36 0.35 0.32 0.22 0.17 0.14 0.13 0.15 0.17 0.21 0.26 0.29 0.30 0.31 0.30 0.31 0.35 0.45 0.59 0.72 0.82 0.90
0.22 0.19 0.18 0.16 0.16 0.17 0.19 0.22 0.29 0.36 0.32 0.18 0.14 0.18 0.26 0.31 0.38 0.37 0.33 0.30 0.22 0.18 0.17 0.29 0.38 0.38 0.39 0.38 0.36 0.38 0.40 0.40 0.40 0.44 0.54 0.65 0.79 0.91
0.16 0.15 0.15 0.15 0.16 0.15 0.18 0.23 0.28 0.35 0.38 0.21 0.15 0.20 0.29 0.35 0.41 0.40 0.36 0.34 0.29 0.27 0.24 0.33 0.58 0.77 0.70 0.59 0.51 0.46 0.45 0.47 0.47 0.51 0.58 0.66 0.72 0.80
0.14 0.14 0.12 0.12 0.14 0.15 0.18 0.21 0.25 0.31 0.39 0.32 0.22 0.24 0.31 0.41 0.49 0.51 0.44 0.39 0.36 0.39 0.36 0.35 0.52 0.93 1.04 0.82 0.71 0.60 0.51 0.49 0.50 0.54 0.59 0.63 0.66 0.72
0.13 0.14 0.14 0.15 0.17 0.20 0.24 0.26 0.28 0.30 0.42 0.50 0.39 0.34 0.37 0.47 0.60 0.58 0.48 0.49 0.38 0.35 0.38 0.41 0.56 1.09 1.45 1.23 0.95 0.83 0.67 0.57 0.52 0.53 0.59 0.62 0.59 0.58
0.11 0.14 0.15 0.19 0.23 0.27 0.27 0.30 0.37 0.42 0.44 0.48 0.46 0.43 0.47 0.53 0.67 0.73 0.60 0.52 0.42 0.30 0.36 0.44 0.60 1.07 1.62 1.81 1.46 1.19 0.96 0.76 0.64 0.56 0.54 0.53 0.48 0.43
0.11 0.13 0.14 0.17 0.23 0.27 0.29 0.37 0.48 0.56 0.53 0.53 0.52 0.52 0.56 0.66 0.71 0.70 0.65 0.52 0.38 0.33 0.38 0.43 0.69 1.34 1.90 2.20 2.06 1.54 1.14 0.91 0.74 0.62 0.56 0.50 0.44 0.38
0.17 0.15 0.11 0.11 0.13 0.18 0.26 0.34 0.44 0.53 0.60 0.65 0.66 0.62 0.60 0.66 0.70 0.71 0.70 0.65 0.50 0.36 0.40 0.48 0.83 1.63 2.21 2.47 2.38 1.72 1.18 0.96 0.84 0.75 0.68 0.60 0.52 0.44
0.20 0.18 0.12 0.10 0.15 0.21 0.23 0.25 0.33 0.45 0.61 0.74 0.77 0.66 0.67 0.75 0.81 0.81 0.71 0.70 0.65 0.46 0.50 0.64 1.01 1.61 2.15 2.58 2.50 1.85 1.35 1.09 0.98 0.89 0.81 0.71 0.59 0.48
0.16 0.16 0.19 0.22 0.19 0.17 0.19 0.30 0.46 0.57 0.60 0.61 0.72 0.73 0.75 0.73 0.70 0.68 0.64 0.69 0.64 0.48 0.54 0.77 1.05 1.53 1.96 2.41 2.41 1.84 1.41 1.18 1.07 0.95 0.83 0.72 0.61 0.52
0.12 0.12 0.15 0.22 0.17 0.21 0.32 0.51 0.71 0.88 0.76 0.71 0.74 0.85 0.88 0.76 0.58 0.56 0.72 0.80 0.67 0.46 0.50 0.72 0.97 1.24 1.61 1.97 2.01 1.74 1.42 1.23 1.08 0.94 0.80 0.68 0.60 0.56
0.15 0.17 0.18 0.20 0.20 0.32 0.43 0.66 0.88 1.00 0.86 0.80 0.89 1.02 0.97 0.87 0.77 0.76 0.83 0.81 0.70 0.62 0.55 0.67 0.83 0.98 1.37 1.58 1.51 1.38 1.34 1.31 1.17 1.04 0.88 0.70 0.54 0.51
0.20 0.27 0.29 0.28 0.27 0.39 0.56 0.75 0.99 1.01 0.91 0.85 0.84 0.86 0.85 0.84 0.78 0.79 0.76 0.71 0.67 0.67 0.60 0.69 0.84 0.95 1.15 1.34 1.35 1.30 1.18 1.18 1.18 1.22 1.16 0.91 0.64 0.52
0.29 0.35 0.35 0.33 0.35 0.53 0.68 0.87 1.11 1.21 1.03 0.86 0.72 0.66 0.65 0.68 0.67 0.59 0.54 0.53 0.56 0.58 0.58 0.66 0.87 1.02 1.02 1.02 1.20 1.22 1.18 1.20 1.18 1.20 1.24 1.11 0.90 0.77
0.29 0.41 0.41 0.38 0.55 0.85 1.00 1.11 1.28 1.32 1.09 0.82 0.68 0.61 0.55 0.52 0.52 0.52 0.48 0.45 0.44 0.44 0.42 0.51 0.73 0.88 0.91 0.91 1.03 1.06 1.19 1.39 1.34 1.31 1.24 1.13 1.01 0.88
0.25 0.40 0.53 0.58 0.76 1.04 1.23 1.33 1.38 1.27 1.02 0.82 0.69 0.60 0.52 0.49 0.49 0.46 0.44 0.41 0.43 0.50 0.48 0.49 0.60 0.71 0.83 0.83 0.88 0.98 1.10 1.52 1.57 1.36 1.25 1.22 1.12 0.99
0.23 0.38 0.56 0.67 0.86 1.07 1.19 1.21 1.17 1.08 0.98 0.81 0.68 0.61 0.57 0.53 0.51 0.46 0.44 0.38 0.42 0.48 0.51 0.53 0.58 0.61 0.66 0.70 0.82 0.95 1.10 1.34 1.42 1.21 1.05 1.16 1.23 1.09
0.29 0.47 0.63 0.74 0.89 1.01 1.07 1.05 0.98 0.90 0.81 0.72 0.66 0.60 0.57 0.53 0.51 0.44 0.38 0.37 0.42 0.43 0.43 0.43 0.40 0.40 0.48 0.65 0.87 0.94 0.97 1.13 1.16 0.99 0.80 0.88 1.15 1.14
0.35 0.54 0.69 0.81 0.91 0.95 0.96 0.92 0.86 0.81 0.71 0.63 0.59 0.55 0.49 0.46 0.44 0.39 0.34 0.35 0.36 0.34 0.32 0.29 0.25 0.20 0.30 0.66 0.95 1.01 0.91 0.90 0.88 0.83 0.75 0.74 0.96 1.10
0.40 0.55 0.67 0.74 0.81 0.85 0.82 0.81 0.76 0.69 0.61 0.56 0.56 0.52 0.45 0.40 0.36 0.34 0.31 0.27 0.26 0.24 0.22 0.21 0.20 0.20 0.26 0.49 0.88 1.08 0.93 0.70 0.60 0.62 0.66 0.70 0.83 0.91
0.42 0.51 0.58 0.63 0.67 0.70 0.68 0.65 0.63 0.59 0.52 0.47 0.47 0.48 0.45 0.39 0.33 0.26 0.22 0.17 0.18 0.19 0.21 0.25 0.25 0.19 0.17 0.23 0.50 0.77 0.81 0.74 0.56 0.47 0.46 0.50 0.53 0.49
0.40 0.47 0.50 0.49 0.49 0.51 0.49 0.45 0.45 0.45 0.42 0.41 0.41 0.39 0.38 0.32 0.26 0.21 0.18 0.15 0.15 0.14 0.15 0.18 0.16 0.13 0.13 0.18 0.34 0.52 0.58 0.52 0.46 0.42 0.41 0.36 0.31 0.39
0.35 0.38 0.40 0.41 0.37 0.34 0.34 0.33 0.34 0.35 0.35 0.36 0.35 0.34 0.31 0.26 0.20 0.15 0.12 0.10 0.09 0.08 0.09 0.11 0.11 0.09 0.10 0.13 0.19 0.27 0.30 0.28 0.25 0.28 0.40 0.46 0.42 0.49

GEFSNE_prec_meanprecacc_114.txt.gz
Total_Precipitation_Accumulation
0.40 0.37 0.36 0.33 0.31 0.29 0.30 0.34 0.41 0.37 0.27 0.19 0.17 0.20 0.29 0.34 0.38 0.37 0.34 0.24 0.19 0.18 0.18 0.19 0.21 0.24 0.28 0.31 0.32 0.33 0.31 0.32 0.36 0.47 0.60 0.74 0.84 0.92
0.33 0.31 0.30 0.28 0.28 0.27 0.28 0.29 0.34 0.41 0.36 0.21 0.16 0.19 0.27 0.31 0.39 0.37 0.34 0.31 0.24 0.20 0.21 0.33 0.41 0.41 0.42 0.40 0.38 0.39 0.41 0.41 0.41 0.46 0.55 0.67 0.80 0.93
0.28 0.25 0.23 0.23 0.24 0.24 0.25 0.29 0.32 0.39 0.41 0.24 0.17 0.21 0.30 0.36 0.41 0.40 0.36 0.34 0.29 0.27 0.24 0.34 0.59 0.79 0.71 0.60 0.53 0.48 0.47 0.49 0.49 0.52 0.59 0.68 0.73 0.81
0.24 0.23 0.20 0.17 0.19 0.21 0.24 0.25 0.28 0.34 0.42 0.35 0.24 0.26 0.32 0.41 0.50 0.51 0.45 0.39 0.36 0.39 0.36 0.35 0.53 0.94 1.05 0.82 0.72 0.61 0.52 0.50 0.51 0.55 0.60 0.64 0.66 0.73
0.19 0.21 0.20 0.20 0.22 0.24 0.28 0.29 0.31 0.32 0.44 0.51 0.41 0.36 0.38 0.48 0.61 0.59 0.48 0.49 0.38 0.36 0.38 0.42 0.56 1.09 1.45 1.23 0.95 0.84 0.67 0.58 0.52 0.54 0.60 0.62 0.60 0.58
0.14 0.16 0.18 0.22 0.26 0.30 0.30 0.33 0.39 0.44 0.45 0.50 0.46 0.44 0.47 0.54 0.68 0.74 0.60 0.52 0.42 0.30 0.36 0.44 0.60 1.07 1.62 1.81 1.46 1.19 0.96 0.76 0.64 0.56 0.54 0.53 0.48 0.43
0.11 0.14 0.14 0.18 0.24 0.28 0.31 0.38 0.49 0.56 0.54 0.54 0.53 0.53 0.57 0.67 0.72 0.72 0.66 0.53 0.39 0.33 0.38 0.43 0.69 1.34 1.90 2.20 2.06 1.55 1.14 0.91 0.74 0.62 0.56 0.50 0.44 0.38
0.17 0.15 0.11 0.11 0.14 0.19 0.26 0.34 0.44 0.54 0.60 0.66 0.66 0.63 0.61 0.68 0.71 0.73 0.72 0.67 0.51 0.36 0.40 0.48 0.83 1.63 2.21 2.48 2.38 1.73 1.18 0.96 0.84 0.75 0.68 0.60 0.52 0.44
0.20 0.18 0.13 0.10 0.15 0.21 0.23 0.25 0.33 0.45 0.61 0.75 0.78 0.66 0.67 0.76 0.82 0.83 0.73 0.72 0.67 0.47 0.50 0.64 1.01 1.61 2.15 2.59 2.50 1.85 1.35 1.09 0.98 0.89 0.81 0.71 0.59 0.48
0.16 0.16 0.19 0.22 0.19 0.17 0.19 0.30 0.46 0.57 0.61 0.62 0.73 0.73 0.75 0.74 0.71 0.70 0.67 0.71 0.65 0.48 0.54 0.77 1.05 1.53 1.96 2.41 2.41 1.84 1.41 1.18 1.07 0.95 0.83 0.72 0.61 0.52
0.12 0.13 0.15 0.22 0.17 0.21 0.32 0.51 0.71 0.88 0.77 0.71 0.74 0.85 0.88 0.76 0.59 0.58 0.74 0.82 0.67 0.46 0.50 0.72 0.97 1.25 1.61 1.97 2.01 1.74 1.42 1.23 1.08 0.94 0.80 0.68 0.60 0.56
0.15 0.17 0.18 0.20 0.20 0.32 0.43 0.66 0.88 1.00 0.87 0.80 0.90 1.02 0.97 0.88 0.78 0.78 0.86 0.82 0.71 0.62 0.55 0.67 0.83 0.98 1.37 1.58 1.51 1.38 1.34 1.31 1.17 1.04 0.88 0.70 0.54 0.51
0.20 0.27 0.29 0.28 0.27 0.39 0.56 0.75 0.99 1.02 0.92 0.86 0.85 0.86 0.85 0.85 0.80 0.80 0.77 0.72 0.68 0.67 0.60 0.70 0.84 0.95 1.15 1.34 1.35 1.30 1.18 1.18 1.18 1.22 1.16 0.91 0.64 0.52
0.29 0.35 0.35 0.33 0.35 0.53 0.68 0.87 1.11 1.21 1.03 0.86 0.73 0.67 0.65 0.68 0.68 0.60 0.55 0.53 0.56 0.59 0.58 0.66 0.87 1.02 1.02 1.02 1.21 1.22 1.18 1.20 1.18 1.20 1.24 1.11 0.90 0.77
0.29 0.41 0.41 0.38 0.55 0.85 1.00 1.11 1.28 1.32 1.09 0.82 0.69 0.62 0.56 0.53 0.52 0.52 0.48 0.45 0.44 0.44 0.42 0.51 0.73 0.88 0.91 0.91 1.03 1.07 1.19 1.40 1.34 1.31 1.24 1.13 1.02 0.88
0.25 0.40 0.53 0.58 0.76 1.04 1.23 1.33 1.38 1.27 1.02 0.82 0.69 0.61 0.53 0.49 0.49 0.46 0.44 0.41 0.43 0.50 0.48 0.49 0.60 0.72 0.83 0.83 0.88 0.98 1.10 1.52 1.58 1.37 1.25 1.22 1.12 0.99
0.23 0.38 0.56 0.67 0.86 1.07 1.19 1.21 1.17 1.09 0.98 0.81 0.68 0.61 0.57 0.53 0.51 0.46 0.44 0.39 0.42 0.49 0.51 0.53 0.58 0.61 0.66 0.70 0.82 0.95 1.10 1.34 1.42 1.21 1.05 1.17 1.23 1.09
0.29 0.47 0.63 0.74 0.89 1.01 1.07 1.05 0.98 0.90 0.81 0.72 0.66 0.60 0.57 0.53 0.51 0.44 0.38 0.38 0.42 0.43 0.43 0.43 0.40 0.40 0.48 0.65 0.87 0.94 0.97 1.13 1.16 0.99 0.80 0.88 1.15 1.14
0.35 0.54 0.69 0.81 0.92 0.95 0.96 0.92 0.87 0.81 0.71 0.63 0.59 0.55 0.49 0.46 0.44 0.39 0.34 0.35 0.36 0.34 0.32 0.29 0.25 0.20 0.30 0.66 0.95 1.01 0.91 0.90 0.88 0.83 0.75 0.74 0.96 1.10
0.40 0.55 0.67 0.74 0.81 0.85 0.82 0.81 0.77 0.69 0.61 0.56 0.56 0.52 0.45 0.40 0.36 0.34 0.31 0.27 0.26 0.24 0.22 0.21 0.20 0.20 0.26 0.49 0.88 1.08 0.93 0.70 0.60 0.62 0.66 0.70 0.83 0.91
0.42 0.51 0.58 0.63 0.67 0.70 0.68 0.65 0.63 0.59 0.52 0.47 0.47 0.48 0.45 0.39 0.33 0.26 0.22 0.17 0.18 0.19 0.21 0.25 0.25 0.19 0.17 0.23 0.50 0.77 0.81 0.74 0.56 0.47 0.46 0.50 0.53 0.49
0.40 0.47 0.50 0.49 0.49 0.51 0.49 0.45 0.45 0.45 0.42 0.41 0.41 0.40 0.38 0.32 0.26 0.21 0.18 0.15 0.15 0.14 0.15 0.18 0.16 0.13 0.13 0.18 0.34 0.52 0.58 0.52 0.46 0.42 0.41 0.36 0.31 0.39
0.35 0.38 0.40 0.41 0.37 0.34 0.34 0.33 0.34 0.35 0.35 0.36 0.35 0.34 0.31 0.26 0.20 0.15 0.12 0.10 0.09 0.08 0.09 0.11 0.11 0.09 0.10 0.13 0.19 0.27 0.30 0.28 0.25 0.28 0.40 0.46 0.42 0.49

GEFSNE_prec_meanprecacc_120.txt.gz
Total_Precipitation_Accumulation
0.49 0.45 0.44 0.42 0.41 0.39 0.39 0.43 0.51 0.49 0.39 0.29 0.26 0.29 0.36 0.40 0.44 0.41 0.36 0.26 0.21 0.19 0.19 0.22 0.25 0.29 0.34 0.37 0.39 0.38 0.35 0.35 0.39 0.49 0.63 0.76 0.86 0.94
0.42 0.38 0.36 0.34 0.36 0.38 0.39 0.39 0.44 0.51 0.49 0.35 0.28 0.29 0.35 0.37 0.44 0.41 0.36 0.33 0.26 0.22 0.22 0.35 0.43 0.43 0.45 0.44 0.43 0.44 0.45 0.45 0.44 0.48 0.57 0.68 0.81 0.94
0.36 0.32 0.30 0.30 0.33 0.34 0.38 0.43 0.47 0.53 0.56 0.39 0.29 0.30 0.37 0.42 0.46 0.44 0.39 0.36 0.30 0.28 0.25 0.34 0.60 0.79 0.72 0.62 0.54 0.50 0.48 0.50 0.50 0.53 0.60 0.68 0.74 0.82
0.30 0.30 0.26 0.23 0.25 0.28 0.33 0.36 0.39 0.45 0.53 0.45 0.31 0.31 0.37 0.46 0.55 0.55 0.47 0.41 0.38 0.40 0.36 0.36 0.53 0.94 1.05 0.82 0.72 0.62 0.53 0.51 0.51 0.55 0.61 0.65 0.67 0.73
0.23 0.24 0.25 0.26 0.27 0.30 0.34 0.36 0.38 0.39 0.50 0.57 0.46 0.40 0.42 0.51 0.64 0.62 0.51 0.52 0.40 0.37 0.39 0.42 0.56 1.09 1.45 1.23 0.95 0.84 0.67 0.58 0.52 0.54 0.60 0.63 0.60 0.58
0.16 0.18 0.21 0.25 0.30 0.33 0.34 0.37 0.43 0.48 0.49 0.54 0.50 0.47 0.50 0.56 0.70 0.76 0.62 0.53 0.43 0.31 0.37 0.45 0.61 1.07 1.63 1.82 1.46 1.19 0.96 0.76 0.64 0.56 0.54 0.53 0.48 0.43
0.13 0.15 0.16 0.20 0.26 0.30 0.32 0.40 0.51 0.58 0.55 0.56 0.55 0.55 0.59 0.69 0.74 0.74 0.68 0.55 0.39 0.33 0.38 0.44 0.69 1.35 1.90 2.20 2.06 1.55 1.14 0.91 0.74 0.62 0.56 0.50 0.44 0.38
0.19 0.17 0.12 0.12 0.15 0.20 0.27 0.35 0.44 0.54 0.60 0.67 0.67 0.64 0.62 0.69 0.72 0.74 0.73 0.68 0.53 0.37 0.40 0.48 0.83 1.63 2.21 2.48 2.38 1.73 1.18 0.96 0.84 0.75 0.68 0.60 0.52 0.44
0.21 0.19 0.14 0.10 0.15 0.21 0.23 0.25 0.33 0.45 0.61 0.75 0.78 0.66 0.68 0.76 0.83 0.83 0.73 0.72 0.69 0.49 0.50 0.64 1.01 1.61 2.15 2.59 2.50 1.85 1.35 1.09 0.98 0.89 0.81 0.71 0.59 0.48
0.17 0.17 0.21 0.23 0.19 0.17 0.19 0.30 0.46 0.57 0.61 0.62 0.73 0.73 0.75 0.74 0.71 0.70 0.67 0.72 0.66 0.51 0.56 0.77 1.05 1.53 1.96 2.41 2.41 1.84 1.41 1.18 1.07 0.95 0.83 0.72 0.61 0.52
0.13 0.13 0.16 0.22 0.17 0.21 0.32 0.51 0.71 0.88 0.77 0.71 0.74 0.85 0.88 0.76 0.60 0.58 0.75 0.84 0.69 0.48 0.51 0.72 0.97 1.25 1.61 1.97 2.01 1.74 1.42 1.23 1.08 0.94 0.80 0.68 0.60 0.56
0.15 0.18 0.18 0.20 0.21 0.32 0.43 0.66 0.88 1.00 0.87 0.80 0.90 1.03 0.98 0.89 0.80 0.79 0.88 0.84 0.72 0.63 0.55 0.68 0.83 0.98 1.37 1.58 1.51 1.38 1.34 1.31 1.17 1.04 0.88 0.70 0.55 0.51
0.20 0.27 0.29 0.28 0.27 0.39 0.56 0.75 0.99 1.02 0.92 0.86 0.85 0.87 0.86 0.87 0.82 0.82 0.79 0.73 0.69 0.68 0.61 0.70 0.84 0.95 1.15 1.34 1.35 1.30 1.18 1.18 1.18 1.22 1.16 0.91 0.64 0.52
0.30 0.35 0.35 0.33 0.35 0.53 0.68 0.87 1.11 1.21 1.03 0.86 0.73 0.67 0.66 0.69 0.69 0.61 0.56 0.54 0.57 0.60 0.59 0.66 0.87 1.02 1.02 1.02 1.21 1.22 1.18 1.20 1.18 1.20 1.24 1.11 0.90 0.77
0.29 0.41 0.41 0.38 0.55 0.85 1.00 1.11 1.28 1.32 1.09 0.82 0.69 0.62 0.56 0.53 0.53 0.52 0.49 0.45 0.44 0.44 0.43 0.52 0.73 0.89 0.91 0.91 1.03 1.07 1.19 1.40 1.34 1.31 1.24 1.13 1.02 0.88
0.25 0.40 0.53 0.58 0.76 1.04 1.23 1.33 1.38 1.28 1.02 0.82 0.69 0.61 0.53 0.49 0.50 0.47 0.45 0.42 0.43 0.50 0.48 0.49 0.60 0.72 0.83 0.83 0.88 0.98 1.10 1.52 1.58 1.37 1.25 1.22 1.12 0.99
0.23 0.38 0.56 0.67 0.86 1.07 1.19 1.22 1.17 1.09 0.98 0.81 0.68 0.61 0.57 0.53 0.51 0.47 0.44 0.39 0.42 0.49 0.51 0.53 0.58 0.61 0.66 0.70 0.82 0.95 1.10 1.34 1.42 1.21 1.05 1.17 1.23 1.09
0.29 0.47 0.63 0.74 0.89 1.01 1.07 1.05 0.98 0.90 0.81 0.72 0.66 0.60 0.57 0.53 0.51 0.44 0.39 0.38 0.42 0.43 0.43 0.43 0.40 0.40 0.48 0.65 0.87 0.94 0.97 1.13 1.16 0.99 0.80 0.88 1.15 1.14
0.35 0.54 0.69 0.81 0.92 0.95 0.96 0.92 0.87 0.81 0.71 0.63 0.59 0.55 0.50 0.46 0.44 0.39 0.34 0.35 0.36 0.34 0.32 0.29 0.25 0.20 0.30 0.66 0.95 1.01 0.91 0.90 0.88 0.83 0.75 0.74 0.96 1.10
0.40 0.55 0.67 0.74 0.81 0.85 0.82 0.81 0.77 0.69 0.61 0.56 0.56 0.52 0.45 0.40 0.36 0.34 0.31 0.27 0.26 0.24 0.22 0.21 0.20 0.20 0.26 0.49 0.88 1.08 0.93 0.70 0.60 0.62 0.66 0.70 0.83 0.91
0.42 0.51 0.59 0.63 0.67 0.70 0.68 0.65 0.63 0.59 0.52 0.47 0.47 0.48 0.45 0.39 0.33 0.26 0.22 0.17 0.18 0.19 0.21 0.25 0.25 0.19 0.17 0.23 0.50 0.77 0.81 0.74 0.56 0.47 0.46 0.50 0.53 0.49
0.40 0.47 0.50 0.50 0.50 0.52 0.49 0.45 0.45 0.45 0.42 0.41 0.41 0.40 0.38 0.32 0.26 0.21 0.18 0.15 0.15 0.14 0.15 0.18 0.16 0.13 0.13 0.18 0.34 0.52 0.58 0.52 0.46 0.42 0.41 0.36 0.31 0.39
0.35 0.38 0.40 0.41 0.37 0.34 0.34 0.33 0.34 0.35 0.35 0.36 0.35 0.34 0.31 0.26 0.20 0.15 0.12 0.10 0.09 0.08 0.09 0.11 0.11 0.09 0.10 0.13 0.19 0.27 0.30 0.28 0.25 0.28 0.40 0.46 0.42 0.49

GEFSNE_prec_meanprecacc_126.txt.gz
Total_Precipitation_Accumulation
0.65 0.62 0.62 0.63 0.62 0.61 0.60 0.63 0.73 0.72 0.60 0.46 0.41 0.43 0.48 0.51 0.56 0.50 0.44 0.35 0.30 0.26 0.25 0.27 0.28 0.31 0.35 0.38 0.40 0.40 0.38 0.38 0.42 0.52 0.65 0.79 0.90 0.98
0.53 0.50 0.49 0.48 0.53 0.57 0.59 0.59 0.62 0.69 0.68 0.51 0.41 0.42 0.47 0.48 0.55 0.50 0.46 0.44 0.34 0.27 0.26 0.38 0.46 0.45 0.46 0.45 0.43 0.45 0.47 0.48 0.49 0.53 0.62 0.73 0.86 0.97
0.44 0.42 0.41 0.42 0.45 0.48 0.53 0.59 0.62 0.66 0.71 0.54 0.41 0.40 0.46 0.51 0.55 0.51 0.46 0.42 0.35 0.32 0.27 0.36 0.61 0.80 0.73 0.62 0.55 0.50 0.49 0.52 0.53 0.56 0.64 0.73 0.79 0.87
0.35 0.35 0.33 0.32 0.34 0.38 0.43 0.46 0.50 0.55 0.63 0.57 0.43 0.41 0.46 0.55 0.63 0.64 0.54 0.46 0.42 0.44 0.38 0.36 0.53 0.94 1.05 0.83 0.73 0.62 0.53 0.52 0.52 0.56 0.62 0.66 0.69 0.76
0.28 0.29 0.30 0.31 0.33 0.36 0.40 0.43 0.45 0.48 0.59 0.66 0.56 0.49 0.51 0.60 0.72 0.69 0.57 0.56 0.42 0.39 0.40 0.43 0.57 1.10 1.45 1.23 0.95 0.84 0.67 0.58 0.53 0.55 0.61 0.63 0.61 0.59
0.21 0.23 0.24 0.29 0.34 0.38 0.39 0.42 0.48 0.54 0.57 0.62 0.60 0.58 0.61 0.65 0.77 0.81 0.67 0.58 0.47 0.33 0.39 0.46 0.62 1.08 1.63 1.82 1.46 1.19 0.96 0.77 0.64 0.56 0.54 0.53 0.49 0.44
0.18 0.19 0.19 0.24 0.30 0.34 0.37 0.44 0.55 0.64 0.63 0.64 0.63 0.65 0.68 0.77 0.79 0.78 0.71 0.58 0.43 0.36 0.41 0.45 0.71 1.36 1.91 2.20 2.06 1.55 1.14 0.91 0.74 0.62 0.56 0.50 0.44 0.38
0.23 0.20 0.15 0.15 0.17 0.22 0.30 0.37 0.47 0.58 0.66 0.72 0.73 0.70 0.68 0.74 0.76 0.76 0.75 0.71 0.56 0.38 0.41 0.49 0.84 1.64 2.23 2.49 2.39 1.73 1.18 0.96 0.84 0.75 0.68 0.60 0.52 0.44
0.24 0.22 0.16 0.12 0.16 0.22 0.24 0.27 0.35 0.47 0.64 0.78 0.81 0.70 0.72 0.80 0.86 0.86 0.76 0.75 0.72 0.50 0.51 0.66 1.02 1.62 2.15 2.59 2.50 1.85 1.35 1.09 0.98 0.89 0.81 0.71 0.59 0.48
0.19 0.19 0.23 0.25 0.20 0.18 0.21 0.32 0.48 0.58 0.62 0.63 0.75 0.75 0.77 0.76 0.73 0.72 0.69 0.75 0.69 0.52 0.56 0.79 1.06 1.54 1.96 2.41 2.41 1.84 1.41 1.18 1.07 0.95 0.83 0.72 0.61 0.52
0.15 0.15 0.17 0.24 0.18 0.22 0.33 0.52 0.73 0.89 0.77 0.71 0.75 0.86 0.89 0.77 0.60 0.59 0.77 0.86 0.71 0.50 0.52 0.74 0.98 1.25 1.61 1.97 2.01 1.74 1.42 1.23 1.08 0.94 0.80 0.68 0.60 0.56
0.18 0.19 0.19 0.21 0.21 0.32 0.45 0.68 0.91 1.02 0.88 0.81 0.91 1.04 0.99 0.90 0.80 0.81 0.90 0.87 0.75 0.65 0.57 0.69 0.84 0.99 1.38 1.59 1.51 1.38 1.34 1.31 1.17 1.04 0.88 0.70 0.55 0.51
0.22 0.28 0.30 0.28 0.27 0.39 0.57 0.76 0.99 1.03 0.94 0.89 0.88 0.89 0.89 0.89 0.85 0.85 0.81 0.76 0.72 0.72 0.63 0.71 0.87 0.98 1.19 1.37 1.37 1.30 1.19 1.19 1.18 1.23 1.16 0.91 0.64 0.52
0.31 0.36 0.35 0.33 0.35 0.53 0.68 0.88 1.11 1.21 1.05 0.88 0.75 0.70 0.69 0.72 0.71 0.63 0.57 0.56 0.60 0.63 0.61 0.68 0.91 1.06 1.05 1.05 1.23 1.23 1.18 1.21 1.18 1.21 1.24 1.12 0.90 0.77
0.30 0.41 0.41 0.38 0.55 0.85 1.00 1.11 1.29 1.33 1.11 0.83 0.70 0.64 0.58 0.55 0.54 0.53 0.50 0.47 0.45 0.45 0.43 0.52 0.75 0.91 0.93 0.93 1.05 1.08 1.20 1.41 1.34 1.32 1.24 1.13 1.02 0.89
0.25 0.41 0.53 0.59 0.76 1.04 1.24 1.34 1.39 1.29 1.04 0.83 0.70 0.62 0.54 0.50 0.51 0.48 0.47 0.43 0.45 0.51 0.48 0.49 0.61 0.73 0.85 0.85 0.90 1.00 1.12 1.53 1.58 1.37 1.25 1.22 1.12 0.99
0.23 0.38 0.57 0.68 0.88 1.08 1.20 1.23 1.18 1.09 0.99 0.82 0.70 0.63 0.58 0.54 0.53 0.47 0.44 0.39 0.43 0.49 0.52 0.53 0.58 0.61 0.66 0.71 0.83 0.96 1.11 1.35 1.42 1.21 1.05 1.17 1.23 1.09
0.29 0.48 0.64 0.75 0.90 1.02 1.08 1.06 0.98 0.90 0.82 0.73 0.67 0.61 0.58 0.54 0.52 0.45 0.39 0.38 0.43 0.44 0.44 0.43 0.41 0.41 0.48 0.65 0.87 0.94 0.97 1.13 1.16 0.99 0.80 0.88 1.15 1.14
0.35 0.54 0.70 0.82 0.92 0.96 0.96 0.92 0.87 0.81 0.71 0.64 0.60 0.56 0.50 0.47 0.44 0.39 0.34 0.35 0.36 0.34 0.32 0.29 0.25 0.21 0.30 0.66 0.95 1.01 0.91 0.90 0.88 0.83 0.75 0.74 0.96 1.10
0.41 0.56 0.68 0.74 0.81 0.85 0.82 0.81 0.77 0.69 0.61 0.57 0.56 0.53 0.45 0.40 0.36 0.34 0.31 0.28 0.27 0.24 0.22 0.21 0.20 0.20 0.26 0.49 0.88 1.08 0.93 0.70 0.60 0.62 0.66 0.70 0.84 0.91
0.42 0.52 0.59 0.63 0.67 0.70 0.68 0.65 0.63 0.59 0.52 0.48 0.48 0.48 0.45 0.39 0.33 0.26 0.22 0.17 0.18 0.19 0.21 0.25 0.25 0.19 0.17 0.23 0.50 0.77 0.81 0.74 0.56 0.47 0.46 0.50 0.53 0.49
0.40 0.47 0.50 0.50 0.50 0.52 0.50 0.45 0.45 0.45 0.42 0.41 0.41 0.40 0.39 0.32 0.26 0.21 0.18 0.15 0.15 0.14 0.15 0.18 0.16 0.13 0.13 0.18 0.34 0.52 0.58 0.52 0.46 0.42 0.41 0.36 0.31 0.39
0.35 0.38 0.41 0.41 0.37 0.35 0.35 0.34 0.35 0.36 0.35 0.36 0.35 0.34 0.31 0.26 0.20 0.15 0.12 0.10 0.09 0.08 0.09 0.11 0.11 0.09 0.10 0.13 0.19 0.27 0.30 0.28 0.25 0.28 0.40 0.46 0.42 0.49

GEFSNE_prec_meanprecacc_132.txt.gz
Total_Precipitation_Accumulation
0.72 0.71 0.74 0.78 0.80 0.79 0.79 0.82 0.92 0.92 0.80 0.64 0.56 0.58 0.62 0.63 0.69 0.59 0.52 0.44 0.38 0.34 0.33 0.34 0.35 0.36 0.39 0.42 0.42 0.42 0.39 0.39 0.43 0.53 0.66 0.79 0.90 0.99
0.61 0.60 0.59 0.59 0.67 0.76 0.82 0.83 0.86 0.92 0.92 0.74 0.62 0.61 0.64 0.63 0.72 0.63 0.58 0.57 0.45 0.37 0.34 0.45 0.51 0.49 0.49 0.47 0.45 0.47 0.48 0.49 0.49 0.53 0.62 0.73 0.86 0.98
0.50 0.49 0.50 0.53 0.58 0.61 0.68 0.76 0.84 0.90 0.97 0.80 0.62 0.58 0.62 0.66 0.69 0.63 0.56 0.53 0.46 0.42 0.35 0.42 0.66 0.84 0.76 0.64 0.56 0.51 0.50 0.52 0.53 0.56 0.65 0.73 0.80 0.88
0.40 0.41 0.39 0.40 0.44 0.49 0.56 0.60 0.66 0.74 0.83 0.77 0.61 0.56 0.60 0.67 0.74 0.74 0.64 0.55 0.51 0.54 0.47 0.42 0.57 0.97 1.07 0.84 0.73 0.63 0.54 0.52 0.52 0.56 0.62 0.66 0.69 0.76
0.33 0.35 0.35 0.38 0.41 0.44 0.51 0.54 0.58 0.61 0.73 0.79 0.68 0.61 0.62 0.69 0.81 0.79 0.66 0.64 0.48 0.46 0.47 0.49 0.61 1.12 1.47 1.24 0.96 0.84 0.68 0.58 0.53 0.55 0.61 0.63 0.61 0.60
0.26 0.28 0.30 0.35 0.40 0.44 0.46 0.50 0.58 0.65 0.69 0.74 0.71 0.69 0.71 0.74 0.85 0.90 0.76 0.66 0.53 0.37 0.43 0.50 0.65 1.12 1.66 1.84 1.47 1.20 0.96 0.77 0.64 0.56 0.54 0.53 0.49 0.44
0.25 0.25 0.25 0.30 0.37 0.41 0.44 0.53 0.64 0.74 0.73 0.74 0.73 0.75 0.78 0.86 0.88 0.85 0.80 0.67 0.51 0.41 0.45 0.48 0.73 1.38 1.93 2.22 2.07 1.55 1.14 0.91 0.74 0.62 0.56 0.50 0.44 0.38
0.31 0.29 0.22 0.22 0.24 0.29 0.36 0.44 0.54 0.66 0.75 0.80 0.81 0.79 0.77 0.83 0.85 0.83 0.83 0.79 0.64 0.44 0.46 0.54 0.87 1.68 2.26 2.51 2.39 1.73 1.18 0.96 0.84 0.75 0.68 0.60 0.52 0.44
0.34 0.32 0.24 0.19 0.23 0.28 0.31 0.33 0.41 0.52 0.70 0.84 0.89 0.78 0.80 0.88 0.94 0.93 0.84 0.83 0.79 0.54 0.55 0.70 1.04 1.65 2.17 2.59 2.50 1.85 1.35 1.09 0.98 0.89 0.81 0.71 0.59 0.48
0.27 0.26 0.30 0.30 0.25 0.23 0.27 0.38 0.53 0.62 0.65 0.66 0.79 0.79 0.81 0.80 0.77 0.78 0.75 0.80 0.74 0.56 0.59 0.82 1.08 1.55 1.97 2.41 2.41 1.84 1.41 1.18 1.07 0.95 0.83 0.72 0.61 0.52
0.23 0.20 0.21 0.27 0.22 0.26 0.39 0.59 0.78 0.92 0.79 0.73 0.76 0.87 0.90 0.78 0.62 0.63 0.82 0.92 0.77 0.54 0.55 0.76 1.00 1.27 1.63 1.98 2.01 1.74 1.42 1.23 1.08 0.94 0.80 0.68 0.60 0.56
0.26 0.24 0.23 0.24 0.24 0.35 0.50 0.75 0.96 1.06 0.90 0.83 0.93 1.05 1.00 0.91 0.81 0.84 0.96 0.93 0.80 0.71 0.60 0.71 0.88 1.03 1.42 1.61 1.52 1.39 1.34 1.31 1.17 1.04 0.88 0.70 0.55 0.51
0.28 0.32 0.33 0.31 0.30 0.41 0.59 0.79 1.01 1.05 0.99 0.95 0.93 0.94 0.92 0.92 0.86 0.87 0.84 0.80 0.77 0.77 0.65 0.73 0.91 1.02 1.24 1.41 1.38 1.31 1.20 1.20 1.19 1.23 1.16 0.91 0.64 0.52
0.37 0.39 0.37 0.35 0.37 0.54 0.68 0.88 1.11 1.22 1.09 0.93 0.81 0.75 0.73 0.76 0.74 0.66 0.60 0.58 0.63 0.66 0.63 0.70 0.94 1.11 1.10 1.11 1.27 1.24 1.20 1.22 1.19 1.22 1.25 1.12 0.90 0.77
0.33 0.43 0.42 0.39 0.56 0.85 1.01 1.12 1.30 1.36 1.15 0.87 0.75 0.68 0.61 0.59 0.57 0.56 0.52 0.48 0.47 0.46 0.44 0.54 0.78 0.93 0.96 0.97 1.09 1.10 1.22 1.42 1.35 1.33 1.25 1.14 1.03 0.89
0.27 0.42 0.53 0.59 0.77 1.05 1.25 1.35 1.41 1.31 1.06 0.86 0.73 0.65 0.56 0.52 0.53 0.50 0.48 0.45 0.47 0.53 0.49 0.50 0.62 0.75 0.88 0.88 0.93 1.02 1.13 1.54 1.59 1.38 1.26 1.23 1.13 1.00
0.24 0.40 0.58 0.69 0.89 1.10 1.22 1.24 1.20 1.11 1.01 0.84 0.71 0.64 0.59 0.55 0.53 0.48 0.45 0.40 0.44 0.51 0.53 0.54 0.59 0.62 0.67 0.72 0.85 0.98 1.12 1.35 1.43 1.22 1.06 1.17 1.23 1.09
0.30 0.50 0.66 0.76 0.91 1.03 1.10 1.07 0.99 0.91 0.83 0.74 0.68 0.62 0.58 0.55 0.53 0.45 0.39 0.38 0.44 0.45 0.44 0.43 0.41 0.41 0.49 0.66 0.87 0.94 0.97 1.14 1.16 1.00 0.80 0.89 1.15 1.15
0.36 0.56 0.71 0.83 0.92 0.96 0.97 0.93 0.87 0.82 0.72 0.64 0.61 0.57 0.50 0.47 0.45 0.40 0.34 0.35 0.36 0.35 0.32 0.29 0.25 0.21 0.32 0.68 0.96 1.01 0.91 0.90 0.88 0.83 0.76 0.74 0.97 1.10
0.42 0.57 0.68 0.74 0.81 0.85 0.83 0.81 0.77 0.69 0.61 0.57 0.57 0.54 0.45 0.40 0.37 0.34 0.31 0.28 0.27 0.25 0.22 0.21 0.20 0.20 0.26 0.49 0.88 1.08 0.93 0.70 0.60 0.63 0.66 0.70 0.84 0.91
0.43 0.53 0.60 0.64 0.67 0.70 0.68 0.65 0.63 0.59 0.52 0.48 0.48 0.49 0.46 0.39 0.33 0.26 0.22 0.17 0.18 0.19 0.21 0.25 0.25 0.19 0.18 0.23 0.50 0.77 0.81 0.74 0.56 0.47 0.46 0.50 0.53 0.50
0.40 0.48 0.51 0.50 0.51 0.52 0.50 0.45 0.45 0.45 0.43 0.42 0.42 0.41 0.39 0.33 0.26 0.21 0.18 0.15 0.15 0.14 0.15 0.18 0.16 0.13 0.13 0.18 0.35 0.52 0.58 0.52 0.46 0.42 0.41 0.36 0.31 0.39
0.35 0.38 0.41 0.42 0.37 0.35 0.35 0.34 0.35 0.36 0.36 0.37 0.35 0.34 0.31 0.26 0.20 0.15 0.12 0.10 0.09 0.08 0.09 0.11 0.11 0.09 0.10 0.13 0.19 0.27 0.30 0.28 0.25 0.28 0.40 0.46 0.42 0.49

GEFSNE_prec_meanprecacc_138.txt.gz
Total_Precipitation_Accumulation
0.76 0.77 0.82 0.87 0.89 0.88 0.89 0.93 1.02 1.03 0.90 0.74 0.67 0.69 0.73 0.74 0.82 0.70 0.62 0.55 0.46 0.41 0.40 0.41 0.41 0.41 0.44 0.46 0.45 0.44 0.40 0.40 0.45 0.54 0.67 0.81 0.91 1.00
0.63 0.63 0.64 0.66 0.76 0.84 0.92 0.94 0.97 1.03 1.03 0.85 0.72 0.71 0.74 0.73 0.83 0.71 0.66 0.67 0.54 0.44 0.41 0.51 0.57 0.54 0.54 0.51 0.49 0.49 0.50 0.50 0.50 0.54 0.63 0.74 0.86 0.98
0.52 0.51 0.54 0.57 0.62 0.67 0.75 0.84 0.93 1.01 1.10 0.94 0.75 0.70 0.73 0.76 0.79 0.69 0.62 0.58 0.53 0.51 0.42 0.48 0.73 0.90 0.81 0.68 0.60 0.54 0.53 0.54 0.54 0.57 0.65 0.74 0.80 0.88
0.42 0.42 0.41 0.42 0.48 0.53 0.61 0.66 0.72 0.81 0.94 0.90 0.72 0.67 0.70 0.76 0.83 0.81 0.69 0.60 0.56 0.62 0.54 0.49 0.64 1.03 1.12 0.89 0.78 0.67 0.56 0.54 0.53 0.57 0.62 0.66 0.69 0.76
0.34 0.36 0.37 0.40 0.44 0.49 0.56 0.60 0.64 0.69 0.83 0.89 0.78 0.70 0.71 0.77 0.87 0.84 0.70 0.68 0.52 0.51 0.54 0.57 0.68 1.19 1.53 1.29 1.00 0.87 0.69 0.59 0.53 0.55 0.61 0.63 0.61 0.60
0.27 0.29 0.31 0.37 0.43 0.48 0.51 0.55 0.63 0.72 0.77 0.83 0.81 0.79 0.80 0.81 0.89 0.94 0.80 0.70 0.56 0.40 0.48 0.56 0.72 1.17 1.70 1.87 1.50 1.22 0.98 0.78 0.64 0.56 0.55 0.54 0.49 0.44
0.27 0.27 0.26 0.32 0.40 0.44 0.47 0.57 0.69 0.79 0.80 0.83 0.83 0.84 0.85 0.92 0.92 0.88 0.82 0.70 0.55 0.44 0.48 0.52 0.76 1.41 1.96 2.25 2.09 1.57 1.16 0.92 0.74 0.62 0.56 0.50 0.45 0.39
0.34 0.31 0.25 0.24 0.28 0.33 0.41 0.49 0.58 0.71 0.81 0.87 0.88 0.85 0.83 0.87 0.88 0.86 0.86 0.83 0.68 0.48 0.49 0.56 0.89 1.69 2.27 2.53 2.42 1.74 1.19 0.96 0.85 0.75 0.68 0.60 0.52 0.44
0.37 0.35 0.28 0.23 0.28 0.33 0.35 0.38 0.46 0.58 0.75 0.88 0.92 0.82 0.84 0.91 0.97 0.96 0.86 0.86 0.82 0.57 0.57 0.72 1.05 1.66 2.18 2.60 2.51 1.86 1.36 1.09 0.98 0.89 0.81 0.71 0.59 0.48
0.30 0.30 0.35 0.39 0.32 0.29 0.31 0.43 0.58 0.67 0.69 0.69 0.81 0.82 0.83 0.82 0.79 0.80 0.78 0.83 0.77 0.58 0.61 0.84 1.09 1.56 1.98 2.42 2.42 1.85 1.41 1.19 1.07 0.95 0.83 0.72 0.61 0.52
0.26 0.25 0.28 0.36 0.31 0.34 0.44 0.63 0.83 0.98 0.84 0.76 0.79 0.89 0.91 0.80 0.64 0.64 0.84 0.94 0.79 0.56 0.57 0.78 1.01 1.28 1.63 1.99 2.01 1.74 1.42 1.23 1.08 0.94 0.80 0.68 0.60 0.56
0.31 0.30 0.31 0.33 0.33 0.44 0.55 0.78 0.99 1.10 0.93 0.85 0.94 1.06 1.01 0.92 0.83 0.85 0.97 0.94 0.81 0.72 0.61 0.72 0.88 1.03 1.42 1.62 1.52 1.39 1.34 1.31 1.18 1.04 0.88 0.70 0.55 0.51
0.33 0.38 0.40 0.40 0.38 0.48 0.65 0.82 1.03 1.07 1.00 0.96 0.93 0.94 0.93 0.92 0.87 0.88 0.85 0.80 0.78 0.77 0.66 0.74 0.92 1.03 1.25 1.41 1.38 1.31 1.20 1.20 1.19 1.23 1.17 0.91 0.64 0.52
0.42 0.45 0.44 0.42 0.44 0.60 0.73 0.91 1.14 1.24 1.10 0.94 0.81 0.76 0.74 0.77 0.75 0.66 0.60 0.58 0.63 0.66 0.63 0.71 0.95 1.11 1.10 1.11 1.27 1.24 1.20 1.22 1.19 1.22 1.26 1.12 0.90 0.77
0.38 0.49 0.49 0.44 0.60 0.88 1.03 1.14 1.31 1.37 1.15 0.88 0.75 0.68 0.62 0.59 0.57 0.57 0.52 0.49 0.47 0.46 0.44 0.54 0.78 0.93 0.96 0.98 1.09 1.10 1.22 1.42 1.35 1.33 1.25 1.14 1.03 0.89
0.30 0.45 0.57 0.62 0.78 1.07 1.27 1.37 1.42 1.32 1.07 0.86 0.73 0.65 0.56 0.52 0.53 0.50 0.49 0.45 0.47 0.53 0.49 0.50 0.62 0.75 0.88 0.88 0.93 1.02 1.13 1.54 1.59 1.38 1.26 1.23 1.13 1.00
0.26 0.41 0.60 0.71 0.91 1.12 1.24 1.26 1.21 1.11 1.01 0.84 0.71 0.64 0.60 0.55 0.54 0.48 0.45 0.40 0.45 0.51 0.53 0.54 0.59 0.62 0.68 0.72 0.85 0.98 1.12 1.36 1.43 1.22 1.06 1.17 1.23 1.09
0.31 0.50 0.67 0.77 0.92 1.04 1.11 1.09 1.01 0.92 0.83 0.74 0.68 0.62 0.58 0.55 0.53 0.45 0.39 0.38 0.44 0.45 0.44 0.44 0.41 0.41 0.49 0.66 0.87 0.94 0.97 1.14 1.16 1.00 0.80 0.89 1.15 1.15
0.36 0.56 0.72 0.84 0.93 0.97 0.97 0.93 0.88 0.82 0.72 0.65 0.61 0.57 0.51 0.47 0.45 0.40 0.35 0.35 0.36 0.35 0.33 0.30 0.25 0.21 0.32 0.68 0.96 1.01 0.91 0.90 0.88 0.83 0.76 0.74 0.97 1.10
0.42 0.57 0.69 0.75 0.81 0.85 0.83 0.82 0.78 0.70 0.62 0.58 0.57 0.54 0.46 0.40 0.37 0.34 0.31 0.28 0.27 0.25 0.22 0.21 0.20 0.20 0.26 0.49 0.88 1.08 0.93 0.70 0.60 0.63 0.66 0.70 0.84 0.91
0.43 0.53 0.60 0.64 0.68 0.71 0.69 0.65 0.63 0.60 0.53 0.48 0.49 0.49 0.46 0.39 0.33 0.26 0.22 0.17 0.18 0.19 0.21 0.25 0.25 0.20 0.18 0.23 0.50 0.77 0.81 0.74 0.56 0.47 0.46 0.50 0.53 0.50
0.40 0.48 0.51 0.50 0.51 0.53 0.50 0.45 0.45 0.45 0.43 0.42 0.42 0.41 0.39 0.33 0.26 0.21 0.18 0.15 0.15 0.14 0.15 0.18 0.17 0.13 0.13 0.18 0.35 0.52 0.58 0.52 0.46 0.42 0.41 0.36 0.31 0.39
0.35 0.38 0.41 0.42 0.37 0.35 0.35 0.34 0.35 0.36 0.36 0.37 0.35 0.34 0.31 0.26 0.20 0.15 0.12 0.10 0.09 0.08 0.09 0.11 0.11 0.10 0.10 0.13 0.19 0.27 0.30 0.28 0.25 0.28 0.40 0.46 0.42 0.49

GEFSNE_prec_meanprecacc_144.txt.gz
Total_Precipitation_Accumulation
0.79 0.82 0.88 0.92 0.93 0.91 0.92 0.97 1.07 1.09 0.96 0.80 0.75 0.79 0.82 0.83 0.93 0.79 0.73 0.68 0.58 0.51 0.50 0.52 0.51 0.51 0.53 0.54 0.53 0.52 0.50 0.48 0.51 0.59 0.72 0.85 0.95 1.02
0.65 0.65 0.68 0.73 0.86 0.94 0.99 1.01 1.05 1.10 1.10 0.91 0.79 0.80 0.83 0.83 0.94 0.80 0.75 0.79 0.65 0.55 0.49 0.58 0.64 0.62 0.62 0.60 0.58 0.58 0.59 0.58 0.58 0.61 0.68 0.78 0.89 1.00
0.53 0.53 0.56 0.61 0.69 0.75 0.84 0.92 1.02 1.12 1.22 1.05 0.85 0.80 0.84 0.85 0.88 0.77 0.70 0.66 0.61 0.60 0.50 0.56 0.79 0.97 0.88 0.77 0.69 0.64 0.62 0.63 0.63 0.65 0.71 0.79 0.84 0.90
0.43 0.43 0.42 0.45 0.52 0.57 0.67 0.74 0.80 0.89 1.05 1.04 0.87 0.80 0.81 0.86 0.91 0.88 0.76 0.65 0.61 0.69 0.62 0.57 0.70 1.09 1.18 0.95 0.85 0.74 0.65 0.62 0.61 0.63 0.68 0.71 0.72 0.78
0.35 0.37 0.38 0.42 0.47 0.53 0.61 0.64 0.69 0.76 0.91 0.99 0.91 0.84 0.83 0.87 0.96 0.91 0.76 0.72 0.55 0.55 0.59 0.63 0.74 1.25 1.59 1.35 1.06 0.94 0.77 0.67 0.60 0.60 0.64 0.66 0.63 0.61
0.28 0.29 0.32 0.38 0.44 0.50 0.55 0.60 0.69 0.78 0.85 0.93 0.93 0.91 0.91 0.91 0.97 1.01 0.85 0.73 0.59 0.43 0.51 0.60 0.78 1.24 1.78 1.94 1.57 1.28 1.04 0.84 0.69 0.59 0.57 0.55 0.50 0.44
0.27 0.27 0.27 0.33 0.41 0.45 0.50 0.61 0.74 0.84 0.85 0.89 0.92 0.94 0.95 1.00 0.98 0.93 0.87 0.73 0.59 0.48 0.52 0.55 0.80 1.45 2.01 2.29 2.13 1.60 1.19 0.95 0.77 0.65 0.58 0.51 0.45 0.39
0.34 0.32 0.26 0.25 0.28 0.34 0.42 0.51 0.62 0.75 0.85 0.91 0.93 0.91 0.88 0.92 0.93 0.90 0.90 0.86 0.73 0.51 0.51 0.59 0.92 1.72 2.30 2.56 2.46 1.78 1.22 0.99 0.86 0.76 0.69 0.61 0.52 0.44
0.38 0.36 0.30 0.25 0.29 0.35 0.37 0.41 0.49 0.62 0.80 0.93 0.97 0.86 0.89 0.96 1.00 1.00 0.90 0.90 0.86 0.60 0.59 0.74 1.08 1.68 2.19 2.63 2.55 1.90 1.38 1.11 0.99 0.89 0.81 0.71 0.59 0.49
0.31 0.31 0.37 0.42 0.35 0.32 0.35 0.47 0.62 0.71 0.72 0.73 0.85 0.86 0.88 0.86 0.83 0.84 0.82 0.88 0.81 0.61 0.63 0.85 1.11 1.57 1.99 2.43 2.43 1.86 1.43 1.20 1.07 0.96 0.83 0.72 0.61 0.52
0.27 0.26 0.30 0.38 0.36 0.39 0.49 0.68 0.87 1.01 0.88 0.82 0.85 0.95 0.97 0.85 0.68 0.67 0.86 0.97 0.83 0.60 0.59 0.80 1.03 1.29 1.64 2.00 2.02 1.74 1.43 1.24 1.09 0.94 0.80 0.68 0.60 0.56
0.33 0.32 0.34 0.37 0.38 0.49 0.60 0.82 1.04 1.14 0.97 0.90 0.99 1.12 1.07 0.97 0.88 0.88 0.98 0.95 0.82 0.73 0.62 0.73 0.89 1.04 1.43 1.62 1.53 1.39 1.34 1.32 1.18 1.05 0.88 0.70 0.55 0.51
0.36 0.41 0.43 0.44 0.42 0.54 0.71 0.87 1.08 1.11 1.03 0.99 0.97 0.98 0.97 0.97 0.90 0.89 0.86 0.81 0.78 0.78 0.66 0.75 0.92 1.03 1.25 1.42 1.39 1.31 1.20 1.20 1.19 1.23 1.17 0.91 0.64 0.52
0.44 0.47 0.48 0.47 0.49 0.65 0.79 0.98 1.19 1.28 1.13 0.97 0.84 0.78 0.76 0.79 0.76 0.67 0.60 0.58 0.63 0.66 0.63 0.71 0.95 1.12 1.10 1.11 1.27 1.24 1.20 1.22 1.19 1.22 1.26 1.12 0.90 0.77
0.40 0.53 0.54 0.50 0.65 0.94 1.10 1.20 1.37 1.41 1.18 0.91 0.78 0.70 0.63 0.60 0.58 0.57 0.52 0.49 0.47 0.46 0.44 0.54 0.78 0.94 0.97 0.98 1.09 1.10 1.22 1.42 1.35 1.33 1.25 1.14 1.03 0.89
0.33 0.50 0.64 0.68 0.84 1.12 1.33 1.42 1.47 1.36 1.09 0.88 0.74 0.66 0.57 0.53 0.53 0.50 0.49 0.45 0.47 0.53 0.49 0.50 0.62 0.75 0.88 0.88 0.93 1.02 1.13 1.54 1.59 1.38 1.26 1.23 1.13 1.00
0.30 0.46 0.65 0.75 0.94 1.15 1.28 1.29 1.24 1.14 1.03 0.85 0.72 0.64 0.60 0.55 0.54 0.48 0.45 0.40 0.45 0.51 0.53 0.54 0.59 0.62 0.68 0.72 0.85 0.98 1.12 1.36 1.43 1.22 1.06 1.17 1.23 1.09
0.33 0.53 0.70 0.80 0.94 1.07 1.13 1.10 1.02 0.93 0.84 0.75 0.68 0.62 0.58 0.55 0.53 0.45 0.39 0.38 0.44 0.45 0.44 0.44 0.41 0.41 0.49 0.66 0.87 0.94 0.97 1.14 1.16 1.00 0.80 0.89 1.15 1.15
0.38 0.58 0.74 0.85 0.95 0.98 0.98 0.94 0.88 0.82 0.72 0.65 0.61 0.57 0.51 0.47 0.45 0.40 0.35 0.35 0.36 0.35 0.33 0.30 0.25 0.21 0.32 0.68 0.96 1.01 0.91 0.90 0.88 0.83 0.76 0.74 0.97 1.10
0.43 0.58 0.70 0.75 0.82 0.86 0.84 0.82 0.78 0.70 0.62 0.58 0.57 0.54 0.46 0.40 0.37 0.34 0.31 0.28 0.27 0.25 0.22 0.21 0.20 0.20 0.26 0.49 0.89 1.08 0.93 0.70 0.60 0.63 0.66 0.70 0.84 0.91
0.44 0.53 0.61 0.64 0.68 0.71 0.69 0.65 0.63 0.60 0.53 0.48 0.49 0.49 0.46 0.39 0.33 0.26 0.22 0.17 0.18 0.19 0.21 0.25 0.25 0.20 0.18 0.23 0.50 0.77 0.81 0.74 0.56 0.47 0.46 0.50 0.53 0.50
0.41 0.49 0.51 0.51 0.51 0.53 0.50 0.45 0.45 0.45 0.43 0.42 0.42 0.41 0.39 0.33 0.26 0.22 0.18 0.16 0.15 0.14 0.15 0.18 0.17 0.13 0.13 0.18 0.35 0.52 0.58 0.52 0.46 0.43 0.41 0.36 0.31 0.39
0.35 0.38 0.41 0.42 0.37 0.35 0.35 0.34 0.35 0.36 0.36 0.37 0.35 0.34 0.31 0.26 0.20 0.15 0.12 0.10 0.09 0.08 0.09 0.12 0.11 0.10 0.10 0.13 0.20 0.27 0.30 0.28 0.25 0.28 0.40 0.46 0.43 0.49

GEFSNE_prec_meanprecacc_150.txt.gz
Total_Precipitation_Accumulation
0.80 0.83 0.89 0.94 0.96 0.94 0.96 1.02 1.14 1.16 1.02 0.85 0.79 0.84 0.90 0.94 1.09 0.94 0.89 0.89 0.78 0.71 0.70 0.72 0.70 0.68 0.67 0.67 0.65 0.62 0.60 0.59 0.62 0.71 0.83 0.95 1.05 1.12
0.66 0.67 0.70 0.76 0.89 0.98 1.03 1.05 1.10 1.17 1.16 0.96 0.84 0.85 0.91 0.93 1.08 0.92 0.90 0.97 0.82 0.70 0.65 0.74 0.78 0.74 0.73 0.70 0.67 0.66 0.65 0.65 0.65 0.69 0.77 0.88 0.99 1.09
0.54 0.54 0.59 0.63 0.71 0.78 0.88 0.97 1.09 1.19 1.29 1.13 0.92 0.88 0.92 0.95 0.98 0.88 0.81 0.77 0.72 0.71 0.60 0.65 0.88 1.04 0.94 0.82 0.75 0.70 0.68 0.69 0.69 0.72 0.79 0.87 0.93 0.99
0.43 0.45 0.44 0.46 0.54 0.60 0.70 0.78 0.86 0.96 1.11 1.12 0.96 0.89 0.91 0.96 1.01 0.98 0.85 0.73 0.68 0.76 0.67 0.62 0.76 1.14 1.22 0.98 0.89 0.80 0.70 0.68 0.67 0.71 0.76 0.79 0.80 0.86
0.36 0.38 0.40 0.44 0.50 0.56 0.63 0.67 0.75 0.82 0.97 1.05 0.98 0.92 0.93 0.98 1.06 1.00 0.83 0.79 0.61 0.59 0.62 0.66 0.78 1.29 1.63 1.39 1.10 0.99 0.83 0.73 0.65 0.66 0.71 0.73 0.70 0.67
0.29 0.30 0.33 0.40 0.47 0.53 0.57 0.63 0.73 0.83 0.91 1.00 1.01 1.00 1.00 1.01 1.06 1.09 0.93 0.80 0.64 0.46 0.54 0.63 0.80 1.27 1.82 1.98 1.60 1.32 1.09 0.90 0.77 0.68 0.64 0.61 0.55 0.49
0.28 0.28 0.27 0.33 0.42 0.46 0.51 0.63 0.77 0.88 0.90 0.96 0.99 1.01 1.03 1.08 1.06 1.00 0.93 0.79 0.63 0.51 0.54 0.57 0.82 1.48 2.05 2.34 2.18 1.64 1.23 1.00 0.83 0.71 0.64 0.57 0.50 0.42
0.35 0.33 0.26 0.25 0.29 0.35 0.43 0.53 0.65 0.79 0.90 0.97 0.99 0.97 0.96 0.99 0.99 0.97 0.96 0.92 0.79 0.56 0.54 0.62 0.94 1.75 2.33 2.60 2.50 1.82 1.26 1.03 0.90 0.80 0.73 0.64 0.55 0.46
0.38 0.36 0.30 0.26 0.31 0.36 0.39 0.42 0.51 0.64 0.83 0.98 1.03 0.93 0.96 1.03 1.07 1.07 0.98 0.98 0.92 0.64 0.63 0.79 1.11 1.72 2.22 2.65 2.58 1.93 1.42 1.14 1.02 0.92 0.83 0.73 0.61 0.49
0.31 0.32 0.38 0.42 0.36 0.34 0.36 0.49 0.64 0.73 0.75 0.77 0.91 0.91 0.93 0.93 0.89 0.91 0.88 0.93 0.85 0.64 0.66 0.92 1.18 1.62 2.02 2.46 2.47 1.90 1.46 1.22 1.09 0.98 0.85 0.73 0.63 0.53
0.28 0.27 0.31 0.39 0.36 0.40 0.52 0.71 0.91 1.05 0.92 0.86 0.90 1.01 1.04 0.91 0.74 0.73 0.92 1.02 0.88 0.65 0.62 0.86 1.10 1.34 1.67 2.03 2.06 1.78 1.45 1.26 1.10 0.95 0.81 0.69 0.61 0.57
0.35 0.33 0.36 0.38 0.39 0.51 0.63 0.87 1.09 1.20 1.02 0.95 1.05 1.18 1.12 1.04 0.95 0.94 1.06 1.03 0.89 0.80 0.67 0.78 0.94 1.07 1.46 1.65 1.55 1.42 1.36 1.33 1.19 1.05 0.89 0.71 0.55 0.51
0.38 0.43 0.45 0.46 0.44 0.56 0.74 0.91 1.12 1.16 1.10 1.06 1.04 1.03 1.02 1.02 0.95 0.94 0.92 0.88 0.86 0.84 0.69 0.78 0.96 1.05 1.26 1.44 1.41 1.33 1.22 1.21 1.20 1.24 1.17 0.91 0.64 0.52
0.46 0.50 0.50 0.49 0.51 0.67 0.82 1.02 1.23 1.32 1.18 1.03 0.89 0.82 0.80 0.84 0.81 0.70 0.63 0.61 0.65 0.69 0.65 0.73 0.98 1.13 1.12 1.12 1.28 1.25 1.21 1.22 1.20 1.22 1.26 1.12 0.91 0.77
0.42 0.55 0.57 0.52 0.68 0.96 1.13 1.24 1.41 1.46 1.24 0.96 0.83 0.74 0.67 0.63 0.61 0.59 0.54 0.50 0.48 0.47 0.45 0.55 0.79 0.95 0.98 0.99 1.10 1.11 1.22 1.42 1.35 1.33 1.26 1.15 1.03 0.90
0.34 0.53 0.66 0.71 0.87 1.15 1.36 1.46 1.51 1.40 1.14 0.91 0.77 0.69 0.60 0.55 0.56 0.52 0.51 0.47 0.48 0.54 0.49 0.50 0.62 0.76 0.89 0.88 0.94 1.03 1.14 1.54 1.59 1.38 1.26 1.24 1.14 1.01
0.32 0.49 0.68 0.78 0.97 1.19 1.32 1.33 1.27 1.17 1.06 0.88 0.74 0.66 0.62 0.59 0.56 0.49 0.47 0.42 0.45 0.51 0.54 0.54 0.59 0.62 0.68 0.73 0.86 0.98 1.12 1.36 1.43 1.22 1.07 1.18 1.24 1.10
0.37 0.57 0.74 0.83 0.97 1.09 1.16 1.13 1.05 0.96 0.86 0.77 0.71 0.63 0.59 0.56 0.54 0.47 0.40 0.39 0.45 0.46 0.45 0.44 0.42 0.42 0.49 0.66 0.87 0.94 0.98 1.14 1.17 1.00 0.81 0.90 1.16 1.15
0.40 0.61 0.77 0.88 0.97 1.01 1.01 0.96 0.90 0.84 0.73 0.66 0.62 0.57 0.51 0.47 0.45 0.40 0.36 0.36 0.37 0.36 0.33 0.30 0.26 0.22 0.32 0.68 0.96 1.01 0.91 0.91 0.89 0.84 0.77 0.75 0.98 1.11
0.45 0.61 0.73 0.78 0.84 0.88 0.85 0.83 0.78 0.71 0.62 0.58 0.58 0.54 0.46 0.40 0.37 0.34 0.32 0.29 0.28 0.26 0.23 0.21 0.20 0.21 0.27 0.50 0.89 1.08 0.93 0.71 0.61 0.64 0.67 0.72 0.85 0.92
0.46 0.55 0.62 0.66 0.69 0.72 0.69 0.66 0.64 0.60 0.53 0.49 0.49 0.49 0.46 0.39 0.33 0.26 0.22 0.17 0.18 0.20 0.22 0.26 0.25 0.20 0.18 0.23 0.51 0.77 0.81 0.74 0.57 0.48 0.47 0.51 0.55 0.51
0.41 0.49 0.52 0.51 0.51 0.53 0.50 0.45 0.45 0.45 0.43 0.42 0.42 0.41 0.39 0.33 0.26 0.22 0.18 0.16 0.15 0.15 0.17 0.19 0.17 0.13 0.13 0.19 0.36 0.53 0.59 0.53 0.46 0.43 0.42 0.37 0.33 0.41
0.36 0.38 0.41 0.42 0.38 0.35 0.35 0.34 0.35 0.36 0.36 0.37 0.35 0.34 0.31 0.26 0.20 0.15 0.12 0.10 0.09 0.08 0.10 0.13 0.12 0.10 0.11 0.13 0.20 0.28 0.31 0.29 0.26 0.28 0.41 0.47 0.43 0.50

GEFSNE_prec_meanprecacc_156.txt.gz
Total_Precipitation_Accumulation
0.82 0.85 0.91 0.96 0.99 0.98 1.01 1.08 1.20 1.21 1.07 0.90 0.85 0.88 0.94 0.99 1.13 0.99 0.94 0.94 0.83 0.77 0.77 0.80 0.81 0.82 0.84 0.84 0.83 0.82 0.78 0.75 0.77 0.86 0.98 1.09 1.18 1.24
0.68 0.69 0.72 0.78 0.92 1.01 1.07 1.10 1.16 1.22 1.21 1.00 0.89 0.90 0.95 0.97 1.13 0.96 0.94 1.02 0.85 0.73 0.69 0.79 0.85 0.83 0.82 0.80 0.77 0.77 0.77 0.77 0.77 0.80 0.88 0.98 1.10 1.20
0.56 0.57 0.62 0.67 0.75 0.82 0.91 1.01 1.14 1.25 1.34 1.18 0.98 0.93 0.96 0.99 1.04 0.92 0.85 0.81 0.75 0.74 0.63 0.69 0.92 1.08 0.98 0.86 0.79 0.75 0.74 0.75 0.75 0.78 0.85 0.93 0.99 1.08
0.45 0.48 0.48 0.49 0.57 0.64 0.73 0.82 0.91 1.02 1.17 1.18 1.01 0.94 0.95 1.01 1.07 1.04 0.90 0.76 0.70 0.79 0.70 0.65 0.79 1.17 1.24 1.00 0.90 0.81 0.73 0.70 0.70 0.74 0.80 0.83 0.85 0.93
0.37 0.40 0.43 0.47 0.53 0.59 0.67 0.71 0.79 0.86 1.01 1.10 1.02 0.96 0.98 1.03 1.11 1.06 0.89 0.84 0.64 0.62 0.65 0.69 0.81 1.32 1.65 1.41 1.11 1.00 0.84 0.74 0.68 0.69 0.75 0.77 0.75 0.73
0.30 0.32 0.35 0.41 0.48 0.56 0.61 0.67 0.77 0.87 0.95 1.05 1.06 1.04 1.05 1.06 1.11 1.14 0.97 0.83 0.66 0.48 0.56 0.65 0.83 1.29 1.84 2.00 1.61 1.33 1.10 0.91 0.79 0.72 0.69 0.67 0.62 0.55
0.29 0.30 0.28 0.34 0.42 0.47 0.54 0.67 0.81 0.92 0.95 1.01 1.05 1.07 1.08 1.13 1.11 1.04 0.96 0.82 0.66 0.54 0.57 0.59 0.84 1.49 2.06 2.35 2.19 1.65 1.24 1.01 0.84 0.73 0.68 0.63 0.57 0.49
0.38 0.35 0.28 0.26 0.30 0.35 0.44 0.55 0.67 0.82 0.94 1.02 1.05 1.02 1.01 1.04 1.04 1.01 1.01 0.97 0.84 0.59 0.57 0.64 0.95 1.76 2.35 2.61 2.51 1.83 1.26 1.03 0.91 0.81 0.75 0.68 0.60 0.52
0.41 0.39 0.32 0.26 0.32 0.39 0.40 0.44 0.52 0.65 0.85 1.02 1.09 0.98 1.01 1.07 1.13 1.13 1.04 1.04 0.97 0.68 0.67 0.82 1.14 1.74 2.23 2.66 2.59 1.93 1.42 1.14 1.03 0.94 0.85 0.76 0.64 0.53
0.33 0.34 0.39 0.44 0.37 0.36 0.40 0.52 0.67 0.75 0.78 0.80 0.95 0.96 0.98 0.97 0.94 0.97 0.96 1.00 0.90 0.68 0.69 0.96 1.22 1.65 2.03 2.47 2.47 1.90 1.46 1.22 1.10 0.99 0.86 0.75 0.65 0.55
0.29 0.28 0.32 0.40 0.37 0.41 0.55 0.76 0.95 1.09 0.94 0.88 0.93 1.04 1.06 0.95 0.78 0.79 1.00 1.10 0.95 0.70 0.66 0.90 1.15 1.38 1.70 2.05 2.06 1.79 1.46 1.27 1.11 0.96 0.82 0.70 0.62 0.58
0.36 0.34 0.36 0.39 0.40 0.52 0.67 0.91 1.13 1.24 1.06 0.99 1.09 1.21 1.14 1.06 0.98 0.99 1.13 1.10 0.96 0.86 0.71 0.81 0.97 1.12 1.51 1.68 1.57 1.44 1.38 1.34 1.20 1.06 0.90 0.71 0.56 0.52
0.40 0.44 0.46 0.47 0.45 0.57 0.76 0.94 1.14 1.19 1.13 1.10 1.09 1.08 1.06 1.06 0.99 0.98 0.97 0.94 0.92 0.89 0.72 0.81 0.99 1.08 1.30 1.46 1.43 1.36 1.24 1.23 1.21 1.25 1.18 0.92 0.65 0.52
0.49 0.52 0.52 0.51 0.53 0.69 0.84 1.04 1.25 1.34 1.22 1.07 0.94 0.87 0.84 0.87 0.83 0.72 0.67 0.65 0.69 0.72 0.68 0.76 1.01 1.16 1.15 1.14 1.30 1.28 1.23 1.24 1.21 1.24 1.28 1.14 0.92 0.79
0.43 0.57 0.58 0.54 0.69 0.98 1.15 1.27 1.43 1.48 1.27 0.99 0.87 0.78 0.70 0.66 0.63 0.62 0.58 0.54 0.51 0.50 0.46 0.56 0.81 0.96 1.00 1.02 1.12 1.13 1.25 1.45 1.37 1.34 1.27 1.16 1.05 0.92
0.36 0.54 0.68 0.72 0.88 1.17 1.37 1.47 1.53 1.42 1.16 0.94 0.80 0.71 0.62 0.58 0.59 0.55 0.55 0.51 0.53 0.57 0.51 0.51 0.63 0.77 0.90 0.91 0.97 1.06 1.17 1.57 1.61 1.40 1.28 1.25 1.15 1.03
0.34 0.50 0.69 0.79 0.99 1.21 1.33 1.35 1.29 1.19 1.08 0.90 0.76 0.68 0.65 0.61 0.59 0.53 0.51 0.46 0.49 0.54 0.55 0.54 0.59 0.63 0.69 0.74 0.87 1.01 1.15 1.38 1.45 1.24 1.10 1.22 1.26 1.12
0.38 0.58 0.76 0.85 0.99 1.12 1.19 1.15 1.06 0.97 0.88 0.80 0.73 0.65 0.62 0.58 0.57 0.50 0.44 0.43 0.48 0.47 0.45 0.44 0.42 0.42 0.50 0.67 0.88 0.95 0.99 1.15 1.18 1.02 0.84 0.94 1.19 1.17
0.41 0.62 0.78 0.89 0.99 1.02 1.02 0.98 0.91 0.86 0.75 0.68 0.65 0.60 0.54 0.50 0.47 0.43 0.38 0.39 0.39 0.37 0.34 0.30 0.26 0.22 0.33 0.69 0.96 1.01 0.92 0.91 0.90 0.85 0.78 0.77 1.00 1.13
0.46 0.62 0.73 0.79 0.85 0.89 0.86 0.84 0.80 0.72 0.64 0.60 0.60 0.56 0.47 0.42 0.38 0.35 0.33 0.30 0.30 0.27 0.24 0.22 0.21 0.21 0.28 0.50 0.89 1.09 0.93 0.71 0.61 0.65 0.69 0.73 0.86 0.93
0.47 0.57 0.64 0.67 0.70 0.73 0.70 0.67 0.65 0.61 0.54 0.50 0.50 0.50 0.47 0.40 0.33 0.27 0.23 0.17 0.19 0.21 0.24 0.27 0.26 0.21 0.19 0.24 0.52 0.78 0.81 0.75 0.57 0.49 0.48 0.53 0.56 0.52
0.43 0.51 0.54 0.53 0.52 0.54 0.51 0.46 0.46 0.46 0.44 0.43 0.42 0.41 0.39 0.33 0.27 0.22 0.18 0.16 0.15 0.16 0.18 0.21 0.18 0.14 0.15 0.21 0.37 0.54 0.59 0.53 0.47 0.43 0.42 0.38 0.34 0.42
0.37 0.39 0.42 0.43 0.38 0.36 0.36 0.35 0.36 0.37 0.36 0.37 0.36 0.34 0.31 0.26 0.20 0.15 0.12 0.10 0.09 0.08 0.10 0.14 0.14 0.12 0.12 0.15 0.21 0.29 0.32 0.30 0.26 0.28 0.41 0.47 0.44 0.51

GEFSNE_prec_meanprecacc_162.txt.gz
Total_Precipitation_Accumulation
0.84 0.86 0.92 0.98 1.00 0.99 1.03 1.10 1.22 1.24 1.10 0.93 0.87 0.90 0.96 1.00 1.15 1.01 0.95 0.96 0.85 0.79 0.79 0.82 0.84 0.87 0.89 0.91 0.92 0.92 0.88 0.87 0.91 1.00 1.12 1.22 1.30 1.38
0.70 0.71 0.73 0.79 0.93 1.03 1.09 1.14 1.20 1.26 1.25 1.04 0.92 0.92 0.97 1.00 1.16 0.99 0.96 1.04 0.87 0.75 0.71 0.82 0.88 0.87 0.87 0.85 0.83 0.83 0.84 0.85 0.86 0.90 0.99 1.08 1.20 1.31
0.58 0.59 0.63 0.68 0.77 0.84 0.93 1.05 1.19 1.30 1.38 1.21 1.00 0.95 0.98 1.02 1.06 0.95 0.88 0.83 0.77 0.76 0.65 0.71 0.95 1.11 1.01 0.89 0.83 0.79 0.79 0.80 0.81 0.83 0.90 0.98 1.05 1.14
0.46 0.48 0.49 0.50 0.59 0.65 0.74 0.84 0.94 1.06 1.21 1.21 1.04 0.96 0.97 1.03 1.09 1.06 0.92 0.78 0.72 0.81 0.71 0.66 0.81 1.20 1.27 1.03 0.93 0.85 0.76 0.74 0.73 0.77 0.83 0.86 0.88 0.95
0.38 0.41 0.44 0.47 0.54 0.60 0.68 0.73 0.81 0.88 1.04 1.12 1.04 0.98 0.99 1.05 1.14 1.08 0.91 0.86 0.65 0.63 0.65 0.70 0.82 1.34 1.67 1.43 1.14 1.02 0.86 0.77 0.70 0.71 0.76 0.79 0.76 0.74
0.30 0.32 0.35 0.42 0.49 0.57 0.62 0.69 0.79 0.88 0.97 1.07 1.08 1.06 1.07 1.08 1.13 1.16 0.99 0.85 0.68 0.49 0.57 0.66 0.84 1.31 1.86 2.02 1.64 1.36 1.13 0.94 0.81 0.73 0.70 0.68 0.63 0.57
0.30 0.30 0.29 0.34 0.43 0.48 0.55 0.67 0.82 0.93 0.96 1.03 1.07 1.08 1.10 1.16 1.13 1.06 0.98 0.83 0.68 0.55 0.58 0.61 0.85 1.51 2.09 2.38 2.22 1.68 1.26 1.03 0.86 0.75 0.70 0.64 0.58 0.51
0.38 0.36 0.29 0.27 0.30 0.36 0.45 0.56 0.68 0.84 0.96 1.04 1.07 1.04 1.02 1.06 1.06 1.04 1.03 1.00 0.86 0.61 0.59 0.66 0.97 1.78 2.36 2.63 2.53 1.85 1.28 1.05 0.93 0.83 0.77 0.69 0.61 0.53
0.41 0.39 0.32 0.27 0.32 0.39 0.41 0.44 0.53 0.67 0.88 1.04 1.11 1.00 1.02 1.09 1.15 1.16 1.06 1.06 0.99 0.71 0.69 0.85 1.16 1.75 2.24 2.67 2.60 1.94 1.43 1.15 1.03 0.94 0.86 0.76 0.64 0.54
0.33 0.34 0.40 0.44 0.37 0.36 0.40 0.52 0.67 0.76 0.79 0.82 0.97 0.98 0.99 0.98 0.95 0.99 0.98 1.03 0.94 0.72 0.72 0.99 1.24 1.66 2.04 2.48 2.48 1.90 1.46 1.23 1.10 0.99 0.86 0.75 0.65 0.56
0.30 0.29 0.33 0.41 0.38 0.42 0.55 0.76 0.96 1.10 0.96 0.90 0.95 1.06 1.08 0.96 0.79 0.81 1.02 1.12 0.99 0.74 0.69 0.91 1.17 1.39 1.70 2.05 2.07 1.79 1.46 1.27 1.11 0.96 0.83 0.70 0.63 0.59
0.37 0.36 0.38 0.41 0.42 0.53 0.67 0.92 1.14 1.26 1.09 1.01 1.11 1.23 1.16 1.07 0.99 1.00 1.15 1.13 1.00 0.90 0.73 0.82 0.98 1.12 1.51 1.68 1.57 1.44 1.38 1.35 1.20 1.07 0.91 0.72 0.57 0.53
0.41 0.46 0.48 0.49 0.48 0.59 0.77 0.95 1.15 1.21 1.16 1.12 1.10 1.10 1.08 1.08 1.00 1.00 1.00 0.96 0.94 0.92 0.73 0.82 1.00 1.09 1.31 1.47 1.43 1.37 1.25 1.23 1.22 1.26 1.19 0.93 0.66 0.54
0.51 0.54 0.54 0.53 0.55 0.71 0.85 1.06 1.26 1.37 1.25 1.09 0.95 0.88 0.86 0.88 0.86 0.75 0.70 0.67 0.70 0.73 0.68 0.76 1.01 1.17 1.16 1.15 1.30 1.29 1.25 1.25 1.22 1.25 1.29 1.15 0.93 0.80
0.45 0.59 0.59 0.55 0.71 1.00 1.17 1.29 1.45 1.50 1.29 1.01 0.87 0.78 0.70 0.66 0.64 0.64 0.59 0.54 0.51 0.50 0.47 0.57 0.82 0.97 1.01 1.03 1.13 1.15 1.28 1.46 1.38 1.36 1.28 1.17 1.06 0.93
0.37 0.55 0.69 0.73 0.89 1.18 1.39 1.49 1.54 1.44 1.18 0.95 0.81 0.72 0.63 0.58 0.60 0.56 0.56 0.52 0.54 0.58 0.52 0.52 0.63 0.77 0.91 0.91 0.98 1.07 1.18 1.59 1.63 1.41 1.29 1.26 1.17 1.05
0.34 0.51 0.70 0.80 1.00 1.22 1.34 1.35 1.30 1.20 1.10 0.92 0.76 0.68 0.65 0.61 0.59 0.53 0.51 0.46 0.50 0.55 0.55 0.55 0.59 0.63 0.69 0.75 0.89 1.02 1.16 1.39 1.47 1.25 1.11 1.23 1.27 1.13
0.38 0.59 0.77 0.86 1.01 1.13 1.20 1.16 1.07 0.98 0.89 0.81 0.73 0.66 0.62 0.59 0.57 0.50 0.45 0.43 0.48 0.48 0.46 0.44 0.42 0.42 0.50 0.67 0.89 0.96 1.00 1.17 1.19 1.03 0.85 0.95 1.20 1.18
0.41 0.62 0.79 0.90 1.00 1.04 1.04 0.98 0.92 0.86 0.76 0.69 0.65 0.60 0.54 0.50 0.48 0.43 0.39 0.40 0.40 0.38 0.35 0.30 0.26 0.22 0.33 0.69 0.96 1.02 0.93 0.93 0.91 0.86 0.79 0.79 1.02 1.14
0.47 0.63 0.74 0.79 0.86 0.90 0.87 0.85 0.81 0.73 0.65 0.61 0.60 0.57 0.48 0.42 0.39 0.36 0.34 0.31 0.30 0.27 0.24 0.22 0.21 0.21 0.28 0.51 0.89 1.09 0.94 0.71 0.62 0.66 0.69 0.74 0.87 0.94
0.48 0.57 0.65 0.68 0.71 0.73 0.71 0.67 0.66 0.62 0.55 0.51 0.51 0.51 0.48 0.41 0.34 0.27 0.23 0.18 0.19 0.22 0.24 0.27 0.27 0.21 0.19 0.24 0.52 0.78 0.81 0.75 0.57 0.49 0.49 0.53 0.57 0.53
0.44 0.52 0.54 0.53 0.53 0.54 0.52 0.47 0.47 0.47 0.45 0.44 0.43 0.42 0.40 0.34 0.27 0.22 0.18 0.16 0.16 0.16 0.18 0.21 0.18 0.14 0.15 0.21 0.37 0.54 0.59 0.53 0.47 0.43 0.43 0.39 0.35 0.43
0.38 0.40 0.43 0.43 0.39 0.37 0.37 0.36 0.37 0.38 0.37 0.38 0.36 0.35 0.32 0.27 0.21 0.16 0.13 0.11 0.09 0.09 0.10 0.14 0.14 0.12 0.12 0.15 0.21 0.29 0.32 0.30 0.26 0.29 0.41 0.48 0.44 0.51

GEFSNE_prec_meanprecacc_168.txt.gz
Total_Precipitation_Accumulation
0.86 0.89 0.94 1.00 1.02 1.02 1.06 1.13 1.25 1.27 1.13 0.95 0.89 0.91 0.97 1.01 1.17 1.02 0.96 0.98 0.87 0.80 0.81 0.85 0.87 0.89 0.93 0.96 0.97 1.00 0.99 1.00 1.04 1.11 1.22 1.35 1.46 1.55
0.72 0.73 0.75 0.81 0.95 1.05 1.12 1.17 1.23 1.29 1.27 1.06 0.94 0.94 0.99 1.01 1.18 1.00 0.97 1.06 0.90 0.77 0.73 0.84 0.90 0.89 0.90 0.88 0.87 0.88 0.90 0.92 0.94 0.99 1.07 1.16 1.29 1.43
0.59 0.60 0.65 0.69 0.78 0.85 0.95 1.08 1.22 1.33 1.40 1.23 1.03 0.97 1.00 1.03 1.07 0.96 0.89 0.84 0.79 0.78 0.68 0.74 0.97 1.13 1.03 0.91 0.85 0.82 0.83 0.86 0.88 0.92 0.99 1.07 1.14 1.24
0.48 0.50 0.50 0.52 0.60 0.66 0.75 0.85 0.97 1.08 1.23 1.24 1.07 0.98 0.98 1.04 1.10 1.07 0.93 0.79 0.72 0.82 0.72 0.67 0.82 1.21 1.28 1.04 0.96 0.88 0.80 0.78 0.78 0.83 0.89 0.94 0.97 1.04
0.40 0.44 0.47 0.50 0.56 0.61 0.69 0.74 0.82 0.90 1.06 1.14 1.07 1.00 1.01 1.06 1.15 1.10 0.92 0.86 0.66 0.64 0.66 0.70 0.83 1.35 1.68 1.45 1.17 1.06 0.90 0.80 0.72 0.73 0.80 0.83 0.82 0.81
0.32 0.34 0.38 0.44 0.52 0.60 0.65 0.71 0.80 0.91 1.00 1.09 1.10 1.09 1.10 1.10 1.14 1.18 1.01 0.86 0.68 0.49 0.58 0.66 0.85 1.32 1.87 2.04 1.66 1.39 1.16 0.97 0.84 0.76 0.73 0.70 0.65 0.59
0.30 0.31 0.30 0.35 0.45 0.50 0.57 0.69 0.84 0.95 0.99 1.06 1.10 1.11 1.12 1.18 1.14 1.07 1.01 0.86 0.68 0.55 0.58 0.61 0.86 1.51 2.09 2.40 2.24 1.70 1.29 1.06 0.90 0.78 0.73 0.66 0.59 0.52
0.38 0.36 0.29 0.27 0.32 0.37 0.46 0.56 0.69 0.85 0.97 1.05 1.08 1.06 1.05 1.08 1.08 1.05 1.05 1.02 0.87 0.62 0.60 0.67 0.98 1.79 2.38 2.64 2.55 1.87 1.30 1.07 0.94 0.85 0.79 0.71 0.62 0.54
0.41 0.39 0.32 0.27 0.33 0.40 0.41 0.44 0.54 0.68 0.88 1.06 1.13 1.02 1.05 1.11 1.16 1.17 1.07 1.07 1.00 0.71 0.69 0.86 1.17 1.77 2.25 2.69 2.62 1.96 1.45 1.17 1.04 0.95 0.87 0.78 0.66 0.56
0.33 0.34 0.40 0.45 0.38 0.37 0.41 0.53 0.68 0.76 0.80 0.84 1.00 1.01 1.03 1.01 0.97 1.00 0.99 1.04 0.95 0.73 0.74 1.00 1.25 1.67 2.05 2.49 2.49 1.92 1.48 1.24 1.12 1.00 0.87 0.76 0.66 0.58
0.30 0.30 0.34 0.42 0.39 0.43 0.56 0.77 0.97 1.12 0.97 0.92 0.98 1.09 1.12 0.99 0.80 0.82 1.03 1.13 1.00 0.77 0.72 0.93 1.18 1.41 1.72 2.06 2.07 1.80 1.47 1.27 1.11 0.97 0.83 0.71 0.64 0.60
0.39 0.37 0.41 0.43 0.44 0.56 0.70 0.93 1.15 1.28 1.10 1.02 1.12 1.25 1.18 1.10 1.01 1.02 1.16 1.14 1.02 0.94 0.77 0.83 0.98 1.13 1.52 1.69 1.58 1.44 1.38 1.35 1.20 1.07 0.91 0.73 0.57 0.53
0.43 0.48 0.51 0.52 0.50 0.62 0.79 0.97 1.17 1.23 1.17 1.13 1.11 1.11 1.09 1.10 1.03 1.02 1.01 0.97 0.96 0.94 0.75 0.83 1.01 1.09 1.31 1.47 1.43 1.37 1.25 1.23 1.22 1.26 1.20 0.94 0.66 0.54
0.53 0.56 0.55 0.55 0.57 0.73 0.87 1.08 1.28 1.38 1.26 1.10 0.97 0.89 0.87 0.90 0.88 0.77 0.72 0.69 0.72 0.76 0.70 0.77 1.02 1.17 1.16 1.15 1.31 1.29 1.25 1.25 1.22 1.25 1.29 1.15 0.93 0.80
0.46 0.61 0.61 0.56 0.72 1.01 1.19 1.31 1.46 1.51 1.30 1.02 0.89 0.80 0.72 0.68 0.66 0.65 0.60 0.56 0.53 0.52 0.48 0.57 0.82 0.97 1.01 1.03 1.13 1.15 1.28 1.47 1.38 1.36 1.29 1.18 1.07 0.93
0.38 0.57 0.70 0.74 0.90 1.19 1.41 1.50 1.55 1.45 1.19 0.97 0.82 0.73 0.65 0.59 0.60 0.57 0.56 0.53 0.54 0.59 0.52 0.52 0.63 0.77 0.91 0.91 0.98 1.07 1.18 1.59 1.63 1.41 1.29 1.28 1.18 1.06
0.35 0.52 0.70 0.80 1.00 1.22 1.35 1.36 1.31 1.22 1.11 0.93 0.78 0.69 0.66 0.62 0.60 0.53 0.51 0.47 0.50 0.55 0.56 0.55 0.59 0.63 0.69 0.75 0.89 1.02 1.16 1.39 1.47 1.25 1.11 1.23 1.28 1.14
0.38 0.59 0.77 0.86 1.01 1.14 1.20 1.17 1.09 1.00 0.91 0.83 0.75 0.67 0.63 0.59 0.57 0.51 0.45 0.44 0.48 0.48 0.46 0.45 0.42 0.43 0.50 0.67 0.89 0.96 1.00 1.17 1.19 1.03 0.85 0.95 1.20 1.18
0.42 0.62 0.79 0.91 1.01 1.04 1.04 0.99 0.93 0.87 0.78 0.70 0.67 0.62 0.55 0.51 0.48 0.44 0.39 0.40 0.40 0.38 0.35 0.31 0.26 0.23 0.33 0.69 0.96 1.02 0.93 0.93 0.92 0.86 0.79 0.80 1.02 1.14
0.47 0.63 0.74 0.79 0.86 0.90 0.87 0.86 0.81 0.74 0.66 0.62 0.61 0.58 0.49 0.43 0.39 0.36 0.34 0.31 0.31 0.28 0.25 0.22 0.21 0.22 0.28 0.51 0.89 1.09 0.94 0.71 0.62 0.66 0.70 0.74 0.88 0.94
0.48 0.57 0.65 0.68 0.71 0.73 0.71 0.68 0.66 0.62 0.56 0.52 0.51 0.52 0.49 0.42 0.35 0.28 0.24 0.18 0.20 0.22 0.24 0.28 0.27 0.21 0.19 0.24 0.52 0.78 0.81 0.75 0.58 0.50 0.50 0.54 0.57 0.53
0.44 0.52 0.54 0.53 0.53 0.55 0.52 0.47 0.47 0.47 0.45 0.44 0.43 0.42 0.41 0.35 0.28 0.23 0.19 0.17 0.16 0.16 0.18 0.21 0.18 0.14 0.15 0.21 0.37 0.54 0.59 0.53 0.47 0.43 0.43 0.39 0.35 0.43
0.38 0.40 0.44 0.44 0.40 0.38 0.38 0.37 0.38 0.39 0.38 0.39 0.38 0.36 0.34 0.28 0.22 0.17 0.14 0.12 0.10 0.09 0.11 0.14 0.14 0.12 0.12 0.15 0.21 0.29 0.32 0.30 0.26 0.29 0.42 0.48 0.45 0.51

GEFSNE_prec_meanprecacc_174.txt.gz
Total_Precipitation_Accumulation
0.90 0.93 0.98 1.04 1.07 1.06 1.11 1.19 1.32 1.33 1.18 0.99 0.91 0.94 1.01 1.04 1.19 1.04 0.98 0.99 0.89 0.82 0.83 0.86 0.88 0.91 0.96 0.99 1.02 1.06 1.07 1.09 1.14 1.24 1.36 1.48 1.57 1.64
0.75 0.76 0.79 0.85 0.99 1.09 1.16 1.21 1.29 1.35 1.32 1.09 0.96 0.96 1.01 1.04 1.21 1.02 0.99 1.08 0.92 0.79 0.75 0.85 0.92 0.90 0.92 0.91 0.89 0.91 0.94 0.97 0.99 1.05 1.15 1.24 1.36 1.50
0.62 0.63 0.69 0.74 0.82 0.89 0.99 1.12 1.26 1.39 1.46 1.26 1.05 0.99 1.02 1.06 1.10 0.98 0.90 0.86 0.81 0.80 0.69 0.75 0.98 1.14 1.04 0.92 0.86 0.84 0.84 0.88 0.91 0.96 1.04 1.12 1.19 1.29
0.53 0.55 0.55 0.57 0.65 0.70 0.79 0.89 1.00 1.13 1.28 1.27 1.09 1.00 1.00 1.07 1.12 1.10 0.95 0.80 0.74 0.83 0.74 0.68 0.83 1.22 1.29 1.05 0.97 0.89 0.81 0.79 0.80 0.85 0.92 0.98 1.03 1.11
0.44 0.48 0.52 0.56 0.62 0.67 0.74 0.78 0.85 0.93 1.09 1.17 1.09 1.02 1.03 1.08 1.17 1.12 0.95 0.88 0.67 0.65 0.67 0.71 0.83 1.35 1.69 1.46 1.18 1.07 0.91 0.81 0.74 0.76 0.83 0.86 0.86 0.88
0.35 0.38 0.42 0.49 0.57 0.66 0.71 0.76 0.84 0.94 1.04 1.13 1.13 1.12 1.12 1.11 1.16 1.21 1.04 0.88 0.70 0.50 0.58 0.67 0.85 1.32 1.88 2.05 1.67 1.40 1.17 0.99 0.86 0.78 0.75 0.74 0.69 0.63
0.34 0.34 0.33 0.39 0.48 0.54 0.61 0.74 0.88 1.00 1.03 1.10 1.13 1.14 1.15 1.20 1.17 1.10 1.03 0.88 0.70 0.56 0.59 0.62 0.86 1.52 2.10 2.40 2.25 1.71 1.30 1.07 0.91 0.80 0.75 0.69 0.63 0.56
0.42 0.39 0.32 0.30 0.34 0.40 0.48 0.58 0.72 0.88 1.02 1.09 1.12 1.11 1.08 1.11 1.11 1.08 1.08 1.06 0.91 0.64 0.61 0.68 0.99 1.80 2.39 2.65 2.56 1.88 1.31 1.08 0.96 0.87 0.81 0.73 0.65 0.57
0.44 0.43 0.35 0.29 0.35 0.42 0.44 0.47 0.56 0.70 0.91 1.09 1.17 1.06 1.10 1.15 1.20 1.21 1.12 1.11 1.05 0.75 0.71 0.88 1.19 1.79 2.27 2.70 2.64 1.97 1.46 1.18 1.06 0.96 0.88 0.79 0.68 0.57
0.36 0.37 0.43 0.47 0.40 0.39 0.44 0.57 0.73 0.81 0.84 0.87 1.03 1.06 1.09 1.08 1.02 1.04 1.04 1.08 0.99 0.77 0.76 1.04 1.28 1.70 2.07 2.51 2.51 1.93 1.50 1.27 1.14 1.01 0.88 0.77 0.67 0.59
0.31 0.31 0.36 0.43 0.40 0.44 0.58 0.80 1.00 1.16 1.01 0.96 1.02 1.14 1.16 1.04 0.85 0.86 1.08 1.18 1.06 0.83 0.76 0.98 1.23 1.44 1.74 2.07 2.08 1.81 1.48 1.29 1.13 0.99 0.85 0.72 0.64 0.61
0.39 0.38 0.42 0.44 0.45 0.57 0.71 0.96 1.19 1.31 1.13 1.06 1.17 1.29 1.22 1.14 1.04 1.06 1.22 1.19 1.07 0.99 0.82 0.86 1.02 1.15 1.54 1.70 1.59 1.45 1.39 1.36 1.22 1.08 0.92 0.74 0.58 0.54
0.44 0.49 0.51 0.53 0.51 0.63 0.80 0.99 1.20 1.26 1.20 1.16 1.16 1.16 1.15 1.16 1.07 1.06 1.07 1.03 1.01 0.98 0.78 0.85 1.04 1.12 1.34 1.50 1.45 1.38 1.26 1.24 1.23 1.27 1.20 0.94 0.67 0.54
0.54 0.57 0.56 0.56 0.59 0.74 0.88 1.09 1.29 1.40 1.28 1.13 1.00 0.93 0.93 0.96 0.94 0.82 0.77 0.74 0.77 0.80 0.72 0.79 1.05 1.21 1.19 1.18 1.33 1.30 1.26 1.26 1.22 1.25 1.29 1.15 0.94 0.81
0.48 0.62 0.62 0.58 0.73 1.02 1.20 1.32 1.47 1.52 1.32 1.04 0.91 0.83 0.76 0.72 0.70 0.70 0.65 0.60 0.56 0.55 0.50 0.60 0.85 1.00 1.04 1.05 1.15 1.16 1.29 1.47 1.39 1.36 1.29 1.18 1.07 0.93
0.39 0.58 0.71 0.75 0.91 1.20 1.41 1.51 1.56 1.46 1.21 0.98 0.84 0.75 0.68 0.63 0.64 0.60 0.59 0.55 0.56 0.61 0.54 0.53 0.65 0.80 0.94 0.94 1.00 1.09 1.20 1.60 1.63 1.41 1.30 1.28 1.18 1.06
0.35 0.52 0.71 0.81 1.01 1.23 1.36 1.37 1.32 1.22 1.12 0.94 0.79 0.72 0.69 0.65 0.63 0.56 0.54 0.49 0.52 0.56 0.57 0.56 0.60 0.64 0.71 0.77 0.91 1.04 1.18 1.40 1.47 1.26 1.12 1.23 1.28 1.14
0.39 0.60 0.78 0.87 1.02 1.14 1.21 1.17 1.09 1.00 0.92 0.84 0.76 0.68 0.66 0.62 0.60 0.53 0.47 0.46 0.50 0.49 0.47 0.46 0.44 0.44 0.51 0.68 0.89 0.97 1.01 1.17 1.20 1.03 0.85 0.95 1.20 1.19
0.42 0.63 0.79 0.91 1.01 1.05 1.04 0.99 0.94 0.88 0.78 0.71 0.68 0.63 0.57 0.53 0.50 0.45 0.41 0.42 0.42 0.39 0.36 0.32 0.27 0.24 0.35 0.70 0.96 1.02 0.93 0.93 0.92 0.86 0.80 0.80 1.02 1.14
0.47 0.63 0.75 0.80 0.86 0.90 0.87 0.86 0.82 0.75 0.67 0.63 0.62 0.59 0.50 0.44 0.40 0.38 0.36 0.33 0.33 0.29 0.26 0.23 0.22 0.22 0.29 0.52 0.90 1.09 0.94 0.71 0.63 0.67 0.70 0.75 0.88 0.94
0.48 0.58 0.65 0.68 0.71 0.73 0.72 0.69 0.67 0.63 0.57 0.53 0.52 0.53 0.50 0.43 0.36 0.30 0.26 0.20 0.21 0.23 0.25 0.28 0.27 0.22 0.20 0.26 0.53 0.78 0.82 0.75 0.58 0.50 0.50 0.54 0.58 0.53
0.44 0.53 0.55 0.54 0.54 0.55 0.53 0.48 0.48 0.48 0.46 0.45 0.44 0.43 0.42 0.36 0.30 0.25 0.21 0.18 0.17 0.17 0.20 0.22 0.19 0.15 0.16 0.22 0.38 0.55 0.59 0.53 0.47 0.44 0.44 0.40 0.36 0.43
0.38 0.41 0.44 0.44 0.40 0.38 0.38 0.37 0.38 0.40 0.39 0.40 0.38 0.37 0.35 0.29 0.23 0.19 0.16 0.13 0.11 0.11 0.12 0.16 0.15 0.13 0.13 0.16 0.22 0.29 0.32 0.30 0.26 0.30 0.42 0.48 0.45 0.52

GEFSNE_prec_meanprecacc_180.txt.gz
Total_Precipitation_Accumulation
0.96 0.99 1.04 1.09 1.13 1.12 1.17 1.26 1.40 1.42 1.26 1.05 0.95 0.98 1.04 1.08 1.23 1.07 1.02 1.02 0.91 0.85 0.84 0.88 0.89 0.92 0.97 1.02 1.06 1.10 1.12 1.16 1.20 1.30 1.43 1.55 1.65 1.73
0.82 0.82 0.85 0.90 1.06 1.15 1.21 1.28 1.37 1.45 1.42 1.15 1.00 1.00 1.05 1.07 1.24 1.05 1.02 1.10 0.93 0.80 0.76 0.87 0.93 0.92 0.93 0.92 0.91 0.93 0.96 1.00 1.03 1.09 1.20 1.30 1.42 1.56
0.67 0.68 0.74 0.80 0.89 0.96 1.07 1.19 1.34 1.47 1.53 1.31 1.09 1.02 1.05 1.10 1.13 1.01 0.93 0.88 0.83 0.81 0.69 0.76 0.99 1.16 1.05 0.94 0.88 0.86 0.87 0.91 0.94 0.99 1.08 1.17 1.24 1.34
0.59 0.61 0.60 0.62 0.72 0.79 0.88 0.99 1.11 1.22 1.34 1.32 1.13 1.04 1.03 1.11 1.16 1.13 0.97 0.82 0.76 0.84 0.75 0.69 0.84 1.22 1.30 1.06 0.98 0.90 0.82 0.81 0.82 0.88 0.96 1.03 1.07 1.16
0.48 0.54 0.57 0.61 0.69 0.75 0.83 0.88 0.95 1.01 1.16 1.22 1.13 1.06 1.06 1.11 1.21 1.16 0.97 0.90 0.68 0.66 0.68 0.72 0.84 1.36 1.70 1.47 1.19 1.08 0.92 0.82 0.75 0.78 0.85 0.89 0.90 0.92
0.38 0.41 0.46 0.54 0.62 0.72 0.78 0.85 0.93 1.02 1.12 1.20 1.20 1.17 1.17 1.16 1.21 1.25 1.06 0.91 0.72 0.52 0.60 0.68 0.86 1.33 1.89 2.05 1.67 1.41 1.19 1.00 0.87 0.79 0.77 0.76 0.71 0.66
0.37 0.37 0.37 0.42 0.52 0.57 0.64 0.77 0.93 1.07 1.11 1.17 1.20 1.22 1.22 1.27 1.21 1.13 1.06 0.91 0.74 0.59 0.61 0.64 0.88 1.54 2.12 2.42 2.25 1.72 1.31 1.09 0.93 0.82 0.77 0.71 0.64 0.57
0.46 0.43 0.34 0.33 0.36 0.41 0.49 0.60 0.74 0.93 1.08 1.16 1.19 1.17 1.16 1.19 1.17 1.13 1.12 1.10 0.96 0.67 0.63 0.71 1.01 1.83 2.42 2.67 2.57 1.88 1.31 1.09 0.97 0.88 0.82 0.75 0.66 0.58
0.49 0.48 0.38 0.31 0.38 0.45 0.46 0.49 0.57 0.72 0.94 1.13 1.22 1.13 1.17 1.23 1.27 1.28 1.19 1.18 1.12 0.80 0.75 0.91 1.22 1.82 2.30 2.71 2.64 1.98 1.47 1.19 1.07 0.98 0.90 0.82 0.70 0.60
0.40 0.42 0.47 0.51 0.42 0.41 0.47 0.62 0.77 0.84 0.86 0.90 1.08 1.12 1.15 1.15 1.11 1.13 1.13 1.16 1.06 0.83 0.81 1.08 1.32 1.73 2.09 2.53 2.52 1.94 1.50 1.27 1.15 1.03 0.90 0.79 0.69 0.61
0.33 0.32 0.37 0.45 0.42 0.46 0.61 0.85 1.04 1.19 1.03 0.98 1.04 1.17 1.20 1.08 0.91 0.95 1.17 1.26 1.12 0.88 0.81 1.03 1.28 1.48 1.77 2.09 2.09 1.81 1.49 1.30 1.14 0.99 0.86 0.74 0.66 0.63
0.40 0.39 0.42 0.44 0.45 0.58 0.73 1.00 1.23 1.34 1.16 1.08 1.19 1.32 1.26 1.16 1.07 1.11 1.30 1.28 1.15 1.08 0.89 0.93 1.10 1.21 1.59 1.74 1.60 1.45 1.40 1.37 1.23 1.09 0.94 0.75 0.60 0.55
0.45 0.50 0.52 0.53 0.51 0.63 0.81 1.00 1.21 1.27 1.22 1.19 1.20 1.21 1.20 1.20 1.10 1.09 1.12 1.09 1.09 1.08 0.86 0.92 1.11 1.19 1.40 1.56 1.48 1.39 1.27 1.25 1.24 1.28 1.22 0.97 0.69 0.56
0.55 0.58 0.57 0.56 0.59 0.74 0.88 1.09 1.29 1.40 1.29 1.15 1.04 0.99 0.98 1.01 0.98 0.86 0.81 0.79 0.84 0.89 0.81 0.88 1.14 1.29 1.26 1.25 1.39 1.35 1.29 1.27 1.23 1.27 1.31 1.17 0.95 0.82
0.48 0.64 0.63 0.58 0.74 1.03 1.20 1.32 1.47 1.53 1.33 1.06 0.94 0.87 0.80 0.75 0.73 0.74 0.70 0.65 0.63 0.63 0.57 0.66 0.92 1.08 1.11 1.12 1.22 1.21 1.32 1.50 1.41 1.37 1.30 1.19 1.07 0.94
0.40 0.59 0.72 0.76 0.92 1.20 1.42 1.52 1.57 1.47 1.23 1.01 0.86 0.79 0.71 0.67 0.68 0.64 0.63 0.61 0.64 0.68 0.59 0.57 0.69 0.86 1.00 1.00 1.05 1.14 1.23 1.63 1.65 1.42 1.31 1.29 1.19 1.06
0.36 0.53 0.73 0.83 1.03 1.24 1.38 1.39 1.33 1.23 1.14 0.96 0.81 0.75 0.74 0.71 0.68 0.61 0.59 0.54 0.57 0.60 0.61 0.59 0.62 0.67 0.74 0.82 0.96 1.08 1.20 1.42 1.49 1.27 1.13 1.25 1.29 1.14
0.39 0.61 0.79 0.89 1.04 1.16 1.24 1.20 1.11 1.02 0.94 0.86 0.79 0.72 0.69 0.66 0.65 0.58 0.51 0.49 0.53 0.52 0.50 0.47 0.46 0.47 0.54 0.70 0.92 0.99 1.03 1.19 1.21 1.05 0.87 0.97 1.21 1.19
0.42 0.64 0.81 0.93 1.03 1.06 1.06 1.01 0.96 0.90 0.80 0.74 0.70 0.66 0.60 0.56 0.53 0.48 0.44 0.45 0.44 0.41 0.38 0.34 0.29 0.27 0.38 0.74 0.98 1.03 0.95 0.96 0.94 0.88 0.81 0.81 1.03 1.15
0.49 0.64 0.76 0.82 0.88 0.91 0.89 0.88 0.84 0.77 0.69 0.65 0.65 0.62 0.53 0.47 0.43 0.41 0.39 0.37 0.36 0.32 0.28 0.25 0.24 0.24 0.32 0.55 0.93 1.10 0.95 0.73 0.65 0.69 0.71 0.76 0.89 0.95
0.51 0.61 0.67 0.70 0.72 0.75 0.73 0.70 0.69 0.66 0.59 0.55 0.55 0.56 0.53 0.46 0.39 0.32 0.28 0.23 0.25 0.26 0.27 0.30 0.29 0.23 0.21 0.27 0.54 0.79 0.82 0.76 0.59 0.52 0.52 0.56 0.59 0.54
0.48 0.55 0.57 0.55 0.55 0.56 0.54 0.49 0.50 0.50 0.48 0.47 0.47 0.47 0.46 0.40 0.33 0.27 0.23 0.21 0.20 0.20 0.21 0.23 0.20 0.16 0.17 0.24 0.39 0.56 0.60 0.54 0.48 0.45 0.45 0.41 0.36 0.44
0.40 0.43 0.46 0.46 0.42 0.40 0.40 0.39 0.40 0.42 0.42 0.42 0.41 0.40 0.38 0.33 0.26 0.21 0.18 0.16 0.14 0.13 0.14 0.17 0.17 0.14 0.14 0.17 0.23 0.31 0.33 0.31 0.28 0.31 0.43 0.49 0.45 0.52

GEFSNE_prec_meanprecacc_186.txt.gz
Total_Precipitation_Accumulation
0.99 1.03 1.08 1.13 1.17 1.16 1.20 1.29 1.44 1.46 1.29 1.06 0.96 0.99 1.05 1.09 1.24 1.09 1.03 1.03 0.92 0.85 0.85 0.88 0.90 0.92 0.98 1.03 1.07 1.13 1.15 1.21 1.26 1.37 1.51 1.63 1.74 1.82
0.85 0.85 0.88 0.94 1.09 1.18 1.25 1.31 1.40 1.48 1.44 1.16 1.01 1.00 1.06 1.08 1.25 1.06 1.03 1.11 0.94 0.81 0.77 0.87 0.93 0.92 0.94 0.93 0.93 0.95 0.99 1.03 1.08 1.16 1.29 1.41 1.53 1.66
0.70 0.72 0.78 0.84 0.92 0.99 1.10 1.22 1.37 1.50 1.56 1.32 1.10 1.03 1.06 1.11 1.14 1.03 0.94 0.90 0.83 0.82 0.70 0.76 1.00 1.16 1.06 0.95 0.89 0.87 0.88 0.93 0.97 1.04 1.16 1.29 1.37 1.45
0.61 0.64 0.63 0.66 0.76 0.83 0.92 1.02 1.13 1.24 1.36 1.33 1.14 1.05 1.04 1.12 1.17 1.15 0.99 0.84 0.77 0.85 0.75 0.69 0.84 1.23 1.30 1.07 0.99 0.91 0.83 0.83 0.84 0.91 1.01 1.11 1.19 1.28
0.50 0.56 0.60 0.64 0.73 0.79 0.88 0.92 0.98 1.03 1.19 1.24 1.14 1.07 1.08 1.13 1.23 1.18 0.99 0.92 0.70 0.68 0.69 0.72 0.85 1.37 1.70 1.47 1.20 1.09 0.93 0.83 0.76 0.79 0.87 0.93 0.96 1.00
0.40 0.43 0.48 0.55 0.65 0.75 0.80 0.87 0.96 1.06 1.14 1.22 1.21 1.18 1.19 1.18 1.23 1.26 1.08 0.92 0.75 0.54 0.61 0.69 0.87 1.34 1.89 2.06 1.68 1.42 1.21 1.01 0.88 0.80 0.78 0.77 0.73 0.70
0.39 0.39 0.38 0.43 0.53 0.59 0.65 0.79 0.98 1.13 1.14 1.19 1.22 1.23 1.23 1.28 1.23 1.15 1.07 0.93 0.76 0.62 0.63 0.65 0.89 1.55 2.12 2.42 2.26 1.73 1.32 1.10 0.94 0.83 0.78 0.73 0.67 0.60
0.47 0.44 0.35 0.33 0.37 0.42 0.50 0.61 0.78 0.99 1.13 1.19 1.21 1.19 1.17 1.21 1.20 1.15 1.14 1.12 0.98 0.70 0.66 0.72 1.03 1.84 2.43 2.68 2.59 1.90 1.32 1.10 0.98 0.89 0.83 0.76 0.68 0.61
0.50 0.50 0.38 0.32 0.39 0.46 0.48 0.50 0.60 0.75 0.96 1.16 1.24 1.14 1.19 1.26 1.31 1.32 1.22 1.21 1.14 0.83 0.79 0.93 1.23 1.83 2.31 2.72 2.66 1.99 1.47 1.19 1.08 0.99 0.91 0.83 0.71 0.62
0.42 0.44 0.48 0.51 0.43 0.42 0.48 0.63 0.78 0.84 0.87 0.91 1.09 1.12 1.17 1.17 1.12 1.15 1.16 1.19 1.09 0.86 0.86 1.12 1.34 1.74 2.11 2.54 2.53 1.95 1.51 1.28 1.16 1.05 0.91 0.80 0.70 0.62
0.36 0.35 0.38 0.46 0.43 0.47 0.62 0.86 1.06 1.20 1.04 0.98 1.05 1.19 1.21 1.09 0.92 0.97 1.20 1.29 1.15 0.91 0.84 1.07 1.31 1.50 1.78 2.10 2.10 1.82 1.49 1.30 1.14 1.00 0.87 0.75 0.67 0.64
0.42 0.41 0.44 0.45 0.46 0.59 0.74 1.02 1.25 1.35 1.17 1.10 1.21 1.34 1.27 1.18 1.08 1.12 1.31 1.29 1.17 1.10 0.91 0.96 1.13 1.25 1.62 1.76 1.61 1.46 1.41 1.38 1.23 1.10 0.95 0.77 0.62 0.56
0.46 0.51 0.53 0.54 0.52 0.63 0.81 1.01 1.23 1.29 1.24 1.20 1.22 1.23 1.23 1.22 1.12 1.11 1.14 1.11 1.10 1.10 0.88 0.95 1.15 1.24 1.44 1.58 1.50 1.40 1.28 1.26 1.24 1.29 1.23 0.98 0.71 0.58
0.56 0.59 0.57 0.57 0.60 0.75 0.89 1.09 1.30 1.41 1.30 1.16 1.05 1.01 1.00 1.03 1.00 0.88 0.83 0.81 0.86 0.91 0.84 0.91 1.19 1.33 1.30 1.28 1.42 1.37 1.30 1.28 1.24 1.28 1.32 1.19 0.97 0.83
0.49 0.64 0.63 0.59 0.74 1.03 1.20 1.32 1.48 1.54 1.34 1.07 0.96 0.89 0.82 0.78 0.75 0.76 0.73 0.67 0.65 0.65 0.60 0.69 0.94 1.11 1.15 1.18 1.27 1.26 1.35 1.52 1.42 1.39 1.32 1.20 1.08 0.94
0.40 0.60 0.72 0.76 0.92 1.21 1.42 1.53 1.58 1.48 1.23 1.01 0.88 0.79 0.72 0.68 0.69 0.66 0.66 0.64 0.66 0.70 0.61 0.59 0.71 0.87 1.03 1.05 1.12 1.22 1.29 1.66 1.68 1.44 1.32 1.30 1.20 1.07
0.36 0.54 0.73 0.83 1.03 1.25 1.39 1.40 1.34 1.24 1.15 0.97 0.83 0.76 0.74 0.71 0.69 0.62 0.61 0.56 0.58 0.62 0.62 0.61 0.64 0.69 0.76 0.84 1.00 1.14 1.26 1.46 1.52 1.30 1.16 1.26 1.30 1.15
0.39 0.62 0.80 0.90 1.05 1.17 1.25 1.22 1.12 1.03 0.95 0.87 0.80 0.73 0.70 0.67 0.66 0.59 0.52 0.50 0.54 0.53 0.51 0.49 0.48 0.49 0.56 0.72 0.93 1.02 1.08 1.24 1.24 1.07 0.89 0.98 1.22 1.20
0.43 0.65 0.82 0.94 1.04 1.07 1.08 1.03 0.97 0.92 0.83 0.76 0.72 0.67 0.61 0.57 0.54 0.50 0.45 0.46 0.45 0.42 0.39 0.35 0.31 0.29 0.40 0.75 0.99 1.04 0.97 0.99 0.99 0.92 0.83 0.83 1.04 1.15
0.50 0.66 0.78 0.83 0.89 0.93 0.91 0.89 0.86 0.79 0.72 0.68 0.67 0.63 0.55 0.49 0.45 0.42 0.40 0.38 0.37 0.33 0.29 0.26 0.25 0.26 0.33 0.56 0.94 1.11 0.95 0.74 0.67 0.71 0.74 0.78 0.90 0.96
0.53 0.63 0.69 0.72 0.75 0.78 0.76 0.72 0.71 0.68 0.61 0.58 0.58 0.58 0.56 0.49 0.41 0.34 0.30 0.24 0.25 0.27 0.28 0.31 0.29 0.24 0.23 0.29 0.55 0.80 0.83 0.76 0.60 0.53 0.53 0.57 0.60 0.55
0.49 0.57 0.59 0.59 0.59 0.60 0.57 0.52 0.52 0.52 0.50 0.50 0.50 0.49 0.49 0.43 0.36 0.29 0.24 0.22 0.21 0.21 0.22 0.24 0.21 0.18 0.19 0.25 0.41 0.57 0.62 0.55 0.49 0.46 0.46 0.41 0.37 0.45
0.42 0.46 0.49 0.49 0.45 0.43 0.43 0.43 0.44 0.45 0.45 0.46 0.46 0.44 0.41 0.36 0.29 0.24 0.20 0.17 0.15 0.14 0.15 0.18 0.18 0.16 0.16 0.19 0.25 0.32 0.35 0.32 0.29 0.32 0.43 0.49 0.46 0.52

GEFSNE_prec_meanprecacc_192.txt.gz
Total_Precipitation_Accumulation
0.99 1.04 1.09 1.15 1.19 1.18 1.23 1.32 1.47 1.49 1.31 1.08 0.98 1.00 1.06 1.10 1.26 1.11 1.04 1.05 0.94 0.87 0.86 0.88 0.90 0.93 0.99 1.05 1.09 1.14 1.16 1.22 1.28 1.39 1.54 1.67 1.79 1.89
0.85 0.86 0.89 0.95 1.11 1.20 1.27 1.34 1.43 1.51 1.47 1.18 1.03 1.02 1.07 1.09 1.27 1.07 1.05 1.13 0.95 0.82 0.77 0.87 0.93 0.92 0.94 0.94 0.93 0.96 1.00 1.04 1.08 1.18 1.32 1.44 1.58 1.73
0.71 0.72 0.79 0.85 0.93 1.00 1.12 1.24 1.40 1.53 1.58 1.35 1.12 1.06 1.09 1.13 1.16 1.04 0.95 0.90 0.84 0.82 0.71 0.76 1.00 1.16 1.06 0.95 0.89 0.87 0.89 0.94 0.98 1.06 1.18 1.32 1.42 1.52
0.62 0.64 0.63 0.66 0.77 0.85 0.95 1.05 1.16 1.27 1.39 1.36 1.17 1.08 1.08 1.15 1.19 1.17 1.00 0.85 0.78 0.86 0.76 0.70 0.84 1.23 1.30 1.07 0.99 0.91 0.84 0.84 0.86 0.93 1.03 1.14 1.23 1.35
0.51 0.57 0.61 0.65 0.74 0.82 0.91 0.95 1.01 1.06 1.21 1.26 1.16 1.10 1.11 1.15 1.25 1.19 1.00 0.93 0.71 0.68 0.70 0.73 0.85 1.37 1.71 1.48 1.21 1.10 0.93 0.84 0.77 0.81 0.90 0.96 1.00 1.06
0.41 0.45 0.49 0.57 0.66 0.77 0.83 0.90 0.98 1.08 1.16 1.24 1.23 1.21 1.21 1.19 1.24 1.27 1.09 0.93 0.75 0.54 0.62 0.70 0.88 1.35 1.90 2.07 1.69 1.43 1.21 1.02 0.89 0.82 0.80 0.80 0.77 0.74
0.40 0.40 0.39 0.44 0.55 0.61 0.68 0.81 1.00 1.15 1.16 1.21 1.23 1.25 1.25 1.30 1.24 1.16 1.08 0.94 0.77 0.62 0.64 0.66 0.91 1.56 2.13 2.43 2.27 1.73 1.32 1.11 0.95 0.84 0.80 0.74 0.69 0.63
0.48 0.46 0.36 0.34 0.38 0.44 0.52 0.63 0.81 1.03 1.17 1.23 1.23 1.21 1.19 1.23 1.22 1.17 1.16 1.13 0.99 0.71 0.67 0.73 1.05 1.86 2.44 2.68 2.59 1.90 1.33 1.11 1.00 0.90 0.84 0.77 0.69 0.63
0.52 0.51 0.40 0.33 0.40 0.47 0.49 0.52 0.62 0.79 1.04 1.22 1.28 1.16 1.20 1.28 1.32 1.33 1.24 1.23 1.16 0.84 0.80 0.94 1.24 1.84 2.32 2.73 2.66 2.00 1.48 1.21 1.09 1.00 0.92 0.84 0.73 0.63
0.43 0.45 0.49 0.52 0.44 0.44 0.50 0.65 0.80 0.87 0.91 0.96 1.13 1.15 1.18 1.18 1.14 1.17 1.18 1.21 1.11 0.88 0.88 1.14 1.35 1.76 2.12 2.54 2.54 1.95 1.52 1.29 1.18 1.07 0.93 0.81 0.71 0.63
0.37 0.36 0.39 0.46 0.44 0.49 0.64 0.88 1.07 1.21 1.05 1.01 1.07 1.21 1.23 1.10 0.94 1.00 1.23 1.32 1.18 0.93 0.86 1.09 1.32 1.51 1.81 2.12 2.11 1.84 1.50 1.31 1.16 1.02 0.89 0.77 0.69 0.66
0.43 0.42 0.46 0.47 0.49 0.61 0.76 1.03 1.25 1.36 1.18 1.10 1.22 1.35 1.28 1.18 1.09 1.13 1.33 1.32 1.19 1.12 0.93 0.99 1.15 1.27 1.65 1.80 1.65 1.49 1.43 1.40 1.25 1.12 0.97 0.79 0.64 0.58
0.48 0.53 0.55 0.56 0.54 0.65 0.83 1.02 1.23 1.29 1.24 1.21 1.22 1.24 1.24 1.23 1.13 1.12 1.15 1.12 1.12 1.11 0.89 0.96 1.17 1.26 1.48 1.63 1.56 1.44 1.30 1.28 1.26 1.31 1.26 1.01 0.74 0.60
0.58 0.60 0.58 0.58 0.61 0.76 0.89 1.10 1.30 1.42 1.31 1.17 1.07 1.02 1.01 1.05 1.02 0.90 0.84 0.82 0.87 0.93 0.85 0.92 1.20 1.35 1.33 1.32 1.46 1.40 1.32 1.30 1.26 1.30 1.34 1.21 1.00 0.86
0.51 0.65 0.64 0.60 0.75 1.03 1.21 1.33 1.49 1.54 1.35 1.08 0.99 0.91 0.84 0.80 0.77 0.78 0.74 0.69 0.67 0.68 0.63 0.70 0.96 1.13 1.17 1.21 1.30 1.28 1.38 1.56 1.44 1.40 1.33 1.21 1.10 0.97
0.41 0.60 0.73 0.76 0.92 1.21 1.44 1.54 1.58 1.49 1.24 1.02 0.89 0.82 0.75 0.71 0.70 0.67 0.69 0.66 0.69 0.72 0.63 0.61 0.72 0.89 1.04 1.07 1.15 1.25 1.32 1.70 1.72 1.48 1.35 1.32 1.21 1.09
0.37 0.54 0.74 0.84 1.04 1.26 1.40 1.41 1.35 1.25 1.15 0.97 0.83 0.77 0.75 0.72 0.70 0.64 0.63 0.59 0.61 0.64 0.64 0.62 0.65 0.70 0.78 0.87 1.02 1.17 1.31 1.51 1.56 1.34 1.20 1.30 1.32 1.17
0.40 0.62 0.81 0.90 1.06 1.18 1.26 1.23 1.13 1.04 0.97 0.88 0.81 0.73 0.70 0.68 0.67 0.60 0.54 0.52 0.56 0.55 0.53 0.50 0.49 0.50 0.58 0.75 0.96 1.04 1.10 1.27 1.30 1.13 0.94 1.03 1.26 1.23
0.44 0.65 0.82 0.95 1.05 1.08 1.09 1.04 0.99 0.93 0.85 0.78 0.74 0.69 0.62 0.58 0.56 0.51 0.47 0.47 0.46 0.44 0.40 0.36 0.32 0.31 0.42 0.76 1.00 1.06 0.98 1.00 1.01 0.96 0.89 0.89 1.11 1.22
0.51 0.67 0.79 0.84 0.90 0.94 0.92 0.91 0.88 0.81 0.74 0.71 0.70 0.67 0.58 0.52 0.47 0.44 0.42 0.40 0.39 0.34 0.30 0.27 0.26 0.28 0.35 0.58 0.95 1.12 0.96 0.75 0.68 0.73 0.76 0.80 0.93 1.01
0.53 0.64 0.70 0.73 0.76 0.80 0.78 0.75 0.73 0.69 0.63 0.60 0.60 0.62 0.60 0.52 0.43 0.36 0.32 0.26 0.27 0.28 0.29 0.31 0.30 0.25 0.24 0.30 0.57 0.82 0.85 0.78 0.62 0.54 0.54 0.59 0.61 0.56
0.50 0.58 0.60 0.60 0.60 0.61 0.58 0.53 0.54 0.54 0.52 0.53 0.53 0.52 0.51 0.45 0.38 0.31 0.27 0.24 0.24 0.22 0.23 0.25 0.22 0.18 0.20 0.27 0.43 0.59 0.63 0.56 0.50 0.47 0.46 0.42 0.38 0.46
0.43 0.46 0.50 0.50 0.45 0.43 0.44 0.44 0.45 0.47 0.47 0.48 0.48 0.46 0.43 0.37 0.31 0.26 0.23 0.20 0.18 0.16 0.17 0.19 0.19 0.17 0.17 0.20 0.26 0.33 0.36 0.33 0.30 0.32 0.44 0.49 0.46 0.53